<?xml version="1.0" encoding="UTF-8" standalone="no" ?>
<gpx xmlns="http://www.topografix.com/GPX/1/1" creator="www.cicloide.com" version="1.1" xmlns:xsi="http://www.w3.org/2001/XMLSchema-instance" xsi:schemaLocation="http://www.topografix.com/GPX/1/1 http://www.topografix.com/GPX/1/1/gpx.xsd">
  <trk>
    <name>www.cicloide.com 12493</name>
    <desc>www.cicloide.com 12493</desc>
    <trkseg>
      <trkpt lat="41.605741300" lon="2.540328800">
        <ele>123.20</ele>
        <time>2013-03-10T08:08:57Z</time>
      </trkpt>
      <trkpt lat="41.605734200" lon="2.540327300">
        <ele>123.20</ele>
        <time>2013-03-10T08:09:19Z</time>
      </trkpt>
      <trkpt lat="41.605765200" lon="2.540342100">
        <ele>123.20</ele>
        <time>2013-03-10T08:09:37Z</time>
      </trkpt>
      <trkpt lat="41.605767500" lon="2.540348200">
        <ele>123.20</ele>
        <time>2013-03-10T08:10:05Z</time>
      </trkpt>
      <trkpt lat="41.605746400" lon="2.540361500">
        <ele>123.20</ele>
        <time>2013-03-10T08:10:36Z</time>
      </trkpt>
      <trkpt lat="41.605721800" lon="2.540373700">
        <ele>123.20</ele>
        <time>2013-03-10T08:11:02Z</time>
      </trkpt>
      <trkpt lat="41.605753500" lon="2.540344500">
        <ele>123.20</ele>
        <time>2013-03-10T08:11:26Z</time>
      </trkpt>
      <trkpt lat="41.605733600" lon="2.540330900">
        <ele>123.20</ele>
        <time>2013-03-10T08:11:54Z</time>
      </trkpt>
      <trkpt lat="41.605726500" lon="2.540427000">
        <ele>123.20</ele>
        <time>2013-03-10T08:12:19Z</time>
      </trkpt>
      <trkpt lat="41.605730800" lon="2.540366700">
        <ele>123.20</ele>
        <time>2013-03-10T08:12:43Z</time>
      </trkpt>
      <trkpt lat="41.605715000" lon="2.540387000">
        <ele>123.20</ele>
        <time>2013-03-10T08:13:13Z</time>
      </trkpt>
      <trkpt lat="41.605711500" lon="2.540340200">
        <ele>123.20</ele>
        <time>2013-03-10T08:13:32Z</time>
      </trkpt>
      <trkpt lat="41.605705000" lon="2.540346100">
        <ele>123.20</ele>
        <time>2013-03-10T08:13:58Z</time>
      </trkpt>
      <trkpt lat="41.605708400" lon="2.540315000">
        <ele>123.20</ele>
        <time>2013-03-10T08:14:07Z</time>
      </trkpt>
      <trkpt lat="41.605688600" lon="2.540327300">
        <ele>123.20</ele>
        <time>2013-03-10T08:14:14Z</time>
      </trkpt>
      <trkpt lat="41.605652500" lon="2.540304000">
        <ele>123.20</ele>
        <time>2013-03-10T08:14:17Z</time>
      </trkpt>
      <trkpt lat="41.605687200" lon="2.540337800">
        <ele>123.20</ele>
        <time>2013-03-10T08:14:22Z</time>
      </trkpt>
      <trkpt lat="41.605754600" lon="2.540335600">
        <ele>123.20</ele>
        <time>2013-03-10T08:14:29Z</time>
      </trkpt>
      <trkpt lat="41.605714600" lon="2.540317100">
        <ele>123.20</ele>
        <time>2013-03-10T08:14:36Z</time>
      </trkpt>
      <trkpt lat="41.605691600" lon="2.540327500">
        <ele>123.20</ele>
        <time>2013-03-10T08:14:48Z</time>
      </trkpt>
      <trkpt lat="41.605697900" lon="2.540355200">
        <ele>123.20</ele>
        <time>2013-03-10T08:15:06Z</time>
      </trkpt>
      <trkpt lat="41.605728900" lon="2.540362000">
        <ele>123.20</ele>
        <time>2013-03-10T08:15:20Z</time>
      </trkpt>
      <trkpt lat="41.605716900" lon="2.540332300">
        <ele>123.20</ele>
        <time>2013-03-10T08:15:44Z</time>
      </trkpt>
      <trkpt lat="41.605719600" lon="2.540367000">
        <ele>123.20</ele>
        <time>2013-03-10T08:16:00Z</time>
      </trkpt>
      <trkpt lat="41.605724100" lon="2.540367000">
        <ele>123.20</ele>
        <time>2013-03-10T08:16:19Z</time>
      </trkpt>
      <trkpt lat="41.605728000" lon="2.540354900">
        <ele>123.20</ele>
        <time>2013-03-10T08:16:38Z</time>
      </trkpt>
      <trkpt lat="41.605736700" lon="2.540351900">
        <ele>123.20</ele>
        <time>2013-03-10T08:16:56Z</time>
      </trkpt>
      <trkpt lat="41.605732600" lon="2.540346200">
        <ele>123.20</ele>
        <time>2013-03-10T08:17:11Z</time>
      </trkpt>
      <trkpt lat="41.605733300" lon="2.540350600">
        <ele>123.20</ele>
        <time>2013-03-10T08:17:22Z</time>
      </trkpt>
      <trkpt lat="41.605739400" lon="2.540353000">
        <ele>123.20</ele>
        <time>2013-03-10T08:17:27Z</time>
      </trkpt>
      <trkpt lat="41.605840000" lon="2.540383400">
        <ele>123.70</ele>
        <time>2013-03-10T08:17:34Z</time>
      </trkpt>
      <trkpt lat="41.605977600" lon="2.540356000">
        <ele>123.70</ele>
        <time>2013-03-10T08:17:41Z</time>
      </trkpt>
      <trkpt lat="41.606186800" lon="2.540382000">
        <ele>123.70</ele>
        <time>2013-03-10T08:17:50Z</time>
      </trkpt>
      <trkpt lat="41.606391800" lon="2.540496600">
        <ele>124.20</ele>
        <time>2013-03-10T08:17:58Z</time>
      </trkpt>
      <trkpt lat="41.606582200" lon="2.540572100">
        <ele>124.20</ele>
        <time>2013-03-10T08:18:07Z</time>
      </trkpt>
      <trkpt lat="41.606769100" lon="2.540657400">
        <ele>125.10</ele>
        <time>2013-03-10T08:18:14Z</time>
      </trkpt>
      <trkpt lat="41.606977900" lon="2.540729000">
        <ele>125.60</ele>
        <time>2013-03-10T08:18:23Z</time>
      </trkpt>
      <trkpt lat="41.607184000" lon="2.540796100">
        <ele>126.10</ele>
        <time>2013-03-10T08:18:31Z</time>
      </trkpt>
      <trkpt lat="41.607366100" lon="2.540810600">
        <ele>127.00</ele>
        <time>2013-03-10T08:18:38Z</time>
      </trkpt>
      <trkpt lat="41.607544100" lon="2.540826200">
        <ele>127.50</ele>
        <time>2013-03-10T08:18:45Z</time>
      </trkpt>
      <trkpt lat="41.607678000" lon="2.540806300">
        <ele>127.50</ele>
        <time>2013-03-10T08:18:52Z</time>
      </trkpt>
      <trkpt lat="41.607868300" lon="2.540776900">
        <ele>128.00</ele>
        <time>2013-03-10T08:18:59Z</time>
      </trkpt>
      <trkpt lat="41.608071500" lon="2.540763700">
        <ele>128.50</ele>
        <time>2013-03-10T08:19:08Z</time>
      </trkpt>
      <trkpt lat="41.608317800" lon="2.540725700">
        <ele>129.90</ele>
        <time>2013-03-10T08:19:17Z</time>
      </trkpt>
      <trkpt lat="41.608490200" lon="2.540698700">
        <ele>129.90</ele>
        <time>2013-03-10T08:19:24Z</time>
      </trkpt>
      <trkpt lat="41.608592800" lon="2.540687700">
        <ele>129.90</ele>
        <time>2013-03-10T08:19:27Z</time>
      </trkpt>
      <trkpt lat="41.608847900" lon="2.540624100">
        <ele>130.40</ele>
        <time>2013-03-10T08:19:38Z</time>
      </trkpt>
      <trkpt lat="41.609059300" lon="2.540595000">
        <ele>131.40</ele>
        <time>2013-03-10T08:19:46Z</time>
      </trkpt>
      <trkpt lat="41.609256700" lon="2.540571200">
        <ele>131.80</ele>
        <time>2013-03-10T08:19:55Z</time>
      </trkpt>
      <trkpt lat="41.609442500" lon="2.540549600">
        <ele>132.30</ele>
        <time>2013-03-10T08:20:02Z</time>
      </trkpt>
      <trkpt lat="41.609644000" lon="2.540524700">
        <ele>133.30</ele>
        <time>2013-03-10T08:20:09Z</time>
      </trkpt>
      <trkpt lat="41.609841100" lon="2.540464000">
        <ele>133.80</ele>
        <time>2013-03-10T08:20:18Z</time>
      </trkpt>
      <trkpt lat="41.609985800" lon="2.540383200">
        <ele>134.20</ele>
        <time>2013-03-10T08:20:23Z</time>
      </trkpt>
      <trkpt lat="41.610134500" lon="2.540311700">
        <ele>134.70</ele>
        <time>2013-03-10T08:20:30Z</time>
      </trkpt>
      <trkpt lat="41.610319900" lon="2.540223400">
        <ele>135.70</ele>
        <time>2013-03-10T08:20:37Z</time>
      </trkpt>
      <trkpt lat="41.610480600" lon="2.540141300">
        <ele>136.20</ele>
        <time>2013-03-10T08:20:42Z</time>
      </trkpt>
      <trkpt lat="41.610674900" lon="2.540050600">
        <ele>136.60</ele>
        <time>2013-03-10T08:20:49Z</time>
      </trkpt>
      <trkpt lat="41.610871300" lon="2.539958700">
        <ele>137.60</ele>
        <time>2013-03-10T08:20:56Z</time>
      </trkpt>
      <trkpt lat="41.611054000" lon="2.539859300">
        <ele>138.10</ele>
        <time>2013-03-10T08:21:03Z</time>
      </trkpt>
      <trkpt lat="41.611287400" lon="2.539740100">
        <ele>139.10</ele>
        <time>2013-03-10T08:21:10Z</time>
      </trkpt>
      <trkpt lat="41.611419600" lon="2.539653900">
        <ele>139.10</ele>
        <time>2013-03-10T08:21:15Z</time>
      </trkpt>
      <trkpt lat="41.611564300" lon="2.539525500">
        <ele>140.00</ele>
        <time>2013-03-10T08:21:22Z</time>
      </trkpt>
      <trkpt lat="41.611696200" lon="2.539363200">
        <ele>140.50</ele>
        <time>2013-03-10T08:21:27Z</time>
      </trkpt>
      <trkpt lat="41.611804700" lon="2.539194900">
        <ele>141.00</ele>
        <time>2013-03-10T08:21:34Z</time>
      </trkpt>
      <trkpt lat="41.611959500" lon="2.538983200">
        <ele>142.40</ele>
        <time>2013-03-10T08:21:43Z</time>
      </trkpt>
      <trkpt lat="41.612090100" lon="2.538771000">
        <ele>142.90</ele>
        <time>2013-03-10T08:21:50Z</time>
      </trkpt>
      <trkpt lat="41.612167700" lon="2.538589100">
        <ele>143.40</ele>
        <time>2013-03-10T08:22:00Z</time>
      </trkpt>
      <trkpt lat="41.612233600" lon="2.538451000">
        <ele>143.90</ele>
        <time>2013-03-10T08:22:07Z</time>
      </trkpt>
      <trkpt lat="41.612335300" lon="2.538311200">
        <ele>144.80</ele>
        <time>2013-03-10T08:22:16Z</time>
      </trkpt>
      <trkpt lat="41.612428400" lon="2.538200800">
        <ele>144.80</ele>
        <time>2013-03-10T08:22:23Z</time>
      </trkpt>
      <trkpt lat="41.612538600" lon="2.538066900">
        <ele>145.80</ele>
        <time>2013-03-10T08:22:30Z</time>
      </trkpt>
      <trkpt lat="41.612628200" lon="2.538000900">
        <ele>145.80</ele>
        <time>2013-03-10T08:22:37Z</time>
      </trkpt>
      <trkpt lat="41.612773500" lon="2.537846400">
        <ele>146.70</ele>
        <time>2013-03-10T08:22:46Z</time>
      </trkpt>
      <trkpt lat="41.612896700" lon="2.537710800">
        <ele>147.20</ele>
        <time>2013-03-10T08:22:53Z</time>
      </trkpt>
      <trkpt lat="41.613047400" lon="2.537531600">
        <ele>147.70</ele>
        <time>2013-03-10T08:23:01Z</time>
      </trkpt>
      <trkpt lat="41.613174100" lon="2.537413800">
        <ele>148.20</ele>
        <time>2013-03-10T08:23:10Z</time>
      </trkpt>
      <trkpt lat="41.613268500" lon="2.537322500">
        <ele>148.20</ele>
        <time>2013-03-10T08:23:19Z</time>
      </trkpt>
      <trkpt lat="41.613291900" lon="2.537302800">
        <ele>148.70</ele>
        <time>2013-03-10T08:23:22Z</time>
      </trkpt>
      <trkpt lat="41.613307200" lon="2.537244400">
        <ele>148.70</ele>
        <time>2013-03-10T08:23:26Z</time>
      </trkpt>
      <trkpt lat="41.613361300" lon="2.537160900">
        <ele>148.70</ele>
        <time>2013-03-10T08:23:33Z</time>
      </trkpt>
      <trkpt lat="41.613433500" lon="2.537086000">
        <ele>149.10</ele>
        <time>2013-03-10T08:23:38Z</time>
      </trkpt>
      <trkpt lat="41.613485600" lon="2.537007000">
        <ele>149.60</ele>
        <time>2013-03-10T08:23:43Z</time>
      </trkpt>
      <trkpt lat="41.613503800" lon="2.536906700">
        <ele>150.10</ele>
        <time>2013-03-10T08:23:50Z</time>
      </trkpt>
      <trkpt lat="41.613581900" lon="2.536768900">
        <ele>150.10</ele>
        <time>2013-03-10T08:23:57Z</time>
      </trkpt>
      <trkpt lat="41.613618500" lon="2.536603300">
        <ele>151.10</ele>
        <time>2013-03-10T08:24:06Z</time>
      </trkpt>
      <trkpt lat="41.613670600" lon="2.536416300">
        <ele>151.50</ele>
        <time>2013-03-10T08:24:16Z</time>
      </trkpt>
      <trkpt lat="41.613743600" lon="2.536246400">
        <ele>152.50</ele>
        <time>2013-03-10T08:24:23Z</time>
      </trkpt>
      <trkpt lat="41.613810600" lon="2.536073800">
        <ele>153.00</ele>
        <time>2013-03-10T08:24:30Z</time>
      </trkpt>
      <trkpt lat="41.613904700" lon="2.535836100">
        <ele>153.50</ele>
        <time>2013-03-10T08:24:39Z</time>
      </trkpt>
      <trkpt lat="41.613994000" lon="2.535581300">
        <ele>153.90</ele>
        <time>2013-03-10T08:24:46Z</time>
      </trkpt>
      <trkpt lat="41.614073200" lon="2.535349200">
        <ele>154.90</ele>
        <time>2013-03-10T08:24:53Z</time>
      </trkpt>
      <trkpt lat="41.614151300" lon="2.535089600">
        <ele>156.40</ele>
        <time>2013-03-10T08:25:02Z</time>
      </trkpt>
      <trkpt lat="41.614231200" lon="2.534814500">
        <ele>157.30</ele>
        <time>2013-03-10T08:25:12Z</time>
      </trkpt>
      <trkpt lat="41.614328300" lon="2.534540800">
        <ele>158.30</ele>
        <time>2013-03-10T08:25:21Z</time>
      </trkpt>
      <trkpt lat="41.614403400" lon="2.534242000">
        <ele>159.70</ele>
        <time>2013-03-10T08:25:29Z</time>
      </trkpt>
      <trkpt lat="41.614482000" lon="2.533977900">
        <ele>160.20</ele>
        <time>2013-03-10T08:25:38Z</time>
      </trkpt>
      <trkpt lat="41.614570500" lon="2.533679600">
        <ele>161.20</ele>
        <time>2013-03-10T08:25:47Z</time>
      </trkpt>
      <trkpt lat="41.614691200" lon="2.533308500">
        <ele>162.10</ele>
        <time>2013-03-10T08:25:57Z</time>
      </trkpt>
      <trkpt lat="41.614784800" lon="2.532995000">
        <ele>163.10</ele>
        <time>2013-03-10T08:26:06Z</time>
      </trkpt>
      <trkpt lat="41.614901900" lon="2.532600000">
        <ele>164.50</ele>
        <time>2013-03-10T08:26:18Z</time>
      </trkpt>
      <trkpt lat="41.615011500" lon="2.532201200">
        <ele>165.50</ele>
        <time>2013-03-10T08:26:29Z</time>
      </trkpt>
      <trkpt lat="41.615054600" lon="2.531948100">
        <ele>166.00</ele>
        <time>2013-03-10T08:26:36Z</time>
      </trkpt>
      <trkpt lat="41.615092100" lon="2.531690100">
        <ele>166.40</ele>
        <time>2013-03-10T08:26:43Z</time>
      </trkpt>
      <trkpt lat="41.615122100" lon="2.531299400">
        <ele>167.40</ele>
        <time>2013-03-10T08:26:53Z</time>
      </trkpt>
      <trkpt lat="41.615154300" lon="2.530963600">
        <ele>168.40</ele>
        <time>2013-03-10T08:27:02Z</time>
      </trkpt>
      <trkpt lat="41.615179500" lon="2.530580300">
        <ele>169.30</ele>
        <time>2013-03-10T08:27:12Z</time>
      </trkpt>
      <trkpt lat="41.615179500" lon="2.530174000">
        <ele>171.20</ele>
        <time>2013-03-10T08:27:23Z</time>
      </trkpt>
      <trkpt lat="41.615178500" lon="2.529831600">
        <ele>171.70</ele>
        <time>2013-03-10T08:27:31Z</time>
      </trkpt>
      <trkpt lat="41.615180400" lon="2.529445000">
        <ele>172.70</ele>
        <time>2013-03-10T08:27:42Z</time>
      </trkpt>
      <trkpt lat="41.615193300" lon="2.529130500">
        <ele>174.60</ele>
        <time>2013-03-10T08:27:51Z</time>
      </trkpt>
      <trkpt lat="41.615217900" lon="2.528871300">
        <ele>175.10</ele>
        <time>2013-03-10T08:27:58Z</time>
      </trkpt>
      <trkpt lat="41.615293500" lon="2.528484200">
        <ele>175.10</ele>
        <time>2013-03-10T08:28:08Z</time>
      </trkpt>
      <trkpt lat="41.615369600" lon="2.528140500">
        <ele>176.10</ele>
        <time>2013-03-10T08:28:17Z</time>
      </trkpt>
      <trkpt lat="41.615434600" lon="2.527787700">
        <ele>177.00</ele>
        <time>2013-03-10T08:28:25Z</time>
      </trkpt>
      <trkpt lat="41.615519100" lon="2.527373900">
        <ele>178.50</ele>
        <time>2013-03-10T08:28:36Z</time>
      </trkpt>
      <trkpt lat="41.615570200" lon="2.527095200">
        <ele>179.90</ele>
        <time>2013-03-10T08:28:45Z</time>
      </trkpt>
      <trkpt lat="41.615597200" lon="2.526780300">
        <ele>181.40</ele>
        <time>2013-03-10T08:28:53Z</time>
      </trkpt>
      <trkpt lat="41.615576600" lon="2.526488100">
        <ele>181.80</ele>
        <time>2013-03-10T08:29:02Z</time>
      </trkpt>
      <trkpt lat="41.615543500" lon="2.526240000">
        <ele>183.30</ele>
        <time>2013-03-10T08:29:09Z</time>
      </trkpt>
      <trkpt lat="41.615521400" lon="2.525904100">
        <ele>183.80</ele>
        <time>2013-03-10T08:29:18Z</time>
      </trkpt>
      <trkpt lat="41.615516200" lon="2.525653300">
        <ele>184.70</ele>
        <time>2013-03-10T08:29:25Z</time>
      </trkpt>
      <trkpt lat="41.615519600" lon="2.525351900">
        <ele>185.20</ele>
        <time>2013-03-10T08:29:33Z</time>
      </trkpt>
      <trkpt lat="41.615530200" lon="2.525099000">
        <ele>186.10</ele>
        <time>2013-03-10T08:29:40Z</time>
      </trkpt>
      <trkpt lat="41.615561200" lon="2.524779200">
        <ele>187.10</ele>
        <time>2013-03-10T08:29:49Z</time>
      </trkpt>
      <trkpt lat="41.615580900" lon="2.524505000">
        <ele>188.10</ele>
        <time>2013-03-10T08:29:56Z</time>
      </trkpt>
      <trkpt lat="41.615604200" lon="2.524207200">
        <ele>189.50</ele>
        <time>2013-03-10T08:30:05Z</time>
      </trkpt>
      <trkpt lat="41.615629500" lon="2.523912600">
        <ele>191.40</ele>
        <time>2013-03-10T08:30:15Z</time>
      </trkpt>
      <trkpt lat="41.615642200" lon="2.523655600">
        <ele>191.90</ele>
        <time>2013-03-10T08:30:22Z</time>
      </trkpt>
      <trkpt lat="41.615666800" lon="2.523406600">
        <ele>192.90</ele>
        <time>2013-03-10T08:30:29Z</time>
      </trkpt>
      <trkpt lat="41.615701200" lon="2.523114700">
        <ele>193.40</ele>
        <time>2013-03-10T08:30:36Z</time>
      </trkpt>
      <trkpt lat="41.615736600" lon="2.522831400">
        <ele>193.80</ele>
        <time>2013-03-10T08:30:45Z</time>
      </trkpt>
      <trkpt lat="41.615770600" lon="2.522562000">
        <ele>195.30</ele>
        <time>2013-03-10T08:30:52Z</time>
      </trkpt>
      <trkpt lat="41.615806700" lon="2.522248200">
        <ele>196.20</ele>
        <time>2013-03-10T08:31:02Z</time>
      </trkpt>
      <trkpt lat="41.615843400" lon="2.521968500">
        <ele>197.20</ele>
        <time>2013-03-10T08:31:09Z</time>
      </trkpt>
      <trkpt lat="41.615899000" lon="2.521670900">
        <ele>197.70</ele>
        <time>2013-03-10T08:31:18Z</time>
      </trkpt>
      <trkpt lat="41.615952600" lon="2.521340200">
        <ele>198.60</ele>
        <time>2013-03-10T08:31:25Z</time>
      </trkpt>
      <trkpt lat="41.616002100" lon="2.521041700">
        <ele>198.60</ele>
        <time>2013-03-10T08:31:34Z</time>
      </trkpt>
      <trkpt lat="41.616051600" lon="2.520797300">
        <ele>199.60</ele>
        <time>2013-03-10T08:31:41Z</time>
      </trkpt>
      <trkpt lat="41.616113100" lon="2.520525900">
        <ele>200.10</ele>
        <time>2013-03-10T08:31:49Z</time>
      </trkpt>
      <trkpt lat="41.616200800" lon="2.520286000">
        <ele>200.60</ele>
        <time>2013-03-10T08:31:56Z</time>
      </trkpt>
      <trkpt lat="41.616325200" lon="2.520043000">
        <ele>200.10</ele>
        <time>2013-03-10T08:32:05Z</time>
      </trkpt>
      <trkpt lat="41.616458300" lon="2.519895100">
        <ele>199.10</ele>
        <time>2013-03-10T08:32:10Z</time>
      </trkpt>
      <trkpt lat="41.616651200" lon="2.519786400">
        <ele>200.10</ele>
        <time>2013-03-10T08:32:17Z</time>
      </trkpt>
      <trkpt lat="41.616715000" lon="2.519767900">
        <ele>200.60</ele>
        <time>2013-03-10T08:32:24Z</time>
      </trkpt>
      <trkpt lat="41.616725700" lon="2.519775200">
        <ele>200.60</ele>
        <time>2013-03-10T08:32:43Z</time>
      </trkpt>
      <trkpt lat="41.616760600" lon="2.519750900">
        <ele>201.10</ele>
        <time>2013-03-10T08:32:59Z</time>
      </trkpt>
      <trkpt lat="41.616861400" lon="2.519719000">
        <ele>202.00</ele>
        <time>2013-03-10T08:33:06Z</time>
      </trkpt>
      <trkpt lat="41.616995200" lon="2.519695600">
        <ele>202.50</ele>
        <time>2013-03-10T08:33:13Z</time>
      </trkpt>
      <trkpt lat="41.617178000" lon="2.519663400">
        <ele>203.50</ele>
        <time>2013-03-10T08:33:20Z</time>
      </trkpt>
      <trkpt lat="41.617355400" lon="2.519648300">
        <ele>203.90</ele>
        <time>2013-03-10T08:33:29Z</time>
      </trkpt>
      <trkpt lat="41.617552600" lon="2.519620400">
        <ele>204.90</ele>
        <time>2013-03-10T08:33:37Z</time>
      </trkpt>
      <trkpt lat="41.617734700" lon="2.519597000">
        <ele>205.90</ele>
        <time>2013-03-10T08:33:46Z</time>
      </trkpt>
      <trkpt lat="41.617784600" lon="2.519595700">
        <ele>205.90</ele>
        <time>2013-03-10T08:33:51Z</time>
      </trkpt>
      <trkpt lat="41.617782000" lon="2.519631200">
        <ele>207.30</ele>
        <time>2013-03-10T08:33:58Z</time>
      </trkpt>
      <trkpt lat="41.617790600" lon="2.519686000">
        <ele>207.30</ele>
        <time>2013-03-10T08:34:05Z</time>
      </trkpt>
      <trkpt lat="41.617813300" lon="2.519704900">
        <ele>207.30</ele>
        <time>2013-03-10T08:34:09Z</time>
      </trkpt>
      <trkpt lat="41.617873500" lon="2.519790300">
        <ele>207.80</ele>
        <time>2013-03-10T08:34:14Z</time>
      </trkpt>
      <trkpt lat="41.617866000" lon="2.519984300">
        <ele>209.20</ele>
        <time>2013-03-10T08:34:21Z</time>
      </trkpt>
      <trkpt lat="41.617792100" lon="2.520070500">
        <ele>210.70</ele>
        <time>2013-03-10T08:34:28Z</time>
      </trkpt>
      <trkpt lat="41.617736500" lon="2.520103700">
        <ele>211.10</ele>
        <time>2013-03-10T08:34:31Z</time>
      </trkpt>
      <trkpt lat="41.617685300" lon="2.520263100">
        <ele>213.10</ele>
        <time>2013-03-10T08:34:40Z</time>
      </trkpt>
      <trkpt lat="41.617698800" lon="2.520480500">
        <ele>215.00</ele>
        <time>2013-03-10T08:34:52Z</time>
      </trkpt>
      <trkpt lat="41.617663000" lon="2.520666500">
        <ele>215.50</ele>
        <time>2013-03-10T08:34:59Z</time>
      </trkpt>
      <trkpt lat="41.617703700" lon="2.520854100">
        <ele>216.40</ele>
        <time>2013-03-10T08:35:08Z</time>
      </trkpt>
      <trkpt lat="41.617767500" lon="2.521049700">
        <ele>216.90</ele>
        <time>2013-03-10T08:35:17Z</time>
      </trkpt>
      <trkpt lat="41.617809800" lon="2.521227100">
        <ele>217.40</ele>
        <time>2013-03-10T08:35:25Z</time>
      </trkpt>
      <trkpt lat="41.617863000" lon="2.521474000">
        <ele>218.80</ele>
        <time>2013-03-10T08:35:36Z</time>
      </trkpt>
      <trkpt lat="41.617903200" lon="2.521591200">
        <ele>220.30</ele>
        <time>2013-03-10T08:35:41Z</time>
      </trkpt>
      <trkpt lat="41.617936400" lon="2.521617800">
        <ele>220.80</ele>
        <time>2013-03-10T08:35:44Z</time>
      </trkpt>
      <trkpt lat="41.618011800" lon="2.521499000">
        <ele>223.20</ele>
        <time>2013-03-10T08:35:53Z</time>
      </trkpt>
      <trkpt lat="41.618065100" lon="2.521360700">
        <ele>225.10</ele>
        <time>2013-03-10T08:36:02Z</time>
      </trkpt>
      <trkpt lat="41.618178100" lon="2.521200300">
        <ele>227.00</ele>
        <time>2013-03-10T08:36:12Z</time>
      </trkpt>
      <trkpt lat="41.618247300" lon="2.521056400">
        <ele>228.90</ele>
        <time>2013-03-10T08:36:23Z</time>
      </trkpt>
      <trkpt lat="41.618287800" lon="2.520881300">
        <ele>230.90</ele>
        <time>2013-03-10T08:36:33Z</time>
      </trkpt>
      <trkpt lat="41.618359700" lon="2.520698800">
        <ele>233.30</ele>
        <time>2013-03-10T08:36:44Z</time>
      </trkpt>
      <trkpt lat="41.618489900" lon="2.520618800">
        <ele>234.70</ele>
        <time>2013-03-10T08:36:54Z</time>
      </trkpt>
      <trkpt lat="41.618589900" lon="2.520602600">
        <ele>235.20</ele>
        <time>2013-03-10T08:37:01Z</time>
      </trkpt>
      <trkpt lat="41.618686100" lon="2.520603500">
        <ele>236.10</ele>
        <time>2013-03-10T08:37:06Z</time>
      </trkpt>
      <trkpt lat="41.618800400" lon="2.520548800">
        <ele>237.60</ele>
        <time>2013-03-10T08:37:15Z</time>
      </trkpt>
      <trkpt lat="41.618900700" lon="2.520493700">
        <ele>239.50</ele>
        <time>2013-03-10T08:37:24Z</time>
      </trkpt>
      <trkpt lat="41.619045600" lon="2.520419600">
        <ele>241.40</ele>
        <time>2013-03-10T08:37:34Z</time>
      </trkpt>
      <trkpt lat="41.619182200" lon="2.520355000">
        <ele>243.40</ele>
        <time>2013-03-10T08:37:45Z</time>
      </trkpt>
      <trkpt lat="41.619304500" lon="2.520313400">
        <ele>245.30</ele>
        <time>2013-03-10T08:37:53Z</time>
      </trkpt>
      <trkpt lat="41.619456300" lon="2.520371600">
        <ele>247.20</ele>
        <time>2013-03-10T08:38:04Z</time>
      </trkpt>
      <trkpt lat="41.619558300" lon="2.520399500">
        <ele>248.60</ele>
        <time>2013-03-10T08:38:11Z</time>
      </trkpt>
      <trkpt lat="41.619631800" lon="2.520378900">
        <ele>249.60</ele>
        <time>2013-03-10T08:38:18Z</time>
      </trkpt>
      <trkpt lat="41.619706400" lon="2.520367100">
        <ele>251.00</ele>
        <time>2013-03-10T08:38:25Z</time>
      </trkpt>
      <trkpt lat="41.619767400" lon="2.520337800">
        <ele>252.50</ele>
        <time>2013-03-10T08:38:32Z</time>
      </trkpt>
      <trkpt lat="41.619878400" lon="2.520274000">
        <ele>253.90</ele>
        <time>2013-03-10T08:38:40Z</time>
      </trkpt>
      <trkpt lat="41.619981100" lon="2.520213200">
        <ele>255.40</ele>
        <time>2013-03-10T08:38:49Z</time>
      </trkpt>
      <trkpt lat="41.620112500" lon="2.520141500">
        <ele>257.30</ele>
        <time>2013-03-10T08:38:59Z</time>
      </trkpt>
      <trkpt lat="41.620232200" lon="2.520140900">
        <ele>258.70</ele>
        <time>2013-03-10T08:39:08Z</time>
      </trkpt>
      <trkpt lat="41.620343000" lon="2.520157400">
        <ele>260.20</ele>
        <time>2013-03-10T08:39:17Z</time>
      </trkpt>
      <trkpt lat="41.620445700" lon="2.520175600">
        <ele>261.10</ele>
        <time>2013-03-10T08:39:26Z</time>
      </trkpt>
      <trkpt lat="41.620539300" lon="2.520187700">
        <ele>261.60</ele>
        <time>2013-03-10T08:39:33Z</time>
      </trkpt>
      <trkpt lat="41.620641700" lon="2.520203200">
        <ele>263.10</ele>
        <time>2013-03-10T08:39:41Z</time>
      </trkpt>
      <trkpt lat="41.620762000" lon="2.520199700">
        <ele>264.50</ele>
        <time>2013-03-10T08:39:50Z</time>
      </trkpt>
      <trkpt lat="41.620847700" lon="2.520219400">
        <ele>265.50</ele>
        <time>2013-03-10T08:39:57Z</time>
      </trkpt>
      <trkpt lat="41.620956800" lon="2.520254600">
        <ele>266.90</ele>
        <time>2013-03-10T08:40:06Z</time>
      </trkpt>
      <trkpt lat="41.621060000" lon="2.520276700">
        <ele>268.40</ele>
        <time>2013-03-10T08:40:14Z</time>
      </trkpt>
      <trkpt lat="41.621155700" lon="2.520296500">
        <ele>269.30</ele>
        <time>2013-03-10T08:40:23Z</time>
      </trkpt>
      <trkpt lat="41.621261100" lon="2.520309400">
        <ele>270.30</ele>
        <time>2013-03-10T08:40:30Z</time>
      </trkpt>
      <trkpt lat="41.621381800" lon="2.520311800">
        <ele>272.20</ele>
        <time>2013-03-10T08:40:41Z</time>
      </trkpt>
      <trkpt lat="41.621506500" lon="2.520339600">
        <ele>273.60</ele>
        <time>2013-03-10T08:40:49Z</time>
      </trkpt>
      <trkpt lat="41.621632300" lon="2.520397600">
        <ele>275.60</ele>
        <time>2013-03-10T08:40:58Z</time>
      </trkpt>
      <trkpt lat="41.621754300" lon="2.520430000">
        <ele>278.00</ele>
        <time>2013-03-10T08:41:07Z</time>
      </trkpt>
      <trkpt lat="41.621841100" lon="2.520452700">
        <ele>279.90</ele>
        <time>2013-03-10T08:41:14Z</time>
      </trkpt>
      <trkpt lat="41.621920200" lon="2.520470800">
        <ele>281.30</ele>
        <time>2013-03-10T08:41:21Z</time>
      </trkpt>
      <trkpt lat="41.622020300" lon="2.520476000">
        <ele>283.20</ele>
        <time>2013-03-10T08:41:29Z</time>
      </trkpt>
      <trkpt lat="41.622043900" lon="2.520474000">
        <ele>283.70</ele>
        <time>2013-03-10T08:41:31Z</time>
      </trkpt>
      <trkpt lat="41.622187500" lon="2.520412400">
        <ele>286.10</ele>
        <time>2013-03-10T08:41:43Z</time>
      </trkpt>
      <trkpt lat="41.622286900" lon="2.520359600">
        <ele>287.60</ele>
        <time>2013-03-10T08:41:52Z</time>
      </trkpt>
      <trkpt lat="41.622413600" lon="2.520354500">
        <ele>289.00</ele>
        <time>2013-03-10T08:42:01Z</time>
      </trkpt>
      <trkpt lat="41.622460700" lon="2.520383900">
        <ele>290.00</ele>
        <time>2013-03-10T08:42:04Z</time>
      </trkpt>
      <trkpt lat="41.622448100" lon="2.520510600">
        <ele>290.90</ele>
        <time>2013-03-10T08:42:13Z</time>
      </trkpt>
      <trkpt lat="41.622360800" lon="2.520517500">
        <ele>291.90</ele>
        <time>2013-03-10T08:42:20Z</time>
      </trkpt>
      <trkpt lat="41.622283000" lon="2.520569400">
        <ele>293.30</ele>
        <time>2013-03-10T08:42:29Z</time>
      </trkpt>
      <trkpt lat="41.622276500" lon="2.520578400">
        <ele>293.80</ele>
        <time>2013-03-10T08:42:30Z</time>
      </trkpt>
      <trkpt lat="41.622212200" lon="2.520652800">
        <ele>294.80</ele>
        <time>2013-03-10T08:42:37Z</time>
      </trkpt>
      <trkpt lat="41.622127800" lon="2.520725800">
        <ele>295.70</ele>
        <time>2013-03-10T08:42:44Z</time>
      </trkpt>
      <trkpt lat="41.622038100" lon="2.520837900">
        <ele>297.70</ele>
        <time>2013-03-10T08:42:53Z</time>
      </trkpt>
      <trkpt lat="41.622000700" lon="2.520875700">
        <ele>298.10</ele>
        <time>2013-03-10T08:42:58Z</time>
      </trkpt>
      <trkpt lat="41.621951000" lon="2.520909500">
        <ele>298.60</ele>
        <time>2013-03-10T08:43:02Z</time>
      </trkpt>
      <trkpt lat="41.621871200" lon="2.520971500">
        <ele>299.60</ele>
        <time>2013-03-10T08:43:09Z</time>
      </trkpt>
      <trkpt lat="41.621764000" lon="2.521070900">
        <ele>300.10</ele>
        <time>2013-03-10T08:43:17Z</time>
      </trkpt>
      <trkpt lat="41.621651000" lon="2.521074200">
        <ele>300.50</ele>
        <time>2013-03-10T08:43:26Z</time>
      </trkpt>
      <trkpt lat="41.621533300" lon="2.521018400">
        <ele>301.50</ele>
        <time>2013-03-10T08:43:35Z</time>
      </trkpt>
      <trkpt lat="41.621483400" lon="2.520984400">
        <ele>301.50</ele>
        <time>2013-03-10T08:43:40Z</time>
      </trkpt>
      <trkpt lat="41.621328600" lon="2.520992000">
        <ele>302.50</ele>
        <time>2013-03-10T08:43:49Z</time>
      </trkpt>
      <trkpt lat="41.621200100" lon="2.521033300">
        <ele>303.00</ele>
        <time>2013-03-10T08:43:57Z</time>
      </trkpt>
      <trkpt lat="41.621098900" lon="2.521129100">
        <ele>304.40</ele>
        <time>2013-03-10T08:44:06Z</time>
      </trkpt>
      <trkpt lat="41.621098800" lon="2.521146900">
        <ele>304.90</ele>
        <time>2013-03-10T08:44:08Z</time>
      </trkpt>
      <trkpt lat="41.621141000" lon="2.521178100">
        <ele>304.90</ele>
        <time>2013-03-10T08:44:11Z</time>
      </trkpt>
      <trkpt lat="41.621189500" lon="2.521144800">
        <ele>305.80</ele>
        <time>2013-03-10T08:44:15Z</time>
      </trkpt>
      <trkpt lat="41.621282500" lon="2.521155100">
        <ele>307.30</ele>
        <time>2013-03-10T08:44:24Z</time>
      </trkpt>
      <trkpt lat="41.621336700" lon="2.521203800">
        <ele>308.70</ele>
        <time>2013-03-10T08:44:30Z</time>
      </trkpt>
      <trkpt lat="41.621400600" lon="2.521336000">
        <ele>310.60</ele>
        <time>2013-03-10T08:44:41Z</time>
      </trkpt>
      <trkpt lat="41.621475800" lon="2.521449600">
        <ele>311.60</ele>
        <time>2013-03-10T08:44:50Z</time>
      </trkpt>
      <trkpt lat="41.621558100" lon="2.521542600">
        <ele>313.00</ele>
        <time>2013-03-10T08:44:58Z</time>
      </trkpt>
      <trkpt lat="41.621603100" lon="2.521613700">
        <ele>313.50</ele>
        <time>2013-03-10T08:45:02Z</time>
      </trkpt>
      <trkpt lat="41.621664300" lon="2.521736600">
        <ele>315.00</ele>
        <time>2013-03-10T08:45:12Z</time>
      </trkpt>
      <trkpt lat="41.621718800" lon="2.521846100">
        <ele>316.40</ele>
        <time>2013-03-10T08:45:19Z</time>
      </trkpt>
      <trkpt lat="41.621741100" lon="2.521898700">
        <ele>316.90</ele>
        <time>2013-03-10T08:45:21Z</time>
      </trkpt>
      <trkpt lat="41.621753500" lon="2.521934300">
        <ele>317.40</ele>
        <time>2013-03-10T08:45:23Z</time>
      </trkpt>
      <trkpt lat="41.621817600" lon="2.522072200">
        <ele>319.30</ele>
        <time>2013-03-10T08:45:33Z</time>
      </trkpt>
      <trkpt lat="41.621875800" lon="2.522236500">
        <ele>320.70</ele>
        <time>2013-03-10T08:45:42Z</time>
      </trkpt>
      <trkpt lat="41.621901800" lon="2.522309100">
        <ele>321.70</ele>
        <time>2013-03-10T08:45:49Z</time>
      </trkpt>
      <trkpt lat="41.621930600" lon="2.522327700">
        <ele>322.20</ele>
        <time>2013-03-10T08:45:52Z</time>
      </trkpt>
      <trkpt lat="41.621956300" lon="2.522302900">
        <ele>322.20</ele>
        <time>2013-03-10T08:45:54Z</time>
      </trkpt>
      <trkpt lat="41.621950700" lon="2.522168800">
        <ele>323.60</ele>
        <time>2013-03-10T08:46:05Z</time>
      </trkpt>
      <trkpt lat="41.621946100" lon="2.522041900">
        <ele>324.60</ele>
        <time>2013-03-10T08:46:13Z</time>
      </trkpt>
      <trkpt lat="41.621956200" lon="2.521930800">
        <ele>325.50</ele>
        <time>2013-03-10T08:46:20Z</time>
      </trkpt>
      <trkpt lat="41.621980400" lon="2.521759400">
        <ele>326.50</ele>
        <time>2013-03-10T08:46:27Z</time>
      </trkpt>
      <trkpt lat="41.622023600" lon="2.521647600">
        <ele>327.00</ele>
        <time>2013-03-10T08:46:34Z</time>
      </trkpt>
      <trkpt lat="41.622106300" lon="2.521553300">
        <ele>328.00</ele>
        <time>2013-03-10T08:46:41Z</time>
      </trkpt>
      <trkpt lat="41.622206900" lon="2.521539800">
        <ele>329.40</ele>
        <time>2013-03-10T08:46:50Z</time>
      </trkpt>
      <trkpt lat="41.622318500" lon="2.521637700">
        <ele>330.40</ele>
        <time>2013-03-10T08:46:59Z</time>
      </trkpt>
      <trkpt lat="41.622419800" lon="2.521728100">
        <ele>331.30</ele>
        <time>2013-03-10T08:47:07Z</time>
      </trkpt>
      <trkpt lat="41.622513800" lon="2.521807200">
        <ele>332.80</ele>
        <time>2013-03-10T08:47:16Z</time>
      </trkpt>
      <trkpt lat="41.622631400" lon="2.521875900">
        <ele>333.70</ele>
        <time>2013-03-10T08:47:25Z</time>
      </trkpt>
      <trkpt lat="41.622734600" lon="2.521897800">
        <ele>334.70</ele>
        <time>2013-03-10T08:47:32Z</time>
      </trkpt>
      <trkpt lat="41.622889100" lon="2.521901000">
        <ele>336.10</ele>
        <time>2013-03-10T08:47:42Z</time>
      </trkpt>
      <trkpt lat="41.623017300" lon="2.521866400">
        <ele>337.60</ele>
        <time>2013-03-10T08:47:53Z</time>
      </trkpt>
      <trkpt lat="41.623172200" lon="2.521833300">
        <ele>339.50</ele>
        <time>2013-03-10T08:48:03Z</time>
      </trkpt>
      <trkpt lat="41.623262900" lon="2.521898500">
        <ele>340.00</ele>
        <time>2013-03-10T08:48:10Z</time>
      </trkpt>
      <trkpt lat="41.623361700" lon="2.522032700">
        <ele>340.40</ele>
        <time>2013-03-10T08:48:19Z</time>
      </trkpt>
      <trkpt lat="41.623402900" lon="2.522083600">
        <ele>340.90</ele>
        <time>2013-03-10T08:48:24Z</time>
      </trkpt>
      <trkpt lat="41.623489200" lon="2.522195400">
        <ele>341.40</ele>
        <time>2013-03-10T08:48:33Z</time>
      </trkpt>
      <trkpt lat="41.623527600" lon="2.522199200">
        <ele>341.90</ele>
        <time>2013-03-10T08:48:36Z</time>
      </trkpt>
      <trkpt lat="41.623553700" lon="2.522174600">
        <ele>342.40</ele>
        <time>2013-03-10T08:48:43Z</time>
      </trkpt>
      <trkpt lat="41.623560800" lon="2.522172800">
        <ele>341.90</ele>
        <time>2013-03-10T08:48:52Z</time>
      </trkpt>
      <trkpt lat="41.623550400" lon="2.522163900">
        <ele>341.90</ele>
        <time>2013-03-10T08:49:06Z</time>
      </trkpt>
      <trkpt lat="41.623553700" lon="2.522165300">
        <ele>342.40</ele>
        <time>2013-03-10T08:49:21Z</time>
      </trkpt>
      <trkpt lat="41.623581000" lon="2.522141000">
        <ele>342.40</ele>
        <time>2013-03-10T08:49:39Z</time>
      </trkpt>
      <trkpt lat="41.623588200" lon="2.522137300">
        <ele>342.90</ele>
        <time>2013-03-10T08:49:39Z</time>
      </trkpt>
      <trkpt lat="41.623613200" lon="2.522122500">
        <ele>343.30</ele>
        <time>2013-03-10T08:49:42Z</time>
      </trkpt>
      <trkpt lat="41.623636500" lon="2.522087600">
        <ele>343.30</ele>
        <time>2013-03-10T08:49:46Z</time>
      </trkpt>
      <trkpt lat="41.623652700" lon="2.522050400">
        <ele>343.80</ele>
        <time>2013-03-10T08:49:49Z</time>
      </trkpt>
      <trkpt lat="41.623688500" lon="2.522009500">
        <ele>344.30</ele>
        <time>2013-03-10T08:49:53Z</time>
      </trkpt>
      <trkpt lat="41.623745000" lon="2.521923400">
        <ele>345.20</ele>
        <time>2013-03-10T08:50:00Z</time>
      </trkpt>
      <trkpt lat="41.623801500" lon="2.521843600">
        <ele>346.70</ele>
        <time>2013-03-10T08:50:05Z</time>
      </trkpt>
      <trkpt lat="41.623865700" lon="2.521720000">
        <ele>348.10</ele>
        <time>2013-03-10T08:50:14Z</time>
      </trkpt>
      <trkpt lat="41.623928600" lon="2.521548400">
        <ele>350.10</ele>
        <time>2013-03-10T08:50:26Z</time>
      </trkpt>
      <trkpt lat="41.623996800" lon="2.521431200">
        <ele>351.50</ele>
        <time>2013-03-10T08:50:33Z</time>
      </trkpt>
      <trkpt lat="41.624016300" lon="2.521410100">
        <ele>351.50</ele>
        <time>2013-03-10T08:50:36Z</time>
      </trkpt>
      <trkpt lat="41.624160900" lon="2.521336100">
        <ele>353.40</ele>
        <time>2013-03-10T08:50:47Z</time>
      </trkpt>
      <trkpt lat="41.624238600" lon="2.521268400">
        <ele>355.30</ele>
        <time>2013-03-10T08:50:54Z</time>
      </trkpt>
      <trkpt lat="41.624324200" lon="2.521234500">
        <ele>356.30</ele>
        <time>2013-03-10T08:51:01Z</time>
      </trkpt>
      <trkpt lat="41.624448300" lon="2.521250100">
        <ele>357.80</ele>
        <time>2013-03-10T08:51:11Z</time>
      </trkpt>
      <trkpt lat="41.624521900" lon="2.521282300">
        <ele>359.20</ele>
        <time>2013-03-10T08:51:16Z</time>
      </trkpt>
      <trkpt lat="41.624643600" lon="2.521356300">
        <ele>361.10</ele>
        <time>2013-03-10T08:51:25Z</time>
      </trkpt>
      <trkpt lat="41.624752300" lon="2.521403300">
        <ele>362.50</ele>
        <time>2013-03-10T08:51:34Z</time>
      </trkpt>
      <trkpt lat="41.624868600" lon="2.521382200">
        <ele>364.50</ele>
        <time>2013-03-10T08:51:44Z</time>
      </trkpt>
      <trkpt lat="41.624880400" lon="2.521380600">
        <ele>365.00</ele>
        <time>2013-03-10T08:51:44Z</time>
      </trkpt>
      <trkpt lat="41.624994600" lon="2.521346100">
        <ele>367.40</ele>
        <time>2013-03-10T08:51:53Z</time>
      </trkpt>
      <trkpt lat="41.625145400" lon="2.521340500">
        <ele>369.30</ele>
        <time>2013-03-10T08:52:05Z</time>
      </trkpt>
      <trkpt lat="41.625261000" lon="2.521289900">
        <ele>370.70</ele>
        <time>2013-03-10T08:52:14Z</time>
      </trkpt>
      <trkpt lat="41.625368500" lon="2.521208500">
        <ele>372.20</ele>
        <time>2013-03-10T08:52:21Z</time>
      </trkpt>
      <trkpt lat="41.625444400" lon="2.521161300">
        <ele>373.10</ele>
        <time>2013-03-10T08:52:28Z</time>
      </trkpt>
      <trkpt lat="41.625509800" lon="2.521110200">
        <ele>373.60</ele>
        <time>2013-03-10T08:52:33Z</time>
      </trkpt>
      <trkpt lat="41.625562800" lon="2.520943600">
        <ele>374.10</ele>
        <time>2013-03-10T08:52:42Z</time>
      </trkpt>
      <trkpt lat="41.625523000" lon="2.520806000">
        <ele>375.50</ele>
        <time>2013-03-10T08:52:49Z</time>
      </trkpt>
      <trkpt lat="41.625464000" lon="2.520637200">
        <ele>377.00</ele>
        <time>2013-03-10T08:52:59Z</time>
      </trkpt>
      <trkpt lat="41.625440800" lon="2.520495500">
        <ele>377.90</ele>
        <time>2013-03-10T08:53:06Z</time>
      </trkpt>
      <trkpt lat="41.625423500" lon="2.520315000">
        <ele>379.40</ele>
        <time>2013-03-10T08:53:15Z</time>
      </trkpt>
      <trkpt lat="41.625386900" lon="2.520128700">
        <ele>379.90</ele>
        <time>2013-03-10T08:53:25Z</time>
      </trkpt>
      <trkpt lat="41.625400900" lon="2.519904000">
        <ele>379.90</ele>
        <time>2013-03-10T08:53:34Z</time>
      </trkpt>
      <trkpt lat="41.625509500" lon="2.519798100">
        <ele>379.40</ele>
        <time>2013-03-10T08:53:41Z</time>
      </trkpt>
      <trkpt lat="41.625621100" lon="2.519720300">
        <ele>379.90</ele>
        <time>2013-03-10T08:53:48Z</time>
      </trkpt>
      <trkpt lat="41.625741700" lon="2.519623800">
        <ele>379.40</ele>
        <time>2013-03-10T08:53:55Z</time>
      </trkpt>
      <trkpt lat="41.625833400" lon="2.519464300">
        <ele>379.40</ele>
        <time>2013-03-10T08:54:04Z</time>
      </trkpt>
      <trkpt lat="41.625854700" lon="2.519287200">
        <ele>379.40</ele>
        <time>2013-03-10T08:54:11Z</time>
      </trkpt>
      <trkpt lat="41.625781000" lon="2.519091400">
        <ele>378.90</ele>
        <time>2013-03-10T08:54:16Z</time>
      </trkpt>
      <trkpt lat="41.625730400" lon="2.518998800">
        <ele>378.40</ele>
        <time>2013-03-10T08:54:19Z</time>
      </trkpt>
      <trkpt lat="41.625668700" lon="2.518839700">
        <ele>377.00</ele>
        <time>2013-03-10T08:54:21Z</time>
      </trkpt>
      <trkpt lat="41.625613500" lon="2.518502200">
        <ele>375.00</ele>
        <time>2013-03-10T08:54:26Z</time>
      </trkpt>
      <trkpt lat="41.625613700" lon="2.518465100">
        <ele>374.10</ele>
        <time>2013-03-10T08:54:28Z</time>
      </trkpt>
      <trkpt lat="41.625597600" lon="2.518388500">
        <ele>373.10</ele>
        <time>2013-03-10T08:54:30Z</time>
      </trkpt>
      <trkpt lat="41.625563000" lon="2.518328400">
        <ele>372.60</ele>
        <time>2013-03-10T08:54:31Z</time>
      </trkpt>
      <trkpt lat="41.625467900" lon="2.518127100">
        <ele>371.20</ele>
        <time>2013-03-10T08:54:37Z</time>
      </trkpt>
      <trkpt lat="41.625467200" lon="2.518101000">
        <ele>370.70</ele>
        <time>2013-03-10T08:54:38Z</time>
      </trkpt>
      <trkpt lat="41.625455800" lon="2.518041700">
        <ele>370.20</ele>
        <time>2013-03-10T08:54:40Z</time>
      </trkpt>
      <trkpt lat="41.625436100" lon="2.517890200">
        <ele>368.80</ele>
        <time>2013-03-10T08:54:45Z</time>
      </trkpt>
      <trkpt lat="41.625396000" lon="2.517786900">
        <ele>367.80</ele>
        <time>2013-03-10T08:54:49Z</time>
      </trkpt>
      <trkpt lat="41.625334400" lon="2.517665800">
        <ele>366.40</ele>
        <time>2013-03-10T08:54:54Z</time>
      </trkpt>
      <trkpt lat="41.625142900" lon="2.517563600">
        <ele>364.50</ele>
        <time>2013-03-10T08:55:01Z</time>
      </trkpt>
      <trkpt lat="41.624958000" lon="2.517428100">
        <ele>364.00</ele>
        <time>2013-03-10T08:55:10Z</time>
      </trkpt>
      <trkpt lat="41.624826400" lon="2.517336900">
        <ele>364.00</ele>
        <time>2013-03-10T08:55:17Z</time>
      </trkpt>
      <trkpt lat="41.624643400" lon="2.517317300">
        <ele>364.50</ele>
        <time>2013-03-10T08:55:25Z</time>
      </trkpt>
      <trkpt lat="41.624440100" lon="2.517296400">
        <ele>365.40</ele>
        <time>2013-03-10T08:55:34Z</time>
      </trkpt>
      <trkpt lat="41.624265000" lon="2.517302700">
        <ele>366.40</ele>
        <time>2013-03-10T08:55:43Z</time>
      </trkpt>
      <trkpt lat="41.624172200" lon="2.517299200">
        <ele>366.90</ele>
        <time>2013-03-10T08:55:50Z</time>
      </trkpt>
      <trkpt lat="41.624156000" lon="2.517237400">
        <ele>368.30</ele>
        <time>2013-03-10T08:55:55Z</time>
      </trkpt>
      <trkpt lat="41.624185300" lon="2.517205300">
        <ele>368.30</ele>
        <time>2013-03-10T08:55:59Z</time>
      </trkpt>
      <trkpt lat="41.624303400" lon="2.517149100">
        <ele>370.70</ele>
        <time>2013-03-10T08:56:07Z</time>
      </trkpt>
      <trkpt lat="41.624384100" lon="2.517119100">
        <ele>372.20</ele>
        <time>2013-03-10T08:56:14Z</time>
      </trkpt>
      <trkpt lat="41.624420300" lon="2.517111000">
        <ele>372.60</ele>
        <time>2013-03-10T08:56:18Z</time>
      </trkpt>
      <trkpt lat="41.624479900" lon="2.517091500">
        <ele>373.60</ele>
        <time>2013-03-10T08:56:21Z</time>
      </trkpt>
      <trkpt lat="41.624591300" lon="2.517049000">
        <ele>375.50</ele>
        <time>2013-03-10T08:56:30Z</time>
      </trkpt>
      <trkpt lat="41.624646700" lon="2.517016300">
        <ele>376.00</ele>
        <time>2013-03-10T08:56:35Z</time>
      </trkpt>
      <trkpt lat="41.624743300" lon="2.516992400">
        <ele>377.00</ele>
        <time>2013-03-10T08:56:40Z</time>
      </trkpt>
      <trkpt lat="41.624882800" lon="2.517017700">
        <ele>377.90</ele>
        <time>2013-03-10T08:56:49Z</time>
      </trkpt>
      <trkpt lat="41.624992200" lon="2.517056900">
        <ele>379.40</ele>
        <time>2013-03-10T08:56:58Z</time>
      </trkpt>
      <trkpt lat="41.625029800" lon="2.517077100">
        <ele>379.90</ele>
        <time>2013-03-10T08:57:01Z</time>
      </trkpt>
      <trkpt lat="41.625090400" lon="2.517087100">
        <ele>380.30</ele>
        <time>2013-03-10T08:57:05Z</time>
      </trkpt>
      <trkpt lat="41.625117600" lon="2.517098300">
        <ele>380.80</ele>
        <time>2013-03-10T08:57:08Z</time>
      </trkpt>
      <trkpt lat="41.625228700" lon="2.517152800">
        <ele>382.30</ele>
        <time>2013-03-10T08:57:17Z</time>
      </trkpt>
      <trkpt lat="41.625353300" lon="2.517228700">
        <ele>383.70</ele>
        <time>2013-03-10T08:57:26Z</time>
      </trkpt>
      <trkpt lat="41.625455700" lon="2.517266900">
        <ele>385.10</ele>
        <time>2013-03-10T08:57:33Z</time>
      </trkpt>
      <trkpt lat="41.625470000" lon="2.517275300">
        <ele>385.10</ele>
        <time>2013-03-10T08:57:34Z</time>
      </trkpt>
      <trkpt lat="41.625541800" lon="2.517314300">
        <ele>386.10</ele>
        <time>2013-03-10T08:57:38Z</time>
      </trkpt>
      <trkpt lat="41.625646100" lon="2.517413200">
        <ele>388.50</ele>
        <time>2013-03-10T08:57:48Z</time>
      </trkpt>
      <trkpt lat="41.625712300" lon="2.517502900">
        <ele>390.00</ele>
        <time>2013-03-10T08:57:55Z</time>
      </trkpt>
      <trkpt lat="41.625755700" lon="2.517599700">
        <ele>391.40</ele>
        <time>2013-03-10T08:58:02Z</time>
      </trkpt>
      <trkpt lat="41.625830400" lon="2.517720600">
        <ele>392.80</ele>
        <time>2013-03-10T08:58:11Z</time>
      </trkpt>
      <trkpt lat="41.625885500" lon="2.517868400">
        <ele>394.30</ele>
        <time>2013-03-10T08:58:20Z</time>
      </trkpt>
      <trkpt lat="41.625913100" lon="2.518016000">
        <ele>396.20</ele>
        <time>2013-03-10T08:58:28Z</time>
      </trkpt>
      <trkpt lat="41.625951300" lon="2.518163600">
        <ele>397.60</ele>
        <time>2013-03-10T08:58:37Z</time>
      </trkpt>
      <trkpt lat="41.625985900" lon="2.518314400">
        <ele>399.10</ele>
        <time>2013-03-10T08:58:46Z</time>
      </trkpt>
      <trkpt lat="41.626025100" lon="2.518430100">
        <ele>400.50</ele>
        <time>2013-03-10T08:58:53Z</time>
      </trkpt>
      <trkpt lat="41.626083100" lon="2.518562000">
        <ele>402.50</ele>
        <time>2013-03-10T08:59:03Z</time>
      </trkpt>
      <trkpt lat="41.626142700" lon="2.518687600">
        <ele>404.90</ele>
        <time>2013-03-10T08:59:12Z</time>
      </trkpt>
      <trkpt lat="41.626195200" lon="2.518799300">
        <ele>406.30</ele>
        <time>2013-03-10T08:59:19Z</time>
      </trkpt>
      <trkpt lat="41.626264200" lon="2.518920000">
        <ele>408.20</ele>
        <time>2013-03-10T08:59:29Z</time>
      </trkpt>
      <trkpt lat="41.626303300" lon="2.518977300">
        <ele>409.20</ele>
        <time>2013-03-10T08:59:35Z</time>
      </trkpt>
      <trkpt lat="41.626360300" lon="2.519082100">
        <ele>410.60</ele>
        <time>2013-03-10T08:59:43Z</time>
      </trkpt>
      <trkpt lat="41.626410700" lon="2.519171800">
        <ele>411.60</ele>
        <time>2013-03-10T08:59:50Z</time>
      </trkpt>
      <trkpt lat="41.626465000" lon="2.519285800">
        <ele>413.50</ele>
        <time>2013-03-10T08:59:57Z</time>
      </trkpt>
      <trkpt lat="41.626518000" lon="2.519386500">
        <ele>415.00</ele>
        <time>2013-03-10T09:00:06Z</time>
      </trkpt>
      <trkpt lat="41.626556500" lon="2.519516200">
        <ele>416.90</ele>
        <time>2013-03-10T09:00:15Z</time>
      </trkpt>
      <trkpt lat="41.626600100" lon="2.519642500">
        <ele>418.80</ele>
        <time>2013-03-10T09:00:23Z</time>
      </trkpt>
      <trkpt lat="41.626604200" lon="2.519656600">
        <ele>419.30</ele>
        <time>2013-03-10T09:00:25Z</time>
      </trkpt>
      <trkpt lat="41.626638500" lon="2.519798500">
        <ele>420.70</ele>
        <time>2013-03-10T09:00:34Z</time>
      </trkpt>
      <trkpt lat="41.626639500" lon="2.519935800">
        <ele>422.60</ele>
        <time>2013-03-10T09:00:41Z</time>
      </trkpt>
      <trkpt lat="41.626617300" lon="2.520078700">
        <ele>424.10</ele>
        <time>2013-03-10T09:00:51Z</time>
      </trkpt>
      <trkpt lat="41.626582700" lon="2.520136800">
        <ele>425.00</ele>
        <time>2013-03-10T09:00:55Z</time>
      </trkpt>
      <trkpt lat="41.626596400" lon="2.520207800">
        <ele>426.00</ele>
        <time>2013-03-10T09:01:02Z</time>
      </trkpt>
      <trkpt lat="41.626643600" lon="2.520118700">
        <ele>425.50</ele>
        <time>2013-03-10T09:01:10Z</time>
      </trkpt>
      <trkpt lat="41.626680000" lon="2.520040300">
        <ele>425.50</ele>
        <time>2013-03-10T09:01:16Z</time>
      </trkpt>
      <trkpt lat="41.626686600" lon="2.520016200">
        <ele>425.00</ele>
        <time>2013-03-10T09:01:21Z</time>
      </trkpt>
      <trkpt lat="41.626692500" lon="2.520005900">
        <ele>425.00</ele>
        <time>2013-03-10T09:01:33Z</time>
      </trkpt>
      <trkpt lat="41.626688800" lon="2.520005200">
        <ele>424.60</ele>
        <time>2013-03-10T09:01:49Z</time>
      </trkpt>
      <trkpt lat="41.626681300" lon="2.520004600">
        <ele>424.60</ele>
        <time>2013-03-10T09:01:59Z</time>
      </trkpt>
      <trkpt lat="41.626665300" lon="2.519998000">
        <ele>425.00</ele>
        <time>2013-03-10T09:02:18Z</time>
      </trkpt>
      <trkpt lat="41.626674900" lon="2.519988000">
        <ele>424.60</ele>
        <time>2013-03-10T09:02:34Z</time>
      </trkpt>
      <trkpt lat="41.626714600" lon="2.519907000">
        <ele>424.60</ele>
        <time>2013-03-10T09:02:39Z</time>
      </trkpt>
      <trkpt lat="41.626751400" lon="2.519776000">
        <ele>425.00</ele>
        <time>2013-03-10T09:02:48Z</time>
      </trkpt>
      <trkpt lat="41.626754900" lon="2.519605100">
        <ele>425.50</ele>
        <time>2013-03-10T09:02:57Z</time>
      </trkpt>
      <trkpt lat="41.626748100" lon="2.519517500">
        <ele>426.00</ele>
        <time>2013-03-10T09:03:02Z</time>
      </trkpt>
      <trkpt lat="41.626732900" lon="2.519349400">
        <ele>427.00</ele>
        <time>2013-03-10T09:03:11Z</time>
      </trkpt>
      <trkpt lat="41.626721700" lon="2.519204000">
        <ele>427.90</ele>
        <time>2013-03-10T09:03:19Z</time>
      </trkpt>
      <trkpt lat="41.626709400" lon="2.519075800">
        <ele>428.90</ele>
        <time>2013-03-10T09:03:26Z</time>
      </trkpt>
      <trkpt lat="41.626693400" lon="2.519010200">
        <ele>429.40</ele>
        <time>2013-03-10T09:03:30Z</time>
      </trkpt>
      <trkpt lat="41.626635000" lon="2.518863300">
        <ele>429.40</ele>
        <time>2013-03-10T09:03:38Z</time>
      </trkpt>
      <trkpt lat="41.626572800" lon="2.518669700">
        <ele>427.90</ele>
        <time>2013-03-10T09:03:45Z</time>
      </trkpt>
      <trkpt lat="41.626585000" lon="2.518405600">
        <ele>426.50</ele>
        <time>2013-03-10T09:03:52Z</time>
      </trkpt>
      <trkpt lat="41.626580600" lon="2.518141100">
        <ele>427.40</ele>
        <time>2013-03-10T09:03:59Z</time>
      </trkpt>
      <trkpt lat="41.626567800" lon="2.517899500">
        <ele>427.90</ele>
        <time>2013-03-10T09:04:06Z</time>
      </trkpt>
      <trkpt lat="41.626564500" lon="2.517640000">
        <ele>428.90</ele>
        <time>2013-03-10T09:04:15Z</time>
      </trkpt>
      <trkpt lat="41.626578700" lon="2.517447400">
        <ele>430.30</ele>
        <time>2013-03-10T09:04:22Z</time>
      </trkpt>
      <trkpt lat="41.626611800" lon="2.517217100">
        <ele>431.80</ele>
        <time>2013-03-10T09:04:31Z</time>
      </trkpt>
      <trkpt lat="41.626640000" lon="2.517003800">
        <ele>432.70</ele>
        <time>2013-03-10T09:04:39Z</time>
      </trkpt>
      <trkpt lat="41.626669500" lon="2.516765100">
        <ele>434.20</ele>
        <time>2013-03-10T09:04:48Z</time>
      </trkpt>
      <trkpt lat="41.626694600" lon="2.516520500">
        <ele>434.60</ele>
        <time>2013-03-10T09:04:57Z</time>
      </trkpt>
      <trkpt lat="41.626732700" lon="2.516296700">
        <ele>435.60</ele>
        <time>2013-03-10T09:05:06Z</time>
      </trkpt>
      <trkpt lat="41.626764400" lon="2.516142100">
        <ele>436.60</ele>
        <time>2013-03-10T09:05:14Z</time>
      </trkpt>
      <trkpt lat="41.626780400" lon="2.516004600">
        <ele>438.00</ele>
        <time>2013-03-10T09:05:21Z</time>
      </trkpt>
      <trkpt lat="41.626820800" lon="2.515831500">
        <ele>439.00</ele>
        <time>2013-03-10T09:05:28Z</time>
      </trkpt>
      <trkpt lat="41.626935900" lon="2.515645200">
        <ele>440.40</ele>
        <time>2013-03-10T09:05:37Z</time>
      </trkpt>
      <trkpt lat="41.627037600" lon="2.515547500">
        <ele>441.40</ele>
        <time>2013-03-10T09:05:44Z</time>
      </trkpt>
      <trkpt lat="41.627151700" lon="2.515415200">
        <ele>441.90</ele>
        <time>2013-03-10T09:05:54Z</time>
      </trkpt>
      <trkpt lat="41.627180300" lon="2.515385400">
        <ele>442.30</ele>
        <time>2013-03-10T09:05:56Z</time>
      </trkpt>
      <trkpt lat="41.627283100" lon="2.515344100">
        <ele>444.80</ele>
        <time>2013-03-10T09:06:03Z</time>
      </trkpt>
      <trkpt lat="41.627295500" lon="2.515352300">
        <ele>444.80</ele>
        <time>2013-03-10T09:06:05Z</time>
      </trkpt>
      <trkpt lat="41.627298200" lon="2.515389600">
        <ele>444.30</ele>
        <time>2013-03-10T09:06:13Z</time>
      </trkpt>
      <trkpt lat="41.627303700" lon="2.515420300">
        <ele>443.80</ele>
        <time>2013-03-10T09:06:22Z</time>
      </trkpt>
      <trkpt lat="41.627313000" lon="2.515417500">
        <ele>443.80</ele>
        <time>2013-03-10T09:06:40Z</time>
      </trkpt>
      <trkpt lat="41.627302700" lon="2.515415700">
        <ele>443.80</ele>
        <time>2013-03-10T09:06:43Z</time>
      </trkpt>
      <trkpt lat="41.627277400" lon="2.515405800">
        <ele>443.80</ele>
        <time>2013-03-10T09:06:45Z</time>
      </trkpt>
      <trkpt lat="41.627291900" lon="2.515338400">
        <ele>444.30</ele>
        <time>2013-03-10T09:06:50Z</time>
      </trkpt>
      <trkpt lat="41.627336000" lon="2.515315800">
        <ele>444.80</ele>
        <time>2013-03-10T09:06:55Z</time>
      </trkpt>
      <trkpt lat="41.627400800" lon="2.515259300">
        <ele>446.70</ele>
        <time>2013-03-10T09:07:00Z</time>
      </trkpt>
      <trkpt lat="41.627499400" lon="2.515170100">
        <ele>449.50</ele>
        <time>2013-03-10T09:07:09Z</time>
      </trkpt>
      <trkpt lat="41.627618500" lon="2.515069000">
        <ele>452.00</ele>
        <time>2013-03-10T09:07:20Z</time>
      </trkpt>
      <trkpt lat="41.627683000" lon="2.515013700">
        <ele>452.90</ele>
        <time>2013-03-10T09:07:25Z</time>
      </trkpt>
      <trkpt lat="41.627785100" lon="2.514972300">
        <ele>454.40</ele>
        <time>2013-03-10T09:07:35Z</time>
      </trkpt>
      <trkpt lat="41.627862400" lon="2.514959900">
        <ele>454.80</ele>
        <time>2013-03-10T09:07:42Z</time>
      </trkpt>
      <trkpt lat="41.627953200" lon="2.514955600">
        <ele>454.80</ele>
        <time>2013-03-10T09:07:49Z</time>
      </trkpt>
      <trkpt lat="41.628074500" lon="2.514932500">
        <ele>454.40</ele>
        <time>2013-03-10T09:07:58Z</time>
      </trkpt>
      <trkpt lat="41.628244500" lon="2.514954200">
        <ele>452.40</ele>
        <time>2013-03-10T09:08:03Z</time>
      </trkpt>
      <trkpt lat="41.628367400" lon="2.515006100">
        <ele>452.40</ele>
        <time>2013-03-10T09:08:08Z</time>
      </trkpt>
      <trkpt lat="41.628484100" lon="2.515126600">
        <ele>450.50</ele>
        <time>2013-03-10T09:08:15Z</time>
      </trkpt>
      <trkpt lat="41.628572200" lon="2.515193700">
        <ele>449.10</ele>
        <time>2013-03-10T09:08:19Z</time>
      </trkpt>
      <trkpt lat="41.628791800" lon="2.515378700">
        <ele>444.80</ele>
        <time>2013-03-10T09:08:28Z</time>
      </trkpt>
      <trkpt lat="41.628925400" lon="2.515439200">
        <ele>442.30</ele>
        <time>2013-03-10T09:08:33Z</time>
      </trkpt>
      <trkpt lat="41.628977300" lon="2.515471000">
        <ele>440.40</ele>
        <time>2013-03-10T09:08:36Z</time>
      </trkpt>
      <trkpt lat="41.628988800" lon="2.515475900">
        <ele>439.90</ele>
        <time>2013-03-10T09:08:36Z</time>
      </trkpt>
      <trkpt lat="41.629075700" lon="2.515525700">
        <ele>438.50</ele>
        <time>2013-03-10T09:08:43Z</time>
      </trkpt>
      <trkpt lat="41.629216200" lon="2.515575600">
        <ele>435.10</ele>
        <time>2013-03-10T09:08:50Z</time>
      </trkpt>
      <trkpt lat="41.629241200" lon="2.515591300">
        <ele>435.10</ele>
        <time>2013-03-10T09:08:50Z</time>
      </trkpt>
      <trkpt lat="41.629383900" lon="2.515591200">
        <ele>433.20</ele>
        <time>2013-03-10T09:08:55Z</time>
      </trkpt>
      <trkpt lat="41.629460900" lon="2.515595500">
        <ele>432.20</ele>
        <time>2013-03-10T09:08:57Z</time>
      </trkpt>
      <trkpt lat="41.629748200" lon="2.515620000">
        <ele>430.30</ele>
        <time>2013-03-10T09:09:04Z</time>
      </trkpt>
      <trkpt lat="41.629935400" lon="2.515541700">
        <ele>428.90</ele>
        <time>2013-03-10T09:09:09Z</time>
      </trkpt>
      <trkpt lat="41.630038800" lon="2.515551200">
        <ele>427.90</ele>
        <time>2013-03-10T09:09:15Z</time>
      </trkpt>
      <trkpt lat="41.630139500" lon="2.515593900">
        <ele>427.90</ele>
        <time>2013-03-10T09:09:25Z</time>
      </trkpt>
      <trkpt lat="41.630237200" lon="2.515765400">
        <ele>425.50</ele>
        <time>2013-03-10T09:09:30Z</time>
      </trkpt>
      <trkpt lat="41.630396800" lon="2.515956800">
        <ele>421.20</ele>
        <time>2013-03-10T09:09:37Z</time>
      </trkpt>
      <trkpt lat="41.630480300" lon="2.515955400">
        <ele>419.80</ele>
        <time>2013-03-10T09:09:41Z</time>
      </trkpt>
      <trkpt lat="41.630556200" lon="2.515931600">
        <ele>419.30</ele>
        <time>2013-03-10T09:09:42Z</time>
      </trkpt>
      <trkpt lat="41.630723500" lon="2.515886000">
        <ele>416.90</ele>
        <time>2013-03-10T09:09:48Z</time>
      </trkpt>
      <trkpt lat="41.630805400" lon="2.515831500">
        <ele>415.00</ele>
        <time>2013-03-10T09:09:51Z</time>
      </trkpt>
      <trkpt lat="41.630930500" lon="2.515636700">
        <ele>412.10</ele>
        <time>2013-03-10T09:09:55Z</time>
      </trkpt>
      <trkpt lat="41.631033500" lon="2.515372700">
        <ele>408.20</ele>
        <time>2013-03-10T09:09:58Z</time>
      </trkpt>
      <trkpt lat="41.631070800" lon="2.515252000">
        <ele>407.30</ele>
        <time>2013-03-10T09:10:00Z</time>
      </trkpt>
      <trkpt lat="41.631238600" lon="2.514980700">
        <ele>403.90</ele>
        <time>2013-03-10T09:10:07Z</time>
      </trkpt>
      <trkpt lat="41.631332600" lon="2.514918900">
        <ele>401.00</ele>
        <time>2013-03-10T09:10:10Z</time>
      </trkpt>
      <trkpt lat="41.631400800" lon="2.514894600">
        <ele>399.60</ele>
        <time>2013-03-10T09:10:12Z</time>
      </trkpt>
      <trkpt lat="41.631607400" lon="2.514756200">
        <ele>396.70</ele>
        <time>2013-03-10T09:10:17Z</time>
      </trkpt>
      <trkpt lat="41.631704500" lon="2.514697800">
        <ele>395.20</ele>
        <time>2013-03-10T09:10:19Z</time>
      </trkpt>
      <trkpt lat="41.631775100" lon="2.514671900">
        <ele>394.80</ele>
        <time>2013-03-10T09:10:21Z</time>
      </trkpt>
      <trkpt lat="41.632012700" lon="2.514618000">
        <ele>392.80</ele>
        <time>2013-03-10T09:10:26Z</time>
      </trkpt>
      <trkpt lat="41.632190400" lon="2.514613300">
        <ele>391.90</ele>
        <time>2013-03-10T09:10:29Z</time>
      </trkpt>
      <trkpt lat="41.632521700" lon="2.514778200">
        <ele>387.50</ele>
        <time>2013-03-10T09:10:35Z</time>
      </trkpt>
      <trkpt lat="41.632671700" lon="2.514901000">
        <ele>385.60</ele>
        <time>2013-03-10T09:10:38Z</time>
      </trkpt>
      <trkpt lat="41.632791900" lon="2.514962800">
        <ele>384.20</ele>
        <time>2013-03-10T09:10:40Z</time>
      </trkpt>
      <trkpt lat="41.632900500" lon="2.514966300">
        <ele>383.20</ele>
        <time>2013-03-10T09:10:45Z</time>
      </trkpt>
      <trkpt lat="41.632883400" lon="2.514874400">
        <ele>383.70</ele>
        <time>2013-03-10T09:10:49Z</time>
      </trkpt>
      <trkpt lat="41.632872800" lon="2.514833900">
        <ele>384.20</ele>
        <time>2013-03-10T09:10:52Z</time>
      </trkpt>
      <trkpt lat="41.632842500" lon="2.514706100">
        <ele>385.60</ele>
        <time>2013-03-10T09:10:59Z</time>
      </trkpt>
      <trkpt lat="41.632816300" lon="2.514563300">
        <ele>387.10</ele>
        <time>2013-03-10T09:11:06Z</time>
      </trkpt>
      <trkpt lat="41.632816700" lon="2.514352200">
        <ele>388.00</ele>
        <time>2013-03-10T09:11:15Z</time>
      </trkpt>
      <trkpt lat="41.632898200" lon="2.514212300">
        <ele>388.00</ele>
        <time>2013-03-10T09:11:23Z</time>
      </trkpt>
      <trkpt lat="41.633045600" lon="2.514074600">
        <ele>386.10</ele>
        <time>2013-03-10T09:11:32Z</time>
      </trkpt>
      <trkpt lat="41.633170100" lon="2.513842000">
        <ele>383.70</ele>
        <time>2013-03-10T09:11:39Z</time>
      </trkpt>
      <trkpt lat="41.633258600" lon="2.513546700">
        <ele>382.70</ele>
        <time>2013-03-10T09:11:46Z</time>
      </trkpt>
      <trkpt lat="41.633276600" lon="2.513430000">
        <ele>382.30</ele>
        <time>2013-03-10T09:11:48Z</time>
      </trkpt>
      <trkpt lat="41.633182500" lon="2.513267300">
        <ele>381.30</ele>
        <time>2013-03-10T09:11:55Z</time>
      </trkpt>
      <trkpt lat="41.633028100" lon="2.513160200">
        <ele>380.30</ele>
        <time>2013-03-10T09:12:02Z</time>
      </trkpt>
      <trkpt lat="41.632838200" lon="2.513103500">
        <ele>378.90</ele>
        <time>2013-03-10T09:12:09Z</time>
      </trkpt>
      <trkpt lat="41.632731600" lon="2.513017800">
        <ele>377.00</ele>
        <time>2013-03-10T09:12:14Z</time>
      </trkpt>
      <trkpt lat="41.632581000" lon="2.512908000">
        <ele>375.00</ele>
        <time>2013-03-10T09:12:19Z</time>
      </trkpt>
      <trkpt lat="41.632363200" lon="2.512791800">
        <ele>372.20</ele>
        <time>2013-03-10T09:12:24Z</time>
      </trkpt>
      <trkpt lat="41.632275300" lon="2.512822100">
        <ele>372.20</ele>
        <time>2013-03-10T09:12:28Z</time>
      </trkpt>
      <trkpt lat="41.632052200" lon="2.512971800">
        <ele>370.20</ele>
        <time>2013-03-10T09:12:35Z</time>
      </trkpt>
      <trkpt lat="41.632007600" lon="2.513062700">
        <ele>369.80</ele>
        <time>2013-03-10T09:12:38Z</time>
      </trkpt>
      <trkpt lat="41.631831500" lon="2.513282300">
        <ele>365.90</ele>
        <time>2013-03-10T09:12:45Z</time>
      </trkpt>
      <trkpt lat="41.631810600" lon="2.513305100">
        <ele>365.90</ele>
        <time>2013-03-10T09:12:45Z</time>
      </trkpt>
      <trkpt lat="41.631689400" lon="2.513465600">
        <ele>364.00</ele>
        <time>2013-03-10T09:12:52Z</time>
      </trkpt>
      <trkpt lat="41.631588500" lon="2.513427500">
        <ele>362.50</ele>
        <time>2013-03-10T09:12:56Z</time>
      </trkpt>
      <trkpt lat="41.631549700" lon="2.513130500">
        <ele>360.60</ele>
        <time>2013-03-10T09:13:03Z</time>
      </trkpt>
      <trkpt lat="41.631443700" lon="2.512817200">
        <ele>359.20</ele>
        <time>2013-03-10T09:13:10Z</time>
      </trkpt>
      <trkpt lat="41.631219300" lon="2.512709800">
        <ele>357.80</ele>
        <time>2013-03-10T09:13:15Z</time>
      </trkpt>
      <trkpt lat="41.631186600" lon="2.512732900">
        <ele>358.20</ele>
        <time>2013-03-10T09:13:17Z</time>
      </trkpt>
      <trkpt lat="41.631088900" lon="2.512910500">
        <ele>358.70</ele>
        <time>2013-03-10T09:13:22Z</time>
      </trkpt>
      <trkpt lat="41.631014700" lon="2.513128700">
        <ele>358.70</ele>
        <time>2013-03-10T09:13:29Z</time>
      </trkpt>
      <trkpt lat="41.630919600" lon="2.513294400">
        <ele>357.80</ele>
        <time>2013-03-10T09:13:34Z</time>
      </trkpt>
      <trkpt lat="41.630805300" lon="2.513276800">
        <ele>357.80</ele>
        <time>2013-03-10T09:13:39Z</time>
      </trkpt>
      <trkpt lat="41.630714600" lon="2.513112900">
        <ele>355.80</ele>
        <time>2013-03-10T09:13:46Z</time>
      </trkpt>
      <trkpt lat="41.630568000" lon="2.512867500">
        <ele>352.50</ele>
        <time>2013-03-10T09:13:53Z</time>
      </trkpt>
      <trkpt lat="41.630545100" lon="2.512849300">
        <ele>352.00</ele>
        <time>2013-03-10T09:13:53Z</time>
      </trkpt>
      <trkpt lat="41.630485100" lon="2.512841100">
        <ele>351.50</ele>
        <time>2013-03-10T09:13:55Z</time>
      </trkpt>
      <trkpt lat="41.630269400" lon="2.512942500">
        <ele>349.60</ele>
        <time>2013-03-10T09:14:00Z</time>
      </trkpt>
      <trkpt lat="41.630131000" lon="2.513027600">
        <ele>348.60</ele>
        <time>2013-03-10T09:14:04Z</time>
      </trkpt>
      <trkpt lat="41.630101600" lon="2.513029400">
        <ele>348.10</ele>
        <time>2013-03-10T09:14:06Z</time>
      </trkpt>
      <trkpt lat="41.630026200" lon="2.512895400">
        <ele>346.70</ele>
        <time>2013-03-10T09:14:11Z</time>
      </trkpt>
      <trkpt lat="41.630039000" lon="2.512810900">
        <ele>345.70</ele>
        <time>2013-03-10T09:14:12Z</time>
      </trkpt>
      <trkpt lat="41.630056800" lon="2.512701900">
        <ele>345.20</ele>
        <time>2013-03-10T09:14:14Z</time>
      </trkpt>
      <trkpt lat="41.630131900" lon="2.512409200">
        <ele>343.80</ele>
        <time>2013-03-10T09:14:19Z</time>
      </trkpt>
      <trkpt lat="41.630177100" lon="2.512223100">
        <ele>342.90</ele>
        <time>2013-03-10T09:14:23Z</time>
      </trkpt>
      <trkpt lat="41.630277500" lon="2.511760600">
        <ele>341.90</ele>
        <time>2013-03-10T09:14:30Z</time>
      </trkpt>
      <trkpt lat="41.630318400" lon="2.511529100">
        <ele>342.90</ele>
        <time>2013-03-10T09:14:37Z</time>
      </trkpt>
      <trkpt lat="41.630241200" lon="2.511486300">
        <ele>344.30</ele>
        <time>2013-03-10T09:14:42Z</time>
      </trkpt>
      <trkpt lat="41.630224100" lon="2.511504700">
        <ele>344.30</ele>
        <time>2013-03-10T09:14:42Z</time>
      </trkpt>
      <trkpt lat="41.630069000" lon="2.511640700">
        <ele>344.30</ele>
        <time>2013-03-10T09:14:51Z</time>
      </trkpt>
      <trkpt lat="41.629968200" lon="2.511699800">
        <ele>344.80</ele>
        <time>2013-03-10T09:14:56Z</time>
      </trkpt>
      <trkpt lat="41.629925900" lon="2.511691600">
        <ele>344.80</ele>
        <time>2013-03-10T09:15:00Z</time>
      </trkpt>
      <trkpt lat="41.629895400" lon="2.511630400">
        <ele>344.80</ele>
        <time>2013-03-10T09:15:03Z</time>
      </trkpt>
      <trkpt lat="41.629930100" lon="2.511528500">
        <ele>344.30</ele>
        <time>2013-03-10T09:15:08Z</time>
      </trkpt>
      <trkpt lat="41.630007200" lon="2.511353300">
        <ele>343.80</ele>
        <time>2013-03-10T09:15:15Z</time>
      </trkpt>
      <trkpt lat="41.630024600" lon="2.511269500">
        <ele>343.80</ele>
        <time>2013-03-10T09:15:20Z</time>
      </trkpt>
      <trkpt lat="41.630013700" lon="2.511143600">
        <ele>344.30</ele>
        <time>2013-03-10T09:15:26Z</time>
      </trkpt>
      <trkpt lat="41.629876700" lon="2.510987800">
        <ele>345.20</ele>
        <time>2013-03-10T09:15:36Z</time>
      </trkpt>
      <trkpt lat="41.629799800" lon="2.510850200">
        <ele>346.70</ele>
        <time>2013-03-10T09:15:43Z</time>
      </trkpt>
      <trkpt lat="41.629753100" lon="2.510711600">
        <ele>347.60</ele>
        <time>2013-03-10T09:15:50Z</time>
      </trkpt>
      <trkpt lat="41.629676100" lon="2.510626800">
        <ele>348.60</ele>
        <time>2013-03-10T09:15:57Z</time>
      </trkpt>
      <trkpt lat="41.629527900" lon="2.510557200">
        <ele>349.10</ele>
        <time>2013-03-10T09:16:06Z</time>
      </trkpt>
      <trkpt lat="41.629412900" lon="2.510504400">
        <ele>347.20</ele>
        <time>2013-03-10T09:16:11Z</time>
      </trkpt>
      <trkpt lat="41.629299200" lon="2.510331700">
        <ele>345.20</ele>
        <time>2013-03-10T09:16:16Z</time>
      </trkpt>
      <trkpt lat="41.629197900" lon="2.510309500">
        <ele>344.30</ele>
        <time>2013-03-10T09:16:21Z</time>
      </trkpt>
      <trkpt lat="41.629025600" lon="2.510375100">
        <ele>341.90</ele>
        <time>2013-03-10T09:16:27Z</time>
      </trkpt>
      <trkpt lat="41.628923000" lon="2.510437700">
        <ele>342.90</ele>
        <time>2013-03-10T09:16:32Z</time>
      </trkpt>
      <trkpt lat="41.628906600" lon="2.510446300">
        <ele>342.90</ele>
        <time>2013-03-10T09:16:32Z</time>
      </trkpt>
      <trkpt lat="41.628811200" lon="2.510403800">
        <ele>343.80</ele>
        <time>2013-03-10T09:16:39Z</time>
      </trkpt>
      <trkpt lat="41.628774200" lon="2.510263600">
        <ele>345.70</ele>
        <time>2013-03-10T09:16:46Z</time>
      </trkpt>
      <trkpt lat="41.628742700" lon="2.510187100">
        <ele>345.70</ele>
        <time>2013-03-10T09:16:49Z</time>
      </trkpt>
      <trkpt lat="41.628625400" lon="2.510092000">
        <ele>347.20</ele>
        <time>2013-03-10T09:16:58Z</time>
      </trkpt>
      <trkpt lat="41.628584100" lon="2.510079100">
        <ele>347.60</ele>
        <time>2013-03-10T09:17:05Z</time>
      </trkpt>
      <trkpt lat="41.628537600" lon="2.510073400">
        <ele>347.60</ele>
        <time>2013-03-10T09:17:08Z</time>
      </trkpt>
      <trkpt lat="41.628488400" lon="2.510040800">
        <ele>348.10</ele>
        <time>2013-03-10T09:17:12Z</time>
      </trkpt>
      <trkpt lat="41.628462700" lon="2.510000500">
        <ele>348.60</ele>
        <time>2013-03-10T09:17:15Z</time>
      </trkpt>
      <trkpt lat="41.628463400" lon="2.509917600">
        <ele>348.60</ele>
        <time>2013-03-10T09:17:19Z</time>
      </trkpt>
      <trkpt lat="41.628472600" lon="2.509862300">
        <ele>349.10</ele>
        <time>2013-03-10T09:17:22Z</time>
      </trkpt>
      <trkpt lat="41.628480300" lon="2.509769700">
        <ele>350.50</ele>
        <time>2013-03-10T09:17:28Z</time>
      </trkpt>
      <trkpt lat="41.628405900" lon="2.509638800">
        <ele>350.50</ele>
        <time>2013-03-10T09:17:36Z</time>
      </trkpt>
      <trkpt lat="41.628435400" lon="2.509503600">
        <ele>351.00</ele>
        <time>2013-03-10T09:17:43Z</time>
      </trkpt>
      <trkpt lat="41.628521900" lon="2.509412300">
        <ele>352.00</ele>
        <time>2013-03-10T09:17:50Z</time>
      </trkpt>
      <trkpt lat="41.628660700" lon="2.509385200">
        <ele>353.40</ele>
        <time>2013-03-10T09:17:59Z</time>
      </trkpt>
      <trkpt lat="41.628787800" lon="2.509366800">
        <ele>354.90</ele>
        <time>2013-03-10T09:18:08Z</time>
      </trkpt>
      <trkpt lat="41.628854500" lon="2.509340500">
        <ele>355.80</ele>
        <time>2013-03-10T09:18:13Z</time>
      </trkpt>
      <trkpt lat="41.628941000" lon="2.509259100">
        <ele>356.80</ele>
        <time>2013-03-10T09:18:18Z</time>
      </trkpt>
      <trkpt lat="41.629039900" lon="2.509128000">
        <ele>358.20</ele>
        <time>2013-03-10T09:18:27Z</time>
      </trkpt>
      <trkpt lat="41.629063800" lon="2.509074900">
        <ele>358.70</ele>
        <time>2013-03-10T09:18:32Z</time>
      </trkpt>
      <trkpt lat="41.629023400" lon="2.508962700">
        <ele>359.70</ele>
        <time>2013-03-10T09:18:39Z</time>
      </trkpt>
      <trkpt lat="41.628935500" lon="2.508807400">
        <ele>361.10</ele>
        <time>2013-03-10T09:18:48Z</time>
      </trkpt>
      <trkpt lat="41.628847300" lon="2.508704000">
        <ele>361.60</ele>
        <time>2013-03-10T09:18:55Z</time>
      </trkpt>
      <trkpt lat="41.628738400" lon="2.508557700">
        <ele>358.20</ele>
        <time>2013-03-10T09:19:02Z</time>
      </trkpt>
      <trkpt lat="41.628644300" lon="2.508408400">
        <ele>355.80</ele>
        <time>2013-03-10T09:19:07Z</time>
      </trkpt>
      <trkpt lat="41.628483200" lon="2.508267100">
        <ele>353.40</ele>
        <time>2013-03-10T09:19:12Z</time>
      </trkpt>
      <trkpt lat="41.628460200" lon="2.508246300">
        <ele>352.90</ele>
        <time>2013-03-10T09:19:14Z</time>
      </trkpt>
      <trkpt lat="41.628387300" lon="2.508166600">
        <ele>352.00</ele>
        <time>2013-03-10T09:19:19Z</time>
      </trkpt>
      <trkpt lat="41.628373700" lon="2.508159800">
        <ele>352.00</ele>
        <time>2013-03-10T09:19:19Z</time>
      </trkpt>
      <trkpt lat="41.628342100" lon="2.508104200">
        <ele>351.50</ele>
        <time>2013-03-10T09:19:26Z</time>
      </trkpt>
      <trkpt lat="41.628346900" lon="2.508095300">
        <ele>351.00</ele>
        <time>2013-03-10T09:19:49Z</time>
      </trkpt>
      <trkpt lat="41.628297000" lon="2.508089200">
        <ele>351.00</ele>
        <time>2013-03-10T09:19:56Z</time>
      </trkpt>
      <trkpt lat="41.628264900" lon="2.508053500">
        <ele>351.00</ele>
        <time>2013-03-10T09:20:03Z</time>
      </trkpt>
      <trkpt lat="41.628258300" lon="2.508018700">
        <ele>350.50</ele>
        <time>2013-03-10T09:20:10Z</time>
      </trkpt>
      <trkpt lat="41.628272500" lon="2.507995300">
        <ele>350.50</ele>
        <time>2013-03-10T09:20:18Z</time>
      </trkpt>
      <trkpt lat="41.628286500" lon="2.507977900">
        <ele>351.00</ele>
        <time>2013-03-10T09:20:25Z</time>
      </trkpt>
      <trkpt lat="41.628337500" lon="2.507921500">
        <ele>351.00</ele>
        <time>2013-03-10T09:20:41Z</time>
      </trkpt>
      <trkpt lat="41.628348300" lon="2.507890600">
        <ele>351.00</ele>
        <time>2013-03-10T09:20:48Z</time>
      </trkpt>
      <trkpt lat="41.628359800" lon="2.507877500">
        <ele>351.00</ele>
        <time>2013-03-10T09:20:50Z</time>
      </trkpt>
      <trkpt lat="41.628470400" lon="2.507762600">
        <ele>352.00</ele>
        <time>2013-03-10T09:21:00Z</time>
      </trkpt>
      <trkpt lat="41.628575800" lon="2.507622200">
        <ele>353.90</ele>
        <time>2013-03-10T09:21:09Z</time>
      </trkpt>
      <trkpt lat="41.628557900" lon="2.507465300">
        <ele>354.90</ele>
        <time>2013-03-10T09:21:17Z</time>
      </trkpt>
      <trkpt lat="41.628484400" lon="2.507297400">
        <ele>355.80</ele>
        <time>2013-03-10T09:21:26Z</time>
      </trkpt>
      <trkpt lat="41.628433900" lon="2.507051200">
        <ele>354.90</ele>
        <time>2013-03-10T09:21:31Z</time>
      </trkpt>
      <trkpt lat="41.628350000" lon="2.506813400">
        <ele>352.90</ele>
        <time>2013-03-10T09:21:37Z</time>
      </trkpt>
      <trkpt lat="41.628223500" lon="2.506604500">
        <ele>351.50</ele>
        <time>2013-03-10T09:21:44Z</time>
      </trkpt>
      <trkpt lat="41.628186400" lon="2.506562500">
        <ele>353.40</ele>
        <time>2013-03-10T09:21:47Z</time>
      </trkpt>
      <trkpt lat="41.628125900" lon="2.506531600">
        <ele>353.90</ele>
        <time>2013-03-10T09:21:52Z</time>
      </trkpt>
      <trkpt lat="41.627988600" lon="2.506453000">
        <ele>356.80</ele>
        <time>2013-03-10T09:22:03Z</time>
      </trkpt>
      <trkpt lat="41.627950700" lon="2.506427100">
        <ele>357.80</ele>
        <time>2013-03-10T09:22:06Z</time>
      </trkpt>
      <trkpt lat="41.627924000" lon="2.506393200">
        <ele>358.70</ele>
        <time>2013-03-10T09:22:10Z</time>
      </trkpt>
      <trkpt lat="41.627807400" lon="2.506305400">
        <ele>360.10</ele>
        <time>2013-03-10T09:22:18Z</time>
      </trkpt>
      <trkpt lat="41.627665200" lon="2.506242600">
        <ele>361.10</ele>
        <time>2013-03-10T09:22:27Z</time>
      </trkpt>
      <trkpt lat="41.627636100" lon="2.506233800">
        <ele>362.10</ele>
        <time>2013-03-10T09:22:29Z</time>
      </trkpt>
      <trkpt lat="41.627499400" lon="2.506223200">
        <ele>362.50</ele>
        <time>2013-03-10T09:22:36Z</time>
      </trkpt>
      <trkpt lat="41.627406800" lon="2.506213000">
        <ele>363.50</ele>
        <time>2013-03-10T09:22:43Z</time>
      </trkpt>
      <trkpt lat="41.627263800" lon="2.506199500">
        <ele>365.00</ele>
        <time>2013-03-10T09:22:52Z</time>
      </trkpt>
      <trkpt lat="41.627122400" lon="2.506243100">
        <ele>366.40</ele>
        <time>2013-03-10T09:23:00Z</time>
      </trkpt>
      <trkpt lat="41.627090900" lon="2.506258300">
        <ele>366.90</ele>
        <time>2013-03-10T09:23:02Z</time>
      </trkpt>
      <trkpt lat="41.626987900" lon="2.506381000">
        <ele>369.30</ele>
        <time>2013-03-10T09:23:12Z</time>
      </trkpt>
      <trkpt lat="41.626892600" lon="2.506467800">
        <ele>370.70</ele>
        <time>2013-03-10T09:23:21Z</time>
      </trkpt>
      <trkpt lat="41.626820700" lon="2.506499300">
        <ele>372.20</ele>
        <time>2013-03-10T09:23:28Z</time>
      </trkpt>
      <trkpt lat="41.626751300" lon="2.506458800">
        <ele>372.20</ele>
        <time>2013-03-10T09:23:33Z</time>
      </trkpt>
      <trkpt lat="41.626674200" lon="2.506328500">
        <ele>374.10</ele>
        <time>2013-03-10T09:23:42Z</time>
      </trkpt>
      <trkpt lat="41.626674200" lon="2.506314200">
        <ele>374.60</ele>
        <time>2013-03-10T09:23:44Z</time>
      </trkpt>
      <trkpt lat="41.626682000" lon="2.506246500">
        <ele>375.00</ele>
        <time>2013-03-10T09:23:47Z</time>
      </trkpt>
      <trkpt lat="41.626650000" lon="2.506121300">
        <ele>375.50</ele>
        <time>2013-03-10T09:23:56Z</time>
      </trkpt>
      <trkpt lat="41.626552100" lon="2.505981100">
        <ele>377.00</ele>
        <time>2013-03-10T09:24:05Z</time>
      </trkpt>
      <trkpt lat="41.626435800" lon="2.505865600">
        <ele>377.50</ele>
        <time>2013-03-10T09:24:12Z</time>
      </trkpt>
      <trkpt lat="41.626394800" lon="2.505826200">
        <ele>377.50</ele>
        <time>2013-03-10T09:24:15Z</time>
      </trkpt>
      <trkpt lat="41.626309700" lon="2.505672900">
        <ele>378.40</ele>
        <time>2013-03-10T09:24:24Z</time>
      </trkpt>
      <trkpt lat="41.626311800" lon="2.505585300">
        <ele>378.40</ele>
        <time>2013-03-10T09:24:27Z</time>
      </trkpt>
      <trkpt lat="41.626376700" lon="2.505441600">
        <ele>380.80</ele>
        <time>2013-03-10T09:24:36Z</time>
      </trkpt>
      <trkpt lat="41.626445800" lon="2.505275800">
        <ele>381.80</ele>
        <time>2013-03-10T09:24:45Z</time>
      </trkpt>
      <trkpt lat="41.626451400" lon="2.505224300">
        <ele>381.80</ele>
        <time>2013-03-10T09:24:48Z</time>
      </trkpt>
      <trkpt lat="41.626441300" lon="2.505193300">
        <ele>382.30</ele>
        <time>2013-03-10T09:24:50Z</time>
      </trkpt>
      <trkpt lat="41.626373600" lon="2.505207000">
        <ele>383.70</ele>
        <time>2013-03-10T09:24:57Z</time>
      </trkpt>
      <trkpt lat="41.626312400" lon="2.505306800">
        <ele>385.10</ele>
        <time>2013-03-10T09:25:06Z</time>
      </trkpt>
      <trkpt lat="41.626204200" lon="2.505325700">
        <ele>387.10</ele>
        <time>2013-03-10T09:25:16Z</time>
      </trkpt>
      <trkpt lat="41.626092500" lon="2.505354200">
        <ele>388.00</ele>
        <time>2013-03-10T09:25:23Z</time>
      </trkpt>
      <trkpt lat="41.626015800" lon="2.505441900">
        <ele>388.50</ele>
        <time>2013-03-10T09:25:30Z</time>
      </trkpt>
      <trkpt lat="41.626019000" lon="2.505580000">
        <ele>389.50</ele>
        <time>2013-03-10T09:25:37Z</time>
      </trkpt>
      <trkpt lat="41.626083400" lon="2.505694300">
        <ele>390.40</ele>
        <time>2013-03-10T09:25:46Z</time>
      </trkpt>
      <trkpt lat="41.626119500" lon="2.505856300">
        <ele>392.80</ele>
        <time>2013-03-10T09:25:56Z</time>
      </trkpt>
      <trkpt lat="41.626125100" lon="2.505980200">
        <ele>393.80</ele>
        <time>2013-03-10T09:26:03Z</time>
      </trkpt>
      <trkpt lat="41.626120000" lon="2.506034700">
        <ele>394.80</ele>
        <time>2013-03-10T09:26:07Z</time>
      </trkpt>
      <trkpt lat="41.626065100" lon="2.506168700">
        <ele>395.70</ele>
        <time>2013-03-10T09:26:15Z</time>
      </trkpt>
      <trkpt lat="41.626056200" lon="2.506179500">
        <ele>395.70</ele>
        <time>2013-03-10T09:26:17Z</time>
      </trkpt>
      <trkpt lat="41.625981200" lon="2.506319100">
        <ele>396.20</ele>
        <time>2013-03-10T09:26:24Z</time>
      </trkpt>
      <trkpt lat="41.625944900" lon="2.506506700">
        <ele>396.70</ele>
        <time>2013-03-10T09:26:33Z</time>
      </trkpt>
      <trkpt lat="41.625947400" lon="2.506569400">
        <ele>397.60</ele>
        <time>2013-03-10T09:26:36Z</time>
      </trkpt>
      <trkpt lat="41.625956200" lon="2.506720900">
        <ele>398.10</ele>
        <time>2013-03-10T09:26:43Z</time>
      </trkpt>
      <trkpt lat="41.625949300" lon="2.506782200">
        <ele>399.10</ele>
        <time>2013-03-10T09:26:45Z</time>
      </trkpt>
      <trkpt lat="41.625925100" lon="2.506864300">
        <ele>400.00</ele>
        <time>2013-03-10T09:26:50Z</time>
      </trkpt>
      <trkpt lat="41.625854200" lon="2.506989600">
        <ele>401.50</ele>
        <time>2013-03-10T09:26:59Z</time>
      </trkpt>
      <trkpt lat="41.625785500" lon="2.507120800">
        <ele>402.90</ele>
        <time>2013-03-10T09:27:06Z</time>
      </trkpt>
      <trkpt lat="41.625767800" lon="2.507167800">
        <ele>403.40</ele>
        <time>2013-03-10T09:27:09Z</time>
      </trkpt>
      <trkpt lat="41.625721400" lon="2.507321700">
        <ele>404.40</ele>
        <time>2013-03-10T09:27:18Z</time>
      </trkpt>
      <trkpt lat="41.625709600" lon="2.507372000">
        <ele>404.40</ele>
        <time>2013-03-10T09:27:20Z</time>
      </trkpt>
      <trkpt lat="41.625618600" lon="2.507628900">
        <ele>406.30</ele>
        <time>2013-03-10T09:27:32Z</time>
      </trkpt>
      <trkpt lat="41.625522300" lon="2.507772400">
        <ele>408.70</ele>
        <time>2013-03-10T09:27:41Z</time>
      </trkpt>
      <trkpt lat="41.625498000" lon="2.507799500">
        <ele>409.20</ele>
        <time>2013-03-10T09:27:42Z</time>
      </trkpt>
      <trkpt lat="41.625441400" lon="2.507766500">
        <ele>410.10</ele>
        <time>2013-03-10T09:27:49Z</time>
      </trkpt>
      <trkpt lat="41.625452800" lon="2.507754300">
        <ele>409.70</ele>
        <time>2013-03-10T09:28:00Z</time>
      </trkpt>
      <trkpt lat="41.625442500" lon="2.507774500">
        <ele>410.10</ele>
        <time>2013-03-10T09:28:14Z</time>
      </trkpt>
      <trkpt lat="41.625438700" lon="2.507772300">
        <ele>409.70</ele>
        <time>2013-03-10T09:28:28Z</time>
      </trkpt>
      <trkpt lat="41.625427100" lon="2.507785400">
        <ele>409.70</ele>
        <time>2013-03-10T09:28:47Z</time>
      </trkpt>
      <trkpt lat="41.625431400" lon="2.507773900">
        <ele>409.70</ele>
        <time>2013-03-10T09:28:59Z</time>
      </trkpt>
      <trkpt lat="41.625432100" lon="2.507750100">
        <ele>409.20</ele>
        <time>2013-03-10T09:29:13Z</time>
      </trkpt>
      <trkpt lat="41.625431300" lon="2.507750500">
        <ele>409.70</ele>
        <time>2013-03-10T09:29:15Z</time>
      </trkpt>
      <trkpt lat="41.625438700" lon="2.507639000">
        <ele>409.70</ele>
        <time>2013-03-10T09:29:22Z</time>
      </trkpt>
      <trkpt lat="41.625436800" lon="2.507607900">
        <ele>410.60</ele>
        <time>2013-03-10T09:29:25Z</time>
      </trkpt>
      <trkpt lat="41.625411500" lon="2.507490600">
        <ele>410.10</ele>
        <time>2013-03-10T09:29:32Z</time>
      </trkpt>
      <trkpt lat="41.625397800" lon="2.507412900">
        <ele>410.10</ele>
        <time>2013-03-10T09:29:36Z</time>
      </trkpt>
      <trkpt lat="41.625348900" lon="2.507149200">
        <ele>411.10</ele>
        <time>2013-03-10T09:29:48Z</time>
      </trkpt>
      <trkpt lat="41.625283900" lon="2.506907300">
        <ele>411.60</ele>
        <time>2013-03-10T09:29:58Z</time>
      </trkpt>
      <trkpt lat="41.625252800" lon="2.506704500">
        <ele>413.00</ele>
        <time>2013-03-10T09:30:07Z</time>
      </trkpt>
      <trkpt lat="41.625251600" lon="2.506677200">
        <ele>413.00</ele>
        <time>2013-03-10T09:30:09Z</time>
      </trkpt>
      <trkpt lat="41.625237300" lon="2.506538600">
        <ele>414.00</ele>
        <time>2013-03-10T09:30:14Z</time>
      </trkpt>
      <trkpt lat="41.625234500" lon="2.506499100">
        <ele>414.50</ele>
        <time>2013-03-10T09:30:16Z</time>
      </trkpt>
      <trkpt lat="41.625254300" lon="2.506426600">
        <ele>415.90</ele>
        <time>2013-03-10T09:30:21Z</time>
      </trkpt>
      <trkpt lat="41.625285700" lon="2.506234800">
        <ele>417.40</ele>
        <time>2013-03-10T09:30:30Z</time>
      </trkpt>
      <trkpt lat="41.625255600" lon="2.506091100">
        <ele>418.30</ele>
        <time>2013-03-10T09:30:37Z</time>
      </trkpt>
      <trkpt lat="41.625238200" lon="2.506023100">
        <ele>418.30</ele>
        <time>2013-03-10T09:30:40Z</time>
      </trkpt>
      <trkpt lat="41.625231000" lon="2.505820500">
        <ele>419.30</ele>
        <time>2013-03-10T09:30:49Z</time>
      </trkpt>
      <trkpt lat="41.625230700" lon="2.505565800">
        <ele>419.30</ele>
        <time>2013-03-10T09:30:59Z</time>
      </trkpt>
      <trkpt lat="41.625169500" lon="2.505360700">
        <ele>419.30</ele>
        <time>2013-03-10T09:31:06Z</time>
      </trkpt>
      <trkpt lat="41.625093700" lon="2.505246700">
        <ele>421.20</ele>
        <time>2013-03-10T09:31:13Z</time>
      </trkpt>
      <trkpt lat="41.625067200" lon="2.505219800">
        <ele>421.20</ele>
        <time>2013-03-10T09:31:15Z</time>
      </trkpt>
      <trkpt lat="41.625016100" lon="2.505188500">
        <ele>422.60</ele>
        <time>2013-03-10T09:31:20Z</time>
      </trkpt>
      <trkpt lat="41.625010400" lon="2.505082000">
        <ele>422.20</ele>
        <time>2013-03-10T09:31:24Z</time>
      </trkpt>
      <trkpt lat="41.625031500" lon="2.505053700">
        <ele>422.20</ele>
        <time>2013-03-10T09:31:27Z</time>
      </trkpt>
      <trkpt lat="41.625164700" lon="2.504938700">
        <ele>422.20</ele>
        <time>2013-03-10T09:31:36Z</time>
      </trkpt>
      <trkpt lat="41.625260700" lon="2.504776100">
        <ele>423.10</ele>
        <time>2013-03-10T09:31:46Z</time>
      </trkpt>
      <trkpt lat="41.625345800" lon="2.504660400">
        <ele>424.60</ele>
        <time>2013-03-10T09:31:53Z</time>
      </trkpt>
      <trkpt lat="41.625396100" lon="2.504599900">
        <ele>426.00</ele>
        <time>2013-03-10T09:31:59Z</time>
      </trkpt>
      <trkpt lat="41.625446500" lon="2.504433300">
        <ele>426.00</ele>
        <time>2013-03-10T09:32:07Z</time>
      </trkpt>
      <trkpt lat="41.625465500" lon="2.504126400">
        <ele>425.00</ele>
        <time>2013-03-10T09:32:16Z</time>
      </trkpt>
      <trkpt lat="41.625411600" lon="2.503864500">
        <ele>425.50</ele>
        <time>2013-03-10T09:32:25Z</time>
      </trkpt>
      <trkpt lat="41.625357400" lon="2.503705200">
        <ele>426.50</ele>
        <time>2013-03-10T09:32:33Z</time>
      </trkpt>
      <trkpt lat="41.625356000" lon="2.503651500">
        <ele>426.50</ele>
        <time>2013-03-10T09:32:35Z</time>
      </trkpt>
      <trkpt lat="41.625403700" lon="2.503594000">
        <ele>427.00</ele>
        <time>2013-03-10T09:32:39Z</time>
      </trkpt>
      <trkpt lat="41.625576000" lon="2.503542000">
        <ele>428.40</ele>
        <time>2013-03-10T09:32:49Z</time>
      </trkpt>
      <trkpt lat="41.625699300" lon="2.503518400">
        <ele>429.40</ele>
        <time>2013-03-10T09:32:56Z</time>
      </trkpt>
      <trkpt lat="41.625837600" lon="2.503437900">
        <ele>430.80</ele>
        <time>2013-03-10T09:33:05Z</time>
      </trkpt>
      <trkpt lat="41.625923700" lon="2.503294900">
        <ele>430.80</ele>
        <time>2013-03-10T09:33:12Z</time>
      </trkpt>
      <trkpt lat="41.625998300" lon="2.503083200">
        <ele>430.30</ele>
        <time>2013-03-10T09:33:19Z</time>
      </trkpt>
      <trkpt lat="41.626083600" lon="2.502817700">
        <ele>429.90</ele>
        <time>2013-03-10T09:33:27Z</time>
      </trkpt>
      <trkpt lat="41.626053900" lon="2.502611500">
        <ele>429.90</ele>
        <time>2013-03-10T09:33:34Z</time>
      </trkpt>
      <trkpt lat="41.626059700" lon="2.502557600">
        <ele>429.90</ele>
        <time>2013-03-10T09:33:36Z</time>
      </trkpt>
      <trkpt lat="41.626149100" lon="2.502452800">
        <ele>430.30</ele>
        <time>2013-03-10T09:33:41Z</time>
      </trkpt>
      <trkpt lat="41.626314700" lon="2.502411100">
        <ele>431.80</ele>
        <time>2013-03-10T09:33:50Z</time>
      </trkpt>
      <trkpt lat="41.626487900" lon="2.502407000">
        <ele>432.20</ele>
        <time>2013-03-10T09:33:59Z</time>
      </trkpt>
      <trkpt lat="41.626650200" lon="2.502421800">
        <ele>435.10</ele>
        <time>2013-03-10T09:34:07Z</time>
      </trkpt>
      <trkpt lat="41.626782200" lon="2.502384700">
        <ele>437.50</ele>
        <time>2013-03-10T09:34:16Z</time>
      </trkpt>
      <trkpt lat="41.626853300" lon="2.502385100">
        <ele>438.50</ele>
        <time>2013-03-10T09:34:20Z</time>
      </trkpt>
      <trkpt lat="41.627032000" lon="2.502451600">
        <ele>439.90</ele>
        <time>2013-03-10T09:34:30Z</time>
      </trkpt>
      <trkpt lat="41.627160600" lon="2.502486600">
        <ele>439.50</ele>
        <time>2013-03-10T09:34:35Z</time>
      </trkpt>
      <trkpt lat="41.627323200" lon="2.502541900">
        <ele>438.50</ele>
        <time>2013-03-10T09:34:41Z</time>
      </trkpt>
      <trkpt lat="41.627449600" lon="2.502646700">
        <ele>438.00</ele>
        <time>2013-03-10T09:34:46Z</time>
      </trkpt>
      <trkpt lat="41.627506100" lon="2.502640700">
        <ele>438.50</ele>
        <time>2013-03-10T09:34:49Z</time>
      </trkpt>
      <trkpt lat="41.627588000" lon="2.502439200">
        <ele>439.50</ele>
        <time>2013-03-10T09:34:58Z</time>
      </trkpt>
      <trkpt lat="41.627596000" lon="2.502412100">
        <ele>439.50</ele>
        <time>2013-03-10T09:34:58Z</time>
      </trkpt>
      <trkpt lat="41.627678800" lon="2.502094500">
        <ele>439.90</ele>
        <time>2013-03-10T09:35:08Z</time>
      </trkpt>
      <trkpt lat="41.627725000" lon="2.501849600">
        <ele>439.50</ele>
        <time>2013-03-10T09:35:17Z</time>
      </trkpt>
      <trkpt lat="41.627747400" lon="2.501563200">
        <ele>439.00</ele>
        <time>2013-03-10T09:35:24Z</time>
      </trkpt>
      <trkpt lat="41.627815500" lon="2.501294000">
        <ele>438.50</ele>
        <time>2013-03-10T09:35:31Z</time>
      </trkpt>
      <trkpt lat="41.627823800" lon="2.501249100">
        <ele>438.00</ele>
        <time>2013-03-10T09:35:31Z</time>
      </trkpt>
      <trkpt lat="41.627737000" lon="2.501070500">
        <ele>436.60</ele>
        <time>2013-03-10T09:35:36Z</time>
      </trkpt>
      <trkpt lat="41.627689300" lon="2.501053600">
        <ele>436.10</ele>
        <time>2013-03-10T09:35:36Z</time>
      </trkpt>
      <trkpt lat="41.627491000" lon="2.500911600">
        <ele>435.10</ele>
        <time>2013-03-10T09:35:42Z</time>
      </trkpt>
      <trkpt lat="41.627444400" lon="2.500823400">
        <ele>435.10</ele>
        <time>2013-03-10T09:35:43Z</time>
      </trkpt>
      <trkpt lat="41.627410300" lon="2.500561400">
        <ele>433.20</ele>
        <time>2013-03-10T09:35:48Z</time>
      </trkpt>
      <trkpt lat="41.627436700" lon="2.500291600">
        <ele>432.70</ele>
        <time>2013-03-10T09:35:54Z</time>
      </trkpt>
      <trkpt lat="41.627364700" lon="2.500159500">
        <ele>432.20</ele>
        <time>2013-03-10T09:35:57Z</time>
      </trkpt>
      <trkpt lat="41.627288000" lon="2.500097500">
        <ele>431.80</ele>
        <time>2013-03-10T09:35:59Z</time>
      </trkpt>
      <trkpt lat="41.627000900" lon="2.499998700">
        <ele>430.80</ele>
        <time>2013-03-10T09:36:06Z</time>
      </trkpt>
      <trkpt lat="41.626799700" lon="2.499980700">
        <ele>430.80</ele>
        <time>2013-03-10T09:36:13Z</time>
      </trkpt>
      <trkpt lat="41.626776200" lon="2.499970300">
        <ele>430.80</ele>
        <time>2013-03-10T09:36:15Z</time>
      </trkpt>
      <trkpt lat="41.626727400" lon="2.499825100">
        <ele>430.30</ele>
        <time>2013-03-10T09:36:20Z</time>
      </trkpt>
      <trkpt lat="41.626730200" lon="2.499788900">
        <ele>430.30</ele>
        <time>2013-03-10T09:36:22Z</time>
      </trkpt>
      <trkpt lat="41.626773300" lon="2.499430400">
        <ele>429.90</ele>
        <time>2013-03-10T09:36:30Z</time>
      </trkpt>
      <trkpt lat="41.626780700" lon="2.499187100">
        <ele>429.40</ele>
        <time>2013-03-10T09:36:36Z</time>
      </trkpt>
      <trkpt lat="41.626688100" lon="2.498947800">
        <ele>428.90</ele>
        <time>2013-03-10T09:36:41Z</time>
      </trkpt>
      <trkpt lat="41.626600600" lon="2.498838400">
        <ele>428.40</ele>
        <time>2013-03-10T09:36:46Z</time>
      </trkpt>
      <trkpt lat="41.626646500" lon="2.498681700">
        <ele>427.40</ele>
        <time>2013-03-10T09:36:51Z</time>
      </trkpt>
      <trkpt lat="41.626684300" lon="2.498636700">
        <ele>427.90</ele>
        <time>2013-03-10T09:36:53Z</time>
      </trkpt>
      <trkpt lat="41.626839200" lon="2.498435000">
        <ele>429.40</ele>
        <time>2013-03-10T09:37:02Z</time>
      </trkpt>
      <trkpt lat="41.626976900" lon="2.498398300">
        <ele>429.90</ele>
        <time>2013-03-10T09:37:07Z</time>
      </trkpt>
      <trkpt lat="41.627159000" lon="2.498410600">
        <ele>429.90</ele>
        <time>2013-03-10T09:37:14Z</time>
      </trkpt>
      <trkpt lat="41.627241200" lon="2.498407300">
        <ele>429.90</ele>
        <time>2013-03-10T09:37:17Z</time>
      </trkpt>
      <trkpt lat="41.627281800" lon="2.498264900">
        <ele>429.90</ele>
        <time>2013-03-10T09:37:23Z</time>
      </trkpt>
      <trkpt lat="41.627140300" lon="2.498169500">
        <ele>428.90</ele>
        <time>2013-03-10T09:37:28Z</time>
      </trkpt>
      <trkpt lat="41.626857400" lon="2.498025700">
        <ele>428.90</ele>
        <time>2013-03-10T09:37:38Z</time>
      </trkpt>
      <trkpt lat="41.626649800" lon="2.497779800">
        <ele>429.40</ele>
        <time>2013-03-10T09:37:47Z</time>
      </trkpt>
      <trkpt lat="41.626560300" lon="2.497642000">
        <ele>428.40</ele>
        <time>2013-03-10T09:37:50Z</time>
      </trkpt>
      <trkpt lat="41.626590800" lon="2.497448700">
        <ele>428.90</ele>
        <time>2013-03-10T09:37:56Z</time>
      </trkpt>
      <trkpt lat="41.626594900" lon="2.497313900">
        <ele>428.40</ele>
        <time>2013-03-10T09:37:59Z</time>
      </trkpt>
      <trkpt lat="41.626533100" lon="2.497148000">
        <ele>429.40</ele>
        <time>2013-03-10T09:38:06Z</time>
      </trkpt>
      <trkpt lat="41.626520600" lon="2.497060500">
        <ele>429.90</ele>
        <time>2013-03-10T09:38:10Z</time>
      </trkpt>
      <trkpt lat="41.626524900" lon="2.496965200">
        <ele>430.80</ele>
        <time>2013-03-10T09:38:15Z</time>
      </trkpt>
      <trkpt lat="41.626555600" lon="2.496909700">
        <ele>430.80</ele>
        <time>2013-03-10T09:38:20Z</time>
      </trkpt>
      <trkpt lat="41.626478700" lon="2.496936200">
        <ele>432.20</ele>
        <time>2013-03-10T09:38:27Z</time>
      </trkpt>
      <trkpt lat="41.626448900" lon="2.496977900">
        <ele>433.20</ele>
        <time>2013-03-10T09:38:36Z</time>
      </trkpt>
      <trkpt lat="41.626447900" lon="2.496960500">
        <ele>433.70</ele>
        <time>2013-03-10T09:38:46Z</time>
      </trkpt>
      <trkpt lat="41.626417500" lon="2.496968100">
        <ele>433.20</ele>
        <time>2013-03-10T09:39:09Z</time>
      </trkpt>
      <trkpt lat="41.626421900" lon="2.496980100">
        <ele>433.70</ele>
        <time>2013-03-10T09:39:24Z</time>
      </trkpt>
      <trkpt lat="41.626425900" lon="2.496974200">
        <ele>433.70</ele>
        <time>2013-03-10T09:39:33Z</time>
      </trkpt>
      <trkpt lat="41.626419000" lon="2.496967800">
        <ele>433.70</ele>
        <time>2013-03-10T09:39:42Z</time>
      </trkpt>
      <trkpt lat="41.626402600" lon="2.496961000">
        <ele>434.20</ele>
        <time>2013-03-10T09:39:59Z</time>
      </trkpt>
      <trkpt lat="41.626426500" lon="2.496946900">
        <ele>434.20</ele>
        <time>2013-03-10T09:40:29Z</time>
      </trkpt>
      <trkpt lat="41.626421700" lon="2.496953100">
        <ele>434.20</ele>
        <time>2013-03-10T09:40:55Z</time>
      </trkpt>
      <trkpt lat="41.626413900" lon="2.497007200">
        <ele>434.20</ele>
        <time>2013-03-10T09:41:14Z</time>
      </trkpt>
      <trkpt lat="41.626429200" lon="2.496993700">
        <ele>434.20</ele>
        <time>2013-03-10T09:41:33Z</time>
      </trkpt>
      <trkpt lat="41.626415200" lon="2.497012100">
        <ele>434.20</ele>
        <time>2013-03-10T09:41:54Z</time>
      </trkpt>
      <trkpt lat="41.626385600" lon="2.496957000">
        <ele>434.60</ele>
        <time>2013-03-10T09:42:19Z</time>
      </trkpt>
      <trkpt lat="41.626395700" lon="2.496970200">
        <ele>434.60</ele>
        <time>2013-03-10T09:42:43Z</time>
      </trkpt>
      <trkpt lat="41.626421900" lon="2.496964100">
        <ele>434.60</ele>
        <time>2013-03-10T09:43:04Z</time>
      </trkpt>
      <trkpt lat="41.626406800" lon="2.496980200">
        <ele>434.60</ele>
        <time>2013-03-10T09:43:28Z</time>
      </trkpt>
      <trkpt lat="41.626422400" lon="2.496977800">
        <ele>434.60</ele>
        <time>2013-03-10T09:43:39Z</time>
      </trkpt>
      <trkpt lat="41.626434300" lon="2.496946000">
        <ele>435.10</ele>
        <time>2013-03-10T09:44:05Z</time>
      </trkpt>
      <trkpt lat="41.626429000" lon="2.496980300">
        <ele>435.10</ele>
        <time>2013-03-10T09:44:26Z</time>
      </trkpt>
      <trkpt lat="41.626469500" lon="2.496979600">
        <ele>435.60</ele>
        <time>2013-03-10T09:44:50Z</time>
      </trkpt>
      <trkpt lat="41.626464000" lon="2.496959000">
        <ele>435.60</ele>
        <time>2013-03-10T09:45:16Z</time>
      </trkpt>
      <trkpt lat="41.626460400" lon="2.496947400">
        <ele>436.10</ele>
        <time>2013-03-10T09:45:37Z</time>
      </trkpt>
      <trkpt lat="41.626470800" lon="2.496947500">
        <ele>435.60</ele>
        <time>2013-03-10T09:45:55Z</time>
      </trkpt>
      <trkpt lat="41.626425000" lon="2.496916500">
        <ele>435.60</ele>
        <time>2013-03-10T09:46:14Z</time>
      </trkpt>
      <trkpt lat="41.626408300" lon="2.496968200">
        <ele>435.60</ele>
        <time>2013-03-10T09:46:36Z</time>
      </trkpt>
      <trkpt lat="41.626417700" lon="2.496961500">
        <ele>436.10</ele>
        <time>2013-03-10T09:46:50Z</time>
      </trkpt>
      <trkpt lat="41.626423500" lon="2.496963200">
        <ele>436.10</ele>
        <time>2013-03-10T09:47:13Z</time>
      </trkpt>
      <trkpt lat="41.626449300" lon="2.496953000">
        <ele>436.10</ele>
        <time>2013-03-10T09:47:34Z</time>
      </trkpt>
      <trkpt lat="41.626418800" lon="2.496947600">
        <ele>435.60</ele>
        <time>2013-03-10T09:48:00Z</time>
      </trkpt>
      <trkpt lat="41.626453300" lon="2.496928900">
        <ele>435.60</ele>
        <time>2013-03-10T09:48:21Z</time>
      </trkpt>
      <trkpt lat="41.626416800" lon="2.496947600">
        <ele>436.10</ele>
        <time>2013-03-10T09:48:40Z</time>
      </trkpt>
      <trkpt lat="41.626408600" lon="2.496983500">
        <ele>436.10</ele>
        <time>2013-03-10T09:48:58Z</time>
      </trkpt>
      <trkpt lat="41.626419300" lon="2.496940200">
        <ele>436.10</ele>
        <time>2013-03-10T09:49:17Z</time>
      </trkpt>
      <trkpt lat="41.626394500" lon="2.496960500">
        <ele>436.10</ele>
        <time>2013-03-10T09:49:41Z</time>
      </trkpt>
      <trkpt lat="41.626388900" lon="2.496967000">
        <ele>435.60</ele>
        <time>2013-03-10T09:50:00Z</time>
      </trkpt>
      <trkpt lat="41.626403000" lon="2.496948600">
        <ele>435.60</ele>
        <time>2013-03-10T09:50:16Z</time>
      </trkpt>
      <trkpt lat="41.626402900" lon="2.496976000">
        <ele>435.60</ele>
        <time>2013-03-10T09:50:51Z</time>
      </trkpt>
      <trkpt lat="41.626431300" lon="2.496975600">
        <ele>435.60</ele>
        <time>2013-03-10T09:51:29Z</time>
      </trkpt>
      <trkpt lat="41.626420800" lon="2.496987400">
        <ele>436.10</ele>
        <time>2013-03-10T09:51:48Z</time>
      </trkpt>
      <trkpt lat="41.626424800" lon="2.496971300">
        <ele>435.60</ele>
        <time>2013-03-10T09:52:07Z</time>
      </trkpt>
      <trkpt lat="41.626435400" lon="2.496966600">
        <ele>435.60</ele>
        <time>2013-03-10T09:52:23Z</time>
      </trkpt>
      <trkpt lat="41.626437800" lon="2.496948600">
        <ele>435.10</ele>
        <time>2013-03-10T09:52:30Z</time>
      </trkpt>
      <trkpt lat="41.626540900" lon="2.496833100">
        <ele>433.20</ele>
        <time>2013-03-10T09:52:37Z</time>
      </trkpt>
      <trkpt lat="41.626658600" lon="2.496570400">
        <ele>433.20</ele>
        <time>2013-03-10T09:52:46Z</time>
      </trkpt>
      <trkpt lat="41.626747300" lon="2.496391200">
        <ele>433.20</ele>
        <time>2013-03-10T09:52:51Z</time>
      </trkpt>
      <trkpt lat="41.626781700" lon="2.496330000">
        <ele>433.70</ele>
        <time>2013-03-10T09:52:53Z</time>
      </trkpt>
      <trkpt lat="41.626787400" lon="2.496113500">
        <ele>434.20</ele>
        <time>2013-03-10T09:53:00Z</time>
      </trkpt>
      <trkpt lat="41.626648900" lon="2.495951500">
        <ele>434.60</ele>
        <time>2013-03-10T09:53:08Z</time>
      </trkpt>
      <trkpt lat="41.626447900" lon="2.495885800">
        <ele>434.60</ele>
        <time>2013-03-10T09:53:17Z</time>
      </trkpt>
      <trkpt lat="41.626327100" lon="2.495909000">
        <ele>434.20</ele>
        <time>2013-03-10T09:53:21Z</time>
      </trkpt>
      <trkpt lat="41.626241300" lon="2.495806800">
        <ele>433.20</ele>
        <time>2013-03-10T09:53:26Z</time>
      </trkpt>
      <trkpt lat="41.626237200" lon="2.495776300">
        <ele>433.20</ele>
        <time>2013-03-10T09:53:26Z</time>
      </trkpt>
      <trkpt lat="41.626254000" lon="2.495588600">
        <ele>434.60</ele>
        <time>2013-03-10T09:53:33Z</time>
      </trkpt>
      <trkpt lat="41.626353000" lon="2.495383800">
        <ele>434.20</ele>
        <time>2013-03-10T09:53:40Z</time>
      </trkpt>
      <trkpt lat="41.626459500" lon="2.495219400">
        <ele>435.10</ele>
        <time>2013-03-10T09:53:47Z</time>
      </trkpt>
      <trkpt lat="41.626566100" lon="2.494987000">
        <ele>434.60</ele>
        <time>2013-03-10T09:53:54Z</time>
      </trkpt>
      <trkpt lat="41.626686700" lon="2.494772700">
        <ele>434.20</ele>
        <time>2013-03-10T09:54:01Z</time>
      </trkpt>
      <trkpt lat="41.626741800" lon="2.494540400">
        <ele>434.20</ele>
        <time>2013-03-10T09:54:06Z</time>
      </trkpt>
      <trkpt lat="41.626720300" lon="2.494283300">
        <ele>434.60</ele>
        <time>2013-03-10T09:54:13Z</time>
      </trkpt>
      <trkpt lat="41.626735700" lon="2.494203200">
        <ele>435.10</ele>
        <time>2013-03-10T09:54:16Z</time>
      </trkpt>
      <trkpt lat="41.626798700" lon="2.494131100">
        <ele>435.10</ele>
        <time>2013-03-10T09:54:20Z</time>
      </trkpt>
      <trkpt lat="41.626960100" lon="2.493869100">
        <ele>436.60</ele>
        <time>2013-03-10T09:54:30Z</time>
      </trkpt>
      <trkpt lat="41.627017600" lon="2.493581200">
        <ele>437.50</ele>
        <time>2013-03-10T09:54:39Z</time>
      </trkpt>
      <trkpt lat="41.626961200" lon="2.493339100">
        <ele>438.00</ele>
        <time>2013-03-10T09:54:46Z</time>
      </trkpt>
      <trkpt lat="41.626793400" lon="2.493249000">
        <ele>438.50</ele>
        <time>2013-03-10T09:54:53Z</time>
      </trkpt>
      <trkpt lat="41.626592800" lon="2.493278000">
        <ele>439.90</ele>
        <time>2013-03-10T09:55:02Z</time>
      </trkpt>
      <trkpt lat="41.626451600" lon="2.493352300">
        <ele>440.90</ele>
        <time>2013-03-10T09:55:07Z</time>
      </trkpt>
      <trkpt lat="41.626279000" lon="2.493434600">
        <ele>442.30</ele>
        <time>2013-03-10T09:55:16Z</time>
      </trkpt>
      <trkpt lat="41.626116100" lon="2.493459400">
        <ele>442.80</ele>
        <time>2013-03-10T09:55:23Z</time>
      </trkpt>
      <trkpt lat="41.625948400" lon="2.493400500">
        <ele>443.80</ele>
        <time>2013-03-10T09:55:31Z</time>
      </trkpt>
      <trkpt lat="41.625810700" lon="2.493325200">
        <ele>444.80</ele>
        <time>2013-03-10T09:55:38Z</time>
      </trkpt>
      <trkpt lat="41.625777500" lon="2.493192800">
        <ele>445.20</ele>
        <time>2013-03-10T09:55:42Z</time>
      </trkpt>
      <trkpt lat="41.625847400" lon="2.493026200">
        <ele>446.20</ele>
        <time>2013-03-10T09:55:50Z</time>
      </trkpt>
      <trkpt lat="41.625860900" lon="2.492858800">
        <ele>445.70</ele>
        <time>2013-03-10T09:55:56Z</time>
      </trkpt>
      <trkpt lat="41.625812400" lon="2.492620100">
        <ele>444.30</ele>
        <time>2013-03-10T09:56:01Z</time>
      </trkpt>
      <trkpt lat="41.625932100" lon="2.492524600">
        <ele>444.30</ele>
        <time>2013-03-10T09:56:08Z</time>
      </trkpt>
      <trkpt lat="41.626079800" lon="2.492424800">
        <ele>445.70</ele>
        <time>2013-03-10T09:56:15Z</time>
      </trkpt>
      <trkpt lat="41.626174200" lon="2.492177300">
        <ele>447.10</ele>
        <time>2013-03-10T09:56:22Z</time>
      </trkpt>
      <trkpt lat="41.626221700" lon="2.491940200">
        <ele>448.10</ele>
        <time>2013-03-10T09:56:29Z</time>
      </trkpt>
      <trkpt lat="41.626377700" lon="2.491730700">
        <ele>449.10</ele>
        <time>2013-03-10T09:56:39Z</time>
      </trkpt>
      <trkpt lat="41.626538800" lon="2.491647200">
        <ele>450.00</ele>
        <time>2013-03-10T09:56:46Z</time>
      </trkpt>
      <trkpt lat="41.626588500" lon="2.491440200">
        <ele>451.00</ele>
        <time>2013-03-10T09:56:53Z</time>
      </trkpt>
      <trkpt lat="41.626537200" lon="2.491343400">
        <ele>452.00</ele>
        <time>2013-03-10T09:56:58Z</time>
      </trkpt>
      <trkpt lat="41.626527100" lon="2.491324500">
        <ele>452.00</ele>
        <time>2013-03-10T09:57:00Z</time>
      </trkpt>
      <trkpt lat="41.626448000" lon="2.491150300">
        <ele>453.90</ele>
        <time>2013-03-10T09:57:09Z</time>
      </trkpt>
      <trkpt lat="41.626360300" lon="2.491068100">
        <ele>455.80</ele>
        <time>2013-03-10T09:57:16Z</time>
      </trkpt>
      <trkpt lat="41.626234900" lon="2.490983700">
        <ele>457.70</ele>
        <time>2013-03-10T09:57:24Z</time>
      </trkpt>
      <trkpt lat="41.626171200" lon="2.490908100">
        <ele>457.70</ele>
        <time>2013-03-10T09:57:30Z</time>
      </trkpt>
      <trkpt lat="41.626171700" lon="2.490894900">
        <ele>457.70</ele>
        <time>2013-03-10T09:57:31Z</time>
      </trkpt>
      <trkpt lat="41.626300500" lon="2.490735200">
        <ele>456.80</ele>
        <time>2013-03-10T09:57:40Z</time>
      </trkpt>
      <trkpt lat="41.626529700" lon="2.490667400">
        <ele>454.80</ele>
        <time>2013-03-10T09:57:45Z</time>
      </trkpt>
      <trkpt lat="41.626746500" lon="2.490625500">
        <ele>452.90</ele>
        <time>2013-03-10T09:57:52Z</time>
      </trkpt>
      <trkpt lat="41.626774300" lon="2.490593900">
        <ele>452.40</ele>
        <time>2013-03-10T09:57:52Z</time>
      </trkpt>
      <trkpt lat="41.626798800" lon="2.490424200">
        <ele>451.50</ele>
        <time>2013-03-10T09:57:56Z</time>
      </trkpt>
      <trkpt lat="41.626794900" lon="2.490215500">
        <ele>452.00</ele>
        <time>2013-03-10T09:58:03Z</time>
      </trkpt>
      <trkpt lat="41.626833100" lon="2.490052700">
        <ele>453.40</ele>
        <time>2013-03-10T09:58:08Z</time>
      </trkpt>
      <trkpt lat="41.626830500" lon="2.490001100">
        <ele>454.40</ele>
        <time>2013-03-10T09:58:10Z</time>
      </trkpt>
      <trkpt lat="41.626887100" lon="2.489783100">
        <ele>454.40</ele>
        <time>2013-03-10T09:58:18Z</time>
      </trkpt>
      <trkpt lat="41.627025700" lon="2.489799300">
        <ele>453.90</ele>
        <time>2013-03-10T09:58:24Z</time>
      </trkpt>
      <trkpt lat="41.627057000" lon="2.489862200">
        <ele>453.40</ele>
        <time>2013-03-10T09:58:25Z</time>
      </trkpt>
      <trkpt lat="41.627088000" lon="2.489944600">
        <ele>453.90</ele>
        <time>2013-03-10T09:58:27Z</time>
      </trkpt>
      <trkpt lat="41.627201600" lon="2.489954800">
        <ele>452.40</ele>
        <time>2013-03-10T09:58:31Z</time>
      </trkpt>
      <trkpt lat="41.627228500" lon="2.489798200">
        <ele>451.50</ele>
        <time>2013-03-10T09:58:34Z</time>
      </trkpt>
      <trkpt lat="41.627207200" lon="2.489554700">
        <ele>451.00</ele>
        <time>2013-03-10T09:58:39Z</time>
      </trkpt>
      <trkpt lat="41.627147400" lon="2.489157100">
        <ele>449.50</ele>
        <time>2013-03-10T09:58:46Z</time>
      </trkpt>
      <trkpt lat="41.627258200" lon="2.489066100">
        <ele>450.00</ele>
        <time>2013-03-10T09:58:50Z</time>
      </trkpt>
      <trkpt lat="41.627341200" lon="2.489044500">
        <ele>450.50</ele>
        <time>2013-03-10T09:58:53Z</time>
      </trkpt>
      <trkpt lat="41.627476100" lon="2.488813600">
        <ele>450.50</ele>
        <time>2013-03-10T09:59:00Z</time>
      </trkpt>
      <trkpt lat="41.627554400" lon="2.488600300">
        <ele>451.50</ele>
        <time>2013-03-10T09:59:07Z</time>
      </trkpt>
      <trkpt lat="41.627603400" lon="2.488433700">
        <ele>453.40</ele>
        <time>2013-03-10T09:59:14Z</time>
      </trkpt>
      <trkpt lat="41.627633100" lon="2.488283900">
        <ele>454.80</ele>
        <time>2013-03-10T09:59:21Z</time>
      </trkpt>
      <trkpt lat="41.627635600" lon="2.488264200">
        <ele>454.80</ele>
        <time>2013-03-10T09:59:21Z</time>
      </trkpt>
      <trkpt lat="41.627676500" lon="2.488107000">
        <ele>456.30</ele>
        <time>2013-03-10T09:59:28Z</time>
      </trkpt>
      <trkpt lat="41.627778800" lon="2.487916800">
        <ele>456.30</ele>
        <time>2013-03-10T09:59:37Z</time>
      </trkpt>
      <trkpt lat="41.627821400" lon="2.487797400">
        <ele>455.80</ele>
        <time>2013-03-10T09:59:42Z</time>
      </trkpt>
      <trkpt lat="41.627878300" lon="2.487788900">
        <ele>455.30</ele>
        <time>2013-03-10T09:59:44Z</time>
      </trkpt>
      <trkpt lat="41.627940800" lon="2.487854000">
        <ele>455.80</ele>
        <time>2013-03-10T09:59:49Z</time>
      </trkpt>
      <trkpt lat="41.628107000" lon="2.488132600">
        <ele>456.80</ele>
        <time>2013-03-10T10:00:00Z</time>
      </trkpt>
      <trkpt lat="41.628252400" lon="2.488182800">
        <ele>457.20</ele>
        <time>2013-03-10T10:00:06Z</time>
      </trkpt>
      <trkpt lat="41.628375300" lon="2.488275700">
        <ele>457.20</ele>
        <time>2013-03-10T10:00:12Z</time>
      </trkpt>
      <trkpt lat="41.628371400" lon="2.488470700">
        <ele>458.20</ele>
        <time>2013-03-10T10:00:19Z</time>
      </trkpt>
      <trkpt lat="41.628400200" lon="2.488669100">
        <ele>459.60</ele>
        <time>2013-03-10T10:00:26Z</time>
      </trkpt>
      <trkpt lat="41.628540300" lon="2.488783900">
        <ele>461.60</ele>
        <time>2013-03-10T10:00:34Z</time>
      </trkpt>
      <trkpt lat="41.628674000" lon="2.488863000">
        <ele>463.50</ele>
        <time>2013-03-10T10:00:41Z</time>
      </trkpt>
      <trkpt lat="41.628711400" lon="2.488954300">
        <ele>464.00</ele>
        <time>2013-03-10T10:00:47Z</time>
      </trkpt>
      <trkpt lat="41.628667300" lon="2.489114400">
        <ele>464.90</ele>
        <time>2013-03-10T10:00:54Z</time>
      </trkpt>
      <trkpt lat="41.628638100" lon="2.489235700">
        <ele>465.40</ele>
        <time>2013-03-10T10:00:59Z</time>
      </trkpt>
      <trkpt lat="41.628664600" lon="2.489481300">
        <ele>464.00</ele>
        <time>2013-03-10T10:01:06Z</time>
      </trkpt>
      <trkpt lat="41.628672000" lon="2.489516700">
        <ele>463.50</ele>
        <time>2013-03-10T10:01:13Z</time>
      </trkpt>
      <trkpt lat="41.628675300" lon="2.489523700">
        <ele>464.00</ele>
        <time>2013-03-10T10:01:28Z</time>
      </trkpt>
      <trkpt lat="41.628675200" lon="2.489556500">
        <ele>464.00</ele>
        <time>2013-03-10T10:01:37Z</time>
      </trkpt>
      <trkpt lat="41.628717200" lon="2.489685400">
        <ele>462.00</ele>
        <time>2013-03-10T10:01:42Z</time>
      </trkpt>
      <trkpt lat="41.628819500" lon="2.489882200">
        <ele>460.10</ele>
        <time>2013-03-10T10:01:49Z</time>
      </trkpt>
      <trkpt lat="41.628865200" lon="2.489954300">
        <ele>459.60</ele>
        <time>2013-03-10T10:01:51Z</time>
      </trkpt>
      <trkpt lat="41.628860200" lon="2.490169400">
        <ele>455.80</ele>
        <time>2013-03-10T10:01:58Z</time>
      </trkpt>
      <trkpt lat="41.628850800" lon="2.490246800">
        <ele>454.80</ele>
        <time>2013-03-10T10:02:00Z</time>
      </trkpt>
      <trkpt lat="41.628799900" lon="2.490467800">
        <ele>451.50</ele>
        <time>2013-03-10T10:02:05Z</time>
      </trkpt>
      <trkpt lat="41.628765000" lon="2.490680400">
        <ele>448.60</ele>
        <time>2013-03-10T10:02:10Z</time>
      </trkpt>
      <trkpt lat="41.628771400" lon="2.490765200">
        <ele>447.60</ele>
        <time>2013-03-10T10:02:12Z</time>
      </trkpt>
      <trkpt lat="41.628906800" lon="2.491119400">
        <ele>443.30</ele>
        <time>2013-03-10T10:02:19Z</time>
      </trkpt>
      <trkpt lat="41.628945500" lon="2.491163400">
        <ele>442.80</ele>
        <time>2013-03-10T10:02:19Z</time>
      </trkpt>
      <trkpt lat="41.629213700" lon="2.491348700">
        <ele>439.90</ele>
        <time>2013-03-10T10:02:26Z</time>
      </trkpt>
      <trkpt lat="41.629379800" lon="2.491578200">
        <ele>436.10</ele>
        <time>2013-03-10T10:02:31Z</time>
      </trkpt>
      <trkpt lat="41.629410200" lon="2.491782500">
        <ele>433.20</ele>
        <time>2013-03-10T10:02:33Z</time>
      </trkpt>
      <trkpt lat="41.629407800" lon="2.492104200">
        <ele>427.90</ele>
        <time>2013-03-10T10:02:38Z</time>
      </trkpt>
      <trkpt lat="41.629421700" lon="2.492300200">
        <ele>424.60</ele>
        <time>2013-03-10T10:02:43Z</time>
      </trkpt>
      <trkpt lat="41.629458000" lon="2.492432600">
        <ele>421.20</ele>
        <time>2013-03-10T10:02:47Z</time>
      </trkpt>
      <trkpt lat="41.629476500" lon="2.492492600">
        <ele>420.70</ele>
        <time>2013-03-10T10:02:48Z</time>
      </trkpt>
      <trkpt lat="41.629554300" lon="2.492674900">
        <ele>417.40</ele>
        <time>2013-03-10T10:02:54Z</time>
      </trkpt>
      <trkpt lat="41.629572500" lon="2.492711300">
        <ele>417.40</ele>
        <time>2013-03-10T10:02:55Z</time>
      </trkpt>
      <trkpt lat="41.629613600" lon="2.492772700">
        <ele>416.90</ele>
        <time>2013-03-10T10:02:57Z</time>
      </trkpt>
      <trkpt lat="41.629729100" lon="2.492773900">
        <ele>415.00</ele>
        <time>2013-03-10T10:03:01Z</time>
      </trkpt>
      <trkpt lat="41.629751800" lon="2.492756300">
        <ele>414.50</ele>
        <time>2013-03-10T10:03:02Z</time>
      </trkpt>
      <trkpt lat="41.629986000" lon="2.492633000">
        <ele>411.10</ele>
        <time>2013-03-10T10:03:11Z</time>
      </trkpt>
      <trkpt lat="41.630044700" lon="2.492610900">
        <ele>410.10</ele>
        <time>2013-03-10T10:03:13Z</time>
      </trkpt>
      <trkpt lat="41.630069200" lon="2.492588200">
        <ele>409.70</ele>
        <time>2013-03-10T10:03:13Z</time>
      </trkpt>
      <trkpt lat="41.630218000" lon="2.492542200">
        <ele>407.70</ele>
        <time>2013-03-10T10:03:18Z</time>
      </trkpt>
      <trkpt lat="41.630296700" lon="2.492642400">
        <ele>407.70</ele>
        <time>2013-03-10T10:03:20Z</time>
      </trkpt>
      <trkpt lat="41.630463100" lon="2.492959800">
        <ele>406.80</ele>
        <time>2013-03-10T10:03:29Z</time>
      </trkpt>
      <trkpt lat="41.630542500" lon="2.493013700">
        <ele>406.30</ele>
        <time>2013-03-10T10:03:32Z</time>
      </trkpt>
      <trkpt lat="41.630656900" lon="2.492851100">
        <ele>404.90</ele>
        <time>2013-03-10T10:03:37Z</time>
      </trkpt>
      <trkpt lat="41.630662800" lon="2.492811800">
        <ele>404.90</ele>
        <time>2013-03-10T10:03:39Z</time>
      </trkpt>
      <trkpt lat="41.630681000" lon="2.492525800">
        <ele>403.40</ele>
        <time>2013-03-10T10:03:44Z</time>
      </trkpt>
      <trkpt lat="41.630780400" lon="2.492311800">
        <ele>401.50</ele>
        <time>2013-03-10T10:03:49Z</time>
      </trkpt>
      <trkpt lat="41.630873600" lon="2.492380200">
        <ele>401.50</ele>
        <time>2013-03-10T10:03:55Z</time>
      </trkpt>
      <trkpt lat="41.630897900" lon="2.492437700">
        <ele>401.50</ele>
        <time>2013-03-10T10:03:56Z</time>
      </trkpt>
      <trkpt lat="41.631042500" lon="2.492607700">
        <ele>400.50</ele>
        <time>2013-03-10T10:04:02Z</time>
      </trkpt>
      <trkpt lat="41.631083500" lon="2.492682900">
        <ele>400.00</ele>
        <time>2013-03-10T10:04:05Z</time>
      </trkpt>
      <trkpt lat="41.631142800" lon="2.492911700">
        <ele>397.60</ele>
        <time>2013-03-10T10:04:09Z</time>
      </trkpt>
      <trkpt lat="41.631159800" lon="2.493051600">
        <ele>396.20</ele>
        <time>2013-03-10T10:04:10Z</time>
      </trkpt>
      <trkpt lat="41.631237100" lon="2.493297700">
        <ele>395.20</ele>
        <time>2013-03-10T10:04:14Z</time>
      </trkpt>
      <trkpt lat="41.631362800" lon="2.493486300">
        <ele>393.80</ele>
        <time>2013-03-10T10:04:17Z</time>
      </trkpt>
      <trkpt lat="41.631525200" lon="2.493854200">
        <ele>391.40</ele>
        <time>2013-03-10T10:04:23Z</time>
      </trkpt>
      <trkpt lat="41.631730400" lon="2.494161500">
        <ele>387.50</ele>
        <time>2013-03-10T10:04:28Z</time>
      </trkpt>
      <trkpt lat="41.631843700" lon="2.494296200">
        <ele>385.10</ele>
        <time>2013-03-10T10:04:31Z</time>
      </trkpt>
      <trkpt lat="41.631921100" lon="2.494421100">
        <ele>383.70</ele>
        <time>2013-03-10T10:04:33Z</time>
      </trkpt>
      <trkpt lat="41.632010700" lon="2.494633800">
        <ele>381.80</ele>
        <time>2013-03-10T10:04:36Z</time>
      </trkpt>
      <trkpt lat="41.632138400" lon="2.494756600">
        <ele>381.30</ele>
        <time>2013-03-10T10:04:40Z</time>
      </trkpt>
      <trkpt lat="41.632215600" lon="2.494721900">
        <ele>381.30</ele>
        <time>2013-03-10T10:04:42Z</time>
      </trkpt>
      <trkpt lat="41.632291500" lon="2.494665000">
        <ele>380.80</ele>
        <time>2013-03-10T10:04:45Z</time>
      </trkpt>
      <trkpt lat="41.632378200" lon="2.494604100">
        <ele>380.30</ele>
        <time>2013-03-10T10:04:47Z</time>
      </trkpt>
      <trkpt lat="41.632568800" lon="2.494611300">
        <ele>378.90</ele>
        <time>2013-03-10T10:04:52Z</time>
      </trkpt>
      <trkpt lat="41.632641600" lon="2.494752900">
        <ele>379.40</ele>
        <time>2013-03-10T10:04:56Z</time>
      </trkpt>
      <trkpt lat="41.632663800" lon="2.494846600">
        <ele>379.40</ele>
        <time>2013-03-10T10:04:57Z</time>
      </trkpt>
      <trkpt lat="41.632714800" lon="2.495286100">
        <ele>377.90</ele>
        <time>2013-03-10T10:05:06Z</time>
      </trkpt>
      <trkpt lat="41.632744900" lon="2.495580300">
        <ele>377.50</ele>
        <time>2013-03-10T10:05:13Z</time>
      </trkpt>
      <trkpt lat="41.632755800" lon="2.495801700">
        <ele>377.00</ele>
        <time>2013-03-10T10:05:17Z</time>
      </trkpt>
      <trkpt lat="41.632643700" lon="2.496104400">
        <ele>376.00</ele>
        <time>2013-03-10T10:05:24Z</time>
      </trkpt>
      <trkpt lat="41.632528600" lon="2.496295800">
        <ele>375.50</ele>
        <time>2013-03-10T10:05:29Z</time>
      </trkpt>
      <trkpt lat="41.632509500" lon="2.496499300">
        <ele>374.60</ele>
        <time>2013-03-10T10:05:32Z</time>
      </trkpt>
      <trkpt lat="41.632529800" lon="2.496663000">
        <ele>373.60</ele>
        <time>2013-03-10T10:05:36Z</time>
      </trkpt>
      <trkpt lat="41.632498400" lon="2.496881400">
        <ele>373.10</ele>
        <time>2013-03-10T10:05:39Z</time>
      </trkpt>
      <trkpt lat="41.632382700" lon="2.497157900">
        <ele>372.20</ele>
        <time>2013-03-10T10:05:46Z</time>
      </trkpt>
      <trkpt lat="41.632382000" lon="2.497424100">
        <ele>371.70</ele>
        <time>2013-03-10T10:05:50Z</time>
      </trkpt>
      <trkpt lat="41.632513700" lon="2.497539100">
        <ele>371.20</ele>
        <time>2013-03-10T10:05:55Z</time>
      </trkpt>
      <trkpt lat="41.632690900" lon="2.497537500">
        <ele>370.20</ele>
        <time>2013-03-10T10:05:58Z</time>
      </trkpt>
      <trkpt lat="41.632827600" lon="2.497530800">
        <ele>370.20</ele>
        <time>2013-03-10T10:06:02Z</time>
      </trkpt>
      <trkpt lat="41.632986400" lon="2.497427200">
        <ele>369.30</ele>
        <time>2013-03-10T10:06:05Z</time>
      </trkpt>
      <trkpt lat="41.633130200" lon="2.497144200">
        <ele>367.80</ele>
        <time>2013-03-10T10:06:11Z</time>
      </trkpt>
      <trkpt lat="41.633279800" lon="2.496955800">
        <ele>366.40</ele>
        <time>2013-03-10T10:06:14Z</time>
      </trkpt>
      <trkpt lat="41.633456200" lon="2.496792300">
        <ele>364.00</ele>
        <time>2013-03-10T10:06:19Z</time>
      </trkpt>
      <trkpt lat="41.633562800" lon="2.496866900">
        <ele>362.10</ele>
        <time>2013-03-10T10:06:23Z</time>
      </trkpt>
      <trkpt lat="41.633624900" lon="2.496988500">
        <ele>360.10</ele>
        <time>2013-03-10T10:06:26Z</time>
      </trkpt>
      <trkpt lat="41.633728300" lon="2.497191100">
        <ele>356.80</ele>
        <time>2013-03-10T10:06:30Z</time>
      </trkpt>
      <trkpt lat="41.633777400" lon="2.497452100">
        <ele>352.50</ele>
        <time>2013-03-10T10:06:37Z</time>
      </trkpt>
      <trkpt lat="41.633797500" lon="2.497510600">
        <ele>351.00</ele>
        <time>2013-03-10T10:06:38Z</time>
      </trkpt>
      <trkpt lat="41.633836100" lon="2.497550500">
        <ele>349.60</ele>
        <time>2013-03-10T10:06:40Z</time>
      </trkpt>
      <trkpt lat="41.633883500" lon="2.497567800">
        <ele>350.50</ele>
        <time>2013-03-10T10:06:42Z</time>
      </trkpt>
      <trkpt lat="41.634003200" lon="2.497614400">
        <ele>352.00</ele>
        <time>2013-03-10T10:06:51Z</time>
      </trkpt>
      <trkpt lat="41.634144000" lon="2.497633400">
        <ele>352.90</ele>
        <time>2013-03-10T10:06:59Z</time>
      </trkpt>
      <trkpt lat="41.634281700" lon="2.497659200">
        <ele>353.40</ele>
        <time>2013-03-10T10:07:06Z</time>
      </trkpt>
      <trkpt lat="41.634401500" lon="2.497684700">
        <ele>355.30</ele>
        <time>2013-03-10T10:07:15Z</time>
      </trkpt>
      <trkpt lat="41.634536600" lon="2.497709300">
        <ele>355.80</ele>
        <time>2013-03-10T10:07:22Z</time>
      </trkpt>
      <trkpt lat="41.634642800" lon="2.497754000">
        <ele>356.80</ele>
        <time>2013-03-10T10:07:29Z</time>
      </trkpt>
      <trkpt lat="41.634761000" lon="2.497787400">
        <ele>358.70</ele>
        <time>2013-03-10T10:07:38Z</time>
      </trkpt>
      <trkpt lat="41.634849900" lon="2.497810000">
        <ele>359.70</ele>
        <time>2013-03-10T10:07:46Z</time>
      </trkpt>
      <trkpt lat="41.634977900" lon="2.497839400">
        <ele>361.10</ele>
        <time>2013-03-10T10:07:55Z</time>
      </trkpt>
      <trkpt lat="41.635078800" lon="2.497829500">
        <ele>362.50</ele>
        <time>2013-03-10T10:08:02Z</time>
      </trkpt>
      <trkpt lat="41.635210300" lon="2.497832500">
        <ele>364.00</ele>
        <time>2013-03-10T10:08:11Z</time>
      </trkpt>
      <trkpt lat="41.635326500" lon="2.497853400">
        <ele>365.40</ele>
        <time>2013-03-10T10:08:21Z</time>
      </trkpt>
      <trkpt lat="41.635371700" lon="2.497895100">
        <ele>365.90</ele>
        <time>2013-03-10T10:08:25Z</time>
      </trkpt>
      <trkpt lat="41.635460100" lon="2.497987500">
        <ele>367.80</ele>
        <time>2013-03-10T10:08:33Z</time>
      </trkpt>
      <trkpt lat="41.635541900" lon="2.498048400">
        <ele>369.30</ele>
        <time>2013-03-10T10:08:40Z</time>
      </trkpt>
      <trkpt lat="41.635591200" lon="2.498056600">
        <ele>369.30</ele>
        <time>2013-03-10T10:08:44Z</time>
      </trkpt>
      <trkpt lat="41.635712900" lon="2.498059500">
        <ele>371.20</ele>
        <time>2013-03-10T10:08:54Z</time>
      </trkpt>
      <trkpt lat="41.635841000" lon="2.498062200">
        <ele>372.60</ele>
        <time>2013-03-10T10:09:03Z</time>
      </trkpt>
      <trkpt lat="41.635952100" lon="2.498065900">
        <ele>373.10</ele>
        <time>2013-03-10T10:09:12Z</time>
      </trkpt>
      <trkpt lat="41.636089300" lon="2.498060200">
        <ele>375.00</ele>
        <time>2013-03-10T10:09:22Z</time>
      </trkpt>
      <trkpt lat="41.636186500" lon="2.498010800">
        <ele>376.00</ele>
        <time>2013-03-10T10:09:29Z</time>
      </trkpt>
      <trkpt lat="41.636268400" lon="2.497898000">
        <ele>377.50</ele>
        <time>2013-03-10T10:09:38Z</time>
      </trkpt>
      <trkpt lat="41.636292500" lon="2.497795600">
        <ele>378.90</ele>
        <time>2013-03-10T10:09:45Z</time>
      </trkpt>
      <trkpt lat="41.636307500" lon="2.497616600">
        <ele>379.40</ele>
        <time>2013-03-10T10:09:55Z</time>
      </trkpt>
      <trkpt lat="41.636323700" lon="2.497416700">
        <ele>381.30</ele>
        <time>2013-03-10T10:10:04Z</time>
      </trkpt>
      <trkpt lat="41.636337400" lon="2.497243300">
        <ele>381.80</ele>
        <time>2013-03-10T10:10:13Z</time>
      </trkpt>
      <trkpt lat="41.636328300" lon="2.497107300">
        <ele>384.20</ele>
        <time>2013-03-10T10:10:21Z</time>
      </trkpt>
      <trkpt lat="41.636312800" lon="2.496963400">
        <ele>385.10</ele>
        <time>2013-03-10T10:10:30Z</time>
      </trkpt>
      <trkpt lat="41.636271300" lon="2.496818600">
        <ele>385.60</ele>
        <time>2013-03-10T10:10:37Z</time>
      </trkpt>
      <trkpt lat="41.636218500" lon="2.496615700">
        <ele>387.10</ele>
        <time>2013-03-10T10:10:48Z</time>
      </trkpt>
      <trkpt lat="41.636190500" lon="2.496475300">
        <ele>388.00</ele>
        <time>2013-03-10T10:10:56Z</time>
      </trkpt>
      <trkpt lat="41.636166300" lon="2.496315100">
        <ele>388.00</ele>
        <time>2013-03-10T10:11:03Z</time>
      </trkpt>
      <trkpt lat="41.636095900" lon="2.496126200">
        <ele>389.00</ele>
        <time>2013-03-10T10:11:14Z</time>
      </trkpt>
      <trkpt lat="41.636025500" lon="2.495979000">
        <ele>389.00</ele>
        <time>2013-03-10T10:11:21Z</time>
      </trkpt>
      <trkpt lat="41.635907100" lon="2.495793200">
        <ele>389.00</ele>
        <time>2013-03-10T10:11:29Z</time>
      </trkpt>
      <trkpt lat="41.635836600" lon="2.495654800">
        <ele>389.00</ele>
        <time>2013-03-10T10:11:36Z</time>
      </trkpt>
      <trkpt lat="41.635814900" lon="2.495400700">
        <ele>390.40</ele>
        <time>2013-03-10T10:11:47Z</time>
      </trkpt>
      <trkpt lat="41.635818600" lon="2.495149700">
        <ele>391.40</ele>
        <time>2013-03-10T10:11:57Z</time>
      </trkpt>
      <trkpt lat="41.635880200" lon="2.495016900">
        <ele>392.40</ele>
        <time>2013-03-10T10:12:06Z</time>
      </trkpt>
      <trkpt lat="41.635887400" lon="2.494999400">
        <ele>392.80</ele>
        <time>2013-03-10T10:12:06Z</time>
      </trkpt>
      <trkpt lat="41.635924300" lon="2.494909000">
        <ele>394.80</ele>
        <time>2013-03-10T10:12:16Z</time>
      </trkpt>
      <trkpt lat="41.635944500" lon="2.494831000">
        <ele>396.20</ele>
        <time>2013-03-10T10:12:22Z</time>
      </trkpt>
      <trkpt lat="41.635963100" lon="2.494779900">
        <ele>397.20</ele>
        <time>2013-03-10T10:12:25Z</time>
      </trkpt>
      <trkpt lat="41.636029600" lon="2.494682400">
        <ele>398.60</ele>
        <time>2013-03-10T10:12:34Z</time>
      </trkpt>
      <trkpt lat="41.636084400" lon="2.494559300">
        <ele>400.00</ele>
        <time>2013-03-10T10:12:41Z</time>
      </trkpt>
      <trkpt lat="41.636108800" lon="2.494506200">
        <ele>401.00</ele>
        <time>2013-03-10T10:12:46Z</time>
      </trkpt>
      <trkpt lat="41.636146500" lon="2.494420700">
        <ele>401.50</ele>
        <time>2013-03-10T10:12:51Z</time>
      </trkpt>
      <trkpt lat="41.636168600" lon="2.494361700">
        <ele>402.50</ele>
        <time>2013-03-10T10:12:55Z</time>
      </trkpt>
      <trkpt lat="41.636211300" lon="2.494240100">
        <ele>404.90</ele>
        <time>2013-03-10T10:13:05Z</time>
      </trkpt>
      <trkpt lat="41.636244500" lon="2.494131300">
        <ele>405.30</ele>
        <time>2013-03-10T10:13:12Z</time>
      </trkpt>
      <trkpt lat="41.636240600" lon="2.494082100">
        <ele>405.80</ele>
        <time>2013-03-10T10:13:16Z</time>
      </trkpt>
      <trkpt lat="41.636221200" lon="2.494052900">
        <ele>405.80</ele>
        <time>2013-03-10T10:13:19Z</time>
      </trkpt>
      <trkpt lat="41.636174500" lon="2.493983700">
        <ele>406.30</ele>
        <time>2013-03-10T10:13:26Z</time>
      </trkpt>
      <trkpt lat="41.636167900" lon="2.493972600">
        <ele>406.30</ele>
        <time>2013-03-10T10:13:26Z</time>
      </trkpt>
      <trkpt lat="41.636121100" lon="2.493900800">
        <ele>408.20</ele>
        <time>2013-03-10T10:13:33Z</time>
      </trkpt>
      <trkpt lat="41.636067500" lon="2.493763200">
        <ele>410.10</ele>
        <time>2013-03-10T10:13:43Z</time>
      </trkpt>
      <trkpt lat="41.635977000" lon="2.493678900">
        <ele>411.10</ele>
        <time>2013-03-10T10:13:52Z</time>
      </trkpt>
      <trkpt lat="41.635964600" lon="2.493669300">
        <ele>411.10</ele>
        <time>2013-03-10T10:13:54Z</time>
      </trkpt>
      <trkpt lat="41.635912400" lon="2.493616800">
        <ele>411.10</ele>
        <time>2013-03-10T10:13:59Z</time>
      </trkpt>
      <trkpt lat="41.635841700" lon="2.493537900">
        <ele>412.50</ele>
        <time>2013-03-10T10:14:06Z</time>
      </trkpt>
      <trkpt lat="41.635791900" lon="2.493548600">
        <ele>414.00</ele>
        <time>2013-03-10T10:14:11Z</time>
      </trkpt>
      <trkpt lat="41.635771200" lon="2.493600700">
        <ele>414.50</ele>
        <time>2013-03-10T10:14:15Z</time>
      </trkpt>
      <trkpt lat="41.635798200" lon="2.493662000">
        <ele>415.00</ele>
        <time>2013-03-10T10:14:18Z</time>
      </trkpt>
      <trkpt lat="41.635838800" lon="2.493739600">
        <ele>416.40</ele>
        <time>2013-03-10T10:14:25Z</time>
      </trkpt>
      <trkpt lat="41.635844300" lon="2.493875100">
        <ele>417.80</ele>
        <time>2013-03-10T10:14:34Z</time>
      </trkpt>
      <trkpt lat="41.635819600" lon="2.493947900">
        <ele>417.80</ele>
        <time>2013-03-10T10:14:39Z</time>
      </trkpt>
      <trkpt lat="41.635805400" lon="2.494017600">
        <ele>418.80</ele>
        <time>2013-03-10T10:14:44Z</time>
      </trkpt>
      <trkpt lat="41.635768200" lon="2.494124400">
        <ele>420.20</ele>
        <time>2013-03-10T10:14:53Z</time>
      </trkpt>
      <trkpt lat="41.635726100" lon="2.494239700">
        <ele>420.70</ele>
        <time>2013-03-10T10:15:00Z</time>
      </trkpt>
      <trkpt lat="41.635702400" lon="2.494264500">
        <ele>421.70</ele>
        <time>2013-03-10T10:15:04Z</time>
      </trkpt>
      <trkpt lat="41.635621800" lon="2.494327100">
        <ele>423.60</ele>
        <time>2013-03-10T10:15:12Z</time>
      </trkpt>
      <trkpt lat="41.635490800" lon="2.494350700">
        <ele>426.50</ele>
        <time>2013-03-10T10:15:23Z</time>
      </trkpt>
      <trkpt lat="41.635461000" lon="2.494346200">
        <ele>425.50</ele>
        <time>2013-03-10T10:15:26Z</time>
      </trkpt>
      <trkpt lat="41.635350200" lon="2.494399500">
        <ele>426.50</ele>
        <time>2013-03-10T10:15:35Z</time>
      </trkpt>
      <trkpt lat="41.635247500" lon="2.494476100">
        <ele>427.90</ele>
        <time>2013-03-10T10:15:44Z</time>
      </trkpt>
      <trkpt lat="41.635156600" lon="2.494493700">
        <ele>428.90</ele>
        <time>2013-03-10T10:15:52Z</time>
      </trkpt>
      <trkpt lat="41.635059700" lon="2.494446100">
        <ele>429.90</ele>
        <time>2013-03-10T10:15:59Z</time>
      </trkpt>
      <trkpt lat="41.635040200" lon="2.494437500">
        <ele>430.30</ele>
        <time>2013-03-10T10:16:01Z</time>
      </trkpt>
      <trkpt lat="41.634936600" lon="2.494423000">
        <ele>432.20</ele>
        <time>2013-03-10T10:16:10Z</time>
      </trkpt>
      <trkpt lat="41.634829600" lon="2.494434700">
        <ele>433.20</ele>
        <time>2013-03-10T10:16:20Z</time>
      </trkpt>
      <trkpt lat="41.634755200" lon="2.494441600">
        <ele>435.10</ele>
        <time>2013-03-10T10:16:25Z</time>
      </trkpt>
      <trkpt lat="41.634725600" lon="2.494461200">
        <ele>435.60</ele>
        <time>2013-03-10T10:16:29Z</time>
      </trkpt>
      <trkpt lat="41.634675900" lon="2.494494400">
        <ele>436.10</ele>
        <time>2013-03-10T10:16:32Z</time>
      </trkpt>
      <trkpt lat="41.634607800" lon="2.494653500">
        <ele>437.50</ele>
        <time>2013-03-10T10:16:43Z</time>
      </trkpt>
      <trkpt lat="41.634603400" lon="2.494778900">
        <ele>438.50</ele>
        <time>2013-03-10T10:16:52Z</time>
      </trkpt>
      <trkpt lat="41.634573400" lon="2.494896300">
        <ele>439.50</ele>
        <time>2013-03-10T10:17:00Z</time>
      </trkpt>
      <trkpt lat="41.634552200" lon="2.494923300">
        <ele>439.50</ele>
        <time>2013-03-10T10:17:02Z</time>
      </trkpt>
      <trkpt lat="41.634474800" lon="2.494904000">
        <ele>441.40</ele>
        <time>2013-03-10T10:17:11Z</time>
      </trkpt>
      <trkpt lat="41.634449200" lon="2.494813800">
        <ele>442.30</ele>
        <time>2013-03-10T10:17:18Z</time>
      </trkpt>
      <trkpt lat="41.634436700" lon="2.494788400">
        <ele>442.80</ele>
        <time>2013-03-10T10:17:21Z</time>
      </trkpt>
      <trkpt lat="41.634379800" lon="2.494683900">
        <ele>444.30</ele>
        <time>2013-03-10T10:17:30Z</time>
      </trkpt>
      <trkpt lat="41.634351900" lon="2.494648000">
        <ele>444.80</ele>
        <time>2013-03-10T10:17:33Z</time>
      </trkpt>
      <trkpt lat="41.634316900" lon="2.494593600">
        <ele>445.70</ele>
        <time>2013-03-10T10:17:39Z</time>
      </trkpt>
      <trkpt lat="41.634213200" lon="2.494591100">
        <ele>449.10</ele>
        <time>2013-03-10T10:17:47Z</time>
      </trkpt>
      <trkpt lat="41.634193900" lon="2.494573500">
        <ele>449.50</ele>
        <time>2013-03-10T10:17:51Z</time>
      </trkpt>
      <trkpt lat="41.634166500" lon="2.494518900">
        <ele>449.50</ele>
        <time>2013-03-10T10:17:54Z</time>
      </trkpt>
      <trkpt lat="41.634147000" lon="2.494465300">
        <ele>450.50</ele>
        <time>2013-03-10T10:17:58Z</time>
      </trkpt>
      <trkpt lat="41.634138700" lon="2.494328700">
        <ele>452.00</ele>
        <time>2013-03-10T10:18:08Z</time>
      </trkpt>
      <trkpt lat="41.634144500" lon="2.494185100">
        <ele>454.40</ele>
        <time>2013-03-10T10:18:19Z</time>
      </trkpt>
      <trkpt lat="41.634160900" lon="2.494092700">
        <ele>456.30</ele>
        <time>2013-03-10T10:18:26Z</time>
      </trkpt>
      <trkpt lat="41.634190400" lon="2.493980300">
        <ele>458.20</ele>
        <time>2013-03-10T10:18:34Z</time>
      </trkpt>
      <trkpt lat="41.634186400" lon="2.493907500">
        <ele>458.70</ele>
        <time>2013-03-10T10:18:40Z</time>
      </trkpt>
      <trkpt lat="41.634159900" lon="2.493797600">
        <ele>460.60</ele>
        <time>2013-03-10T10:18:48Z</time>
      </trkpt>
      <trkpt lat="41.634139700" lon="2.493716300">
        <ele>461.10</ele>
        <time>2013-03-10T10:18:55Z</time>
      </trkpt>
      <trkpt lat="41.634096700" lon="2.493567700">
        <ele>461.60</ele>
        <time>2013-03-10T10:19:04Z</time>
      </trkpt>
      <trkpt lat="41.634052700" lon="2.493459800">
        <ele>462.50</ele>
        <time>2013-03-10T10:19:13Z</time>
      </trkpt>
      <trkpt lat="41.633994200" lon="2.493332900">
        <ele>463.50</ele>
        <time>2013-03-10T10:19:21Z</time>
      </trkpt>
      <trkpt lat="41.633956900" lon="2.493216200">
        <ele>464.90</ele>
        <time>2013-03-10T10:19:30Z</time>
      </trkpt>
      <trkpt lat="41.633917600" lon="2.493110500">
        <ele>465.40</ele>
        <time>2013-03-10T10:19:37Z</time>
      </trkpt>
      <trkpt lat="41.633874100" lon="2.492978200">
        <ele>466.90</ele>
        <time>2013-03-10T10:19:46Z</time>
      </trkpt>
      <trkpt lat="41.633809000" lon="2.492887600">
        <ele>467.30</ele>
        <time>2013-03-10T10:19:53Z</time>
      </trkpt>
      <trkpt lat="41.633732000" lon="2.492804200">
        <ele>468.30</ele>
        <time>2013-03-10T10:20:00Z</time>
      </trkpt>
      <trkpt lat="41.633692100" lon="2.492746000">
        <ele>468.80</ele>
        <time>2013-03-10T10:20:05Z</time>
      </trkpt>
      <trkpt lat="41.633703200" lon="2.492669900">
        <ele>470.20</ele>
        <time>2013-03-10T10:20:10Z</time>
      </trkpt>
      <trkpt lat="41.633817600" lon="2.492705800">
        <ele>472.10</ele>
        <time>2013-03-10T10:20:21Z</time>
      </trkpt>
      <trkpt lat="41.633826100" lon="2.492713000">
        <ele>472.10</ele>
        <time>2013-03-10T10:20:22Z</time>
      </trkpt>
      <trkpt lat="41.633911200" lon="2.492753600">
        <ele>472.60</ele>
        <time>2013-03-10T10:20:29Z</time>
      </trkpt>
      <trkpt lat="41.634003500" lon="2.492827800">
        <ele>474.10</ele>
        <time>2013-03-10T10:20:38Z</time>
      </trkpt>
      <trkpt lat="41.634020000" lon="2.492853400">
        <ele>473.60</ele>
        <time>2013-03-10T10:20:40Z</time>
      </trkpt>
      <trkpt lat="41.634111200" lon="2.492994900">
        <ele>474.50</ele>
        <time>2013-03-10T10:20:50Z</time>
      </trkpt>
      <trkpt lat="41.634158200" lon="2.493049400">
        <ele>475.00</ele>
        <time>2013-03-10T10:20:55Z</time>
      </trkpt>
      <trkpt lat="41.634270700" lon="2.493025200">
        <ele>477.00</ele>
        <time>2013-03-10T10:21:06Z</time>
      </trkpt>
      <trkpt lat="41.634283000" lon="2.492957300">
        <ele>478.40</ele>
        <time>2013-03-10T10:21:11Z</time>
      </trkpt>
      <trkpt lat="41.634263500" lon="2.492894700">
        <ele>478.90</ele>
        <time>2013-03-10T10:21:16Z</time>
      </trkpt>
      <trkpt lat="41.634239200" lon="2.492829700">
        <ele>479.40</ele>
        <time>2013-03-10T10:21:20Z</time>
      </trkpt>
      <trkpt lat="41.634221400" lon="2.492743900">
        <ele>479.80</ele>
        <time>2013-03-10T10:21:25Z</time>
      </trkpt>
      <trkpt lat="41.634145900" lon="2.492594200">
        <ele>480.80</ele>
        <time>2013-03-10T10:21:36Z</time>
      </trkpt>
      <trkpt lat="41.634056900" lon="2.492468900">
        <ele>480.30</ele>
        <time>2013-03-10T10:21:42Z</time>
      </trkpt>
      <trkpt lat="41.633959000" lon="2.492357100">
        <ele>481.30</ele>
        <time>2013-03-10T10:21:51Z</time>
      </trkpt>
      <trkpt lat="41.633904100" lon="2.492291900">
        <ele>482.20</ele>
        <time>2013-03-10T10:22:00Z</time>
      </trkpt>
      <trkpt lat="41.633886800" lon="2.492266000">
        <ele>482.20</ele>
        <time>2013-03-10T10:22:02Z</time>
      </trkpt>
      <trkpt lat="41.633858800" lon="2.492221000">
        <ele>481.80</ele>
        <time>2013-03-10T10:22:07Z</time>
      </trkpt>
      <trkpt lat="41.633797800" lon="2.492111000">
        <ele>481.80</ele>
        <time>2013-03-10T10:22:14Z</time>
      </trkpt>
      <trkpt lat="41.633766900" lon="2.492003000">
        <ele>481.80</ele>
        <time>2013-03-10T10:22:21Z</time>
      </trkpt>
      <trkpt lat="41.633733700" lon="2.491853700">
        <ele>481.80</ele>
        <time>2013-03-10T10:22:30Z</time>
      </trkpt>
      <trkpt lat="41.633691100" lon="2.491708500">
        <ele>482.20</ele>
        <time>2013-03-10T10:22:38Z</time>
      </trkpt>
      <trkpt lat="41.633682800" lon="2.491654500">
        <ele>482.20</ele>
        <time>2013-03-10T10:22:40Z</time>
      </trkpt>
      <trkpt lat="41.633602500" lon="2.491501200">
        <ele>483.70</ele>
        <time>2013-03-10T10:22:52Z</time>
      </trkpt>
      <trkpt lat="41.633520000" lon="2.491405700">
        <ele>484.20</ele>
        <time>2013-03-10T10:22:59Z</time>
      </trkpt>
      <trkpt lat="41.633337700" lon="2.491208800">
        <ele>482.70</ele>
        <time>2013-03-10T10:23:08Z</time>
      </trkpt>
      <trkpt lat="41.633289700" lon="2.491131900">
        <ele>482.20</ele>
        <time>2013-03-10T10:23:10Z</time>
      </trkpt>
      <trkpt lat="41.633099800" lon="2.490913200">
        <ele>481.80</ele>
        <time>2013-03-10T10:23:17Z</time>
      </trkpt>
      <trkpt lat="41.632986900" lon="2.490798200">
        <ele>482.20</ele>
        <time>2013-03-10T10:23:24Z</time>
      </trkpt>
      <trkpt lat="41.632927500" lon="2.490707600">
        <ele>483.20</ele>
        <time>2013-03-10T10:23:30Z</time>
      </trkpt>
      <trkpt lat="41.632854400" lon="2.490677800">
        <ele>485.10</ele>
        <time>2013-03-10T10:23:36Z</time>
      </trkpt>
      <trkpt lat="41.632793200" lon="2.490752500">
        <ele>486.60</ele>
        <time>2013-03-10T10:23:44Z</time>
      </trkpt>
      <trkpt lat="41.632784600" lon="2.490762200">
        <ele>486.60</ele>
        <time>2013-03-10T10:23:46Z</time>
      </trkpt>
      <trkpt lat="41.632735900" lon="2.490785700">
        <ele>488.00</ele>
        <time>2013-03-10T10:23:50Z</time>
      </trkpt>
      <trkpt lat="41.632696800" lon="2.490794000">
        <ele>488.50</ele>
        <time>2013-03-10T10:23:55Z</time>
      </trkpt>
      <trkpt lat="41.632669400" lon="2.490773600">
        <ele>489.50</ele>
        <time>2013-03-10T10:23:58Z</time>
      </trkpt>
      <trkpt lat="41.632654100" lon="2.490669900">
        <ele>491.40</ele>
        <time>2013-03-10T10:24:07Z</time>
      </trkpt>
      <trkpt lat="41.632662000" lon="2.490653700">
        <ele>491.90</ele>
        <time>2013-03-10T10:24:09Z</time>
      </trkpt>
      <trkpt lat="41.632677600" lon="2.490551700">
        <ele>492.80</ele>
        <time>2013-03-10T10:24:16Z</time>
      </trkpt>
      <trkpt lat="41.632662300" lon="2.490501400">
        <ele>493.80</ele>
        <time>2013-03-10T10:24:19Z</time>
      </trkpt>
      <trkpt lat="41.632603800" lon="2.490393100">
        <ele>495.70</ele>
        <time>2013-03-10T10:24:28Z</time>
      </trkpt>
      <trkpt lat="41.632571900" lon="2.490317000">
        <ele>497.10</ele>
        <time>2013-03-10T10:24:35Z</time>
      </trkpt>
      <trkpt lat="41.632605600" lon="2.490194300">
        <ele>498.60</ele>
        <time>2013-03-10T10:24:45Z</time>
      </trkpt>
      <trkpt lat="41.632643100" lon="2.490066800">
        <ele>501.50</ele>
        <time>2013-03-10T10:24:54Z</time>
      </trkpt>
      <trkpt lat="41.632642200" lon="2.490055400">
        <ele>501.50</ele>
        <time>2013-03-10T10:24:56Z</time>
      </trkpt>
      <trkpt lat="41.632596600" lon="2.489907600">
        <ele>502.90</ele>
        <time>2013-03-10T10:25:06Z</time>
      </trkpt>
      <trkpt lat="41.632603600" lon="2.489788500">
        <ele>504.40</ele>
        <time>2013-03-10T10:25:15Z</time>
      </trkpt>
      <trkpt lat="41.632640900" lon="2.489665200">
        <ele>505.80</ele>
        <time>2013-03-10T10:25:24Z</time>
      </trkpt>
      <trkpt lat="41.632679500" lon="2.489571800">
        <ele>507.70</ele>
        <time>2013-03-10T10:25:32Z</time>
      </trkpt>
      <trkpt lat="41.632751500" lon="2.489506300">
        <ele>510.60</ele>
        <time>2013-03-10T10:25:43Z</time>
      </trkpt>
      <trkpt lat="41.632840200" lon="2.489530400">
        <ele>513.00</ele>
        <time>2013-03-10T10:25:53Z</time>
      </trkpt>
      <trkpt lat="41.632911900" lon="2.489544900">
        <ele>514.00</ele>
        <time>2013-03-10T10:26:00Z</time>
      </trkpt>
      <trkpt lat="41.632996600" lon="2.489582200">
        <ele>515.90</ele>
        <time>2013-03-10T10:26:09Z</time>
      </trkpt>
      <trkpt lat="41.633081100" lon="2.489631000">
        <ele>516.80</ele>
        <time>2013-03-10T10:26:18Z</time>
      </trkpt>
      <trkpt lat="41.633152600" lon="2.489645700">
        <ele>517.30</ele>
        <time>2013-03-10T10:26:25Z</time>
      </trkpt>
      <trkpt lat="41.633230300" lon="2.489645000">
        <ele>518.30</ele>
        <time>2013-03-10T10:26:33Z</time>
      </trkpt>
      <trkpt lat="41.633301100" lon="2.489646700">
        <ele>520.20</ele>
        <time>2013-03-10T10:26:40Z</time>
      </trkpt>
      <trkpt lat="41.633403600" lon="2.489660100">
        <ele>522.60</ele>
        <time>2013-03-10T10:26:51Z</time>
      </trkpt>
      <trkpt lat="41.633510400" lon="2.489668500">
        <ele>524.10</ele>
        <time>2013-03-10T10:27:00Z</time>
      </trkpt>
      <trkpt lat="41.633580300" lon="2.489626100">
        <ele>525.50</ele>
        <time>2013-03-10T10:27:06Z</time>
      </trkpt>
      <trkpt lat="41.633613400" lon="2.489511400">
        <ele>526.50</ele>
        <time>2013-03-10T10:27:17Z</time>
      </trkpt>
      <trkpt lat="41.633609900" lon="2.489499800">
        <ele>526.90</ele>
        <time>2013-03-10T10:27:17Z</time>
      </trkpt>
      <trkpt lat="41.633589600" lon="2.489389300">
        <ele>527.90</ele>
        <time>2013-03-10T10:27:26Z</time>
      </trkpt>
      <trkpt lat="41.633591200" lon="2.489233400">
        <ele>528.40</ele>
        <time>2013-03-10T10:27:34Z</time>
      </trkpt>
      <trkpt lat="41.633593800" lon="2.489093500">
        <ele>528.90</ele>
        <time>2013-03-10T10:27:43Z</time>
      </trkpt>
      <trkpt lat="41.633579900" lon="2.488909700">
        <ele>528.40</ele>
        <time>2013-03-10T10:27:52Z</time>
      </trkpt>
      <trkpt lat="41.633587900" lon="2.488888200">
        <ele>527.90</ele>
        <time>2013-03-10T10:27:57Z</time>
      </trkpt>
      <trkpt lat="41.633595300" lon="2.488888100">
        <ele>527.90</ele>
        <time>2013-03-10T10:28:13Z</time>
      </trkpt>
      <trkpt lat="41.633585800" lon="2.488900300">
        <ele>528.40</ele>
        <time>2013-03-10T10:28:32Z</time>
      </trkpt>
      <trkpt lat="41.633582800" lon="2.488881300">
        <ele>527.40</ele>
        <time>2013-03-10T10:28:51Z</time>
      </trkpt>
      <trkpt lat="41.633597000" lon="2.488894500">
        <ele>527.90</ele>
        <time>2013-03-10T10:29:10Z</time>
      </trkpt>
      <trkpt lat="41.633606500" lon="2.488877700">
        <ele>528.40</ele>
        <time>2013-03-10T10:29:24Z</time>
      </trkpt>
      <trkpt lat="41.633612500" lon="2.488871900">
        <ele>528.90</ele>
        <time>2013-03-10T10:29:38Z</time>
      </trkpt>
      <trkpt lat="41.633612900" lon="2.488882100">
        <ele>528.40</ele>
        <time>2013-03-10T10:29:50Z</time>
      </trkpt>
      <trkpt lat="41.633605900" lon="2.488859200">
        <ele>527.90</ele>
        <time>2013-03-10T10:29:54Z</time>
      </trkpt>
      <trkpt lat="41.633571500" lon="2.488727100">
        <ele>528.40</ele>
        <time>2013-03-10T10:30:01Z</time>
      </trkpt>
      <trkpt lat="41.633511900" lon="2.488575400">
        <ele>528.40</ele>
        <time>2013-03-10T10:30:09Z</time>
      </trkpt>
      <trkpt lat="41.633398700" lon="2.488388100">
        <ele>528.90</ele>
        <time>2013-03-10T10:30:20Z</time>
      </trkpt>
      <trkpt lat="41.633346200" lon="2.488273100">
        <ele>529.80</ele>
        <time>2013-03-10T10:30:27Z</time>
      </trkpt>
      <trkpt lat="41.633269700" lon="2.488149300">
        <ele>530.30</ele>
        <time>2013-03-10T10:30:37Z</time>
      </trkpt>
      <trkpt lat="41.633201200" lon="2.487960100">
        <ele>531.30</ele>
        <time>2013-03-10T10:30:48Z</time>
      </trkpt>
      <trkpt lat="41.633195400" lon="2.487927200">
        <ele>531.30</ele>
        <time>2013-03-10T10:30:51Z</time>
      </trkpt>
      <trkpt lat="41.633160600" lon="2.487861500">
        <ele>532.20</ele>
        <time>2013-03-10T10:31:00Z</time>
      </trkpt>
      <trkpt lat="41.633137400" lon="2.487800800">
        <ele>533.20</ele>
        <time>2013-03-10T10:31:07Z</time>
      </trkpt>
      <trkpt lat="41.633098600" lon="2.487716500">
        <ele>534.60</ele>
        <time>2013-03-10T10:31:17Z</time>
      </trkpt>
      <trkpt lat="41.633077300" lon="2.487691100">
        <ele>535.10</ele>
        <time>2013-03-10T10:31:23Z</time>
      </trkpt>
      <trkpt lat="41.633064100" lon="2.487679500">
        <ele>535.60</ele>
        <time>2013-03-10T10:31:24Z</time>
      </trkpt>
      <trkpt lat="41.633022100" lon="2.487575200">
        <ele>536.10</ele>
        <time>2013-03-10T10:31:31Z</time>
      </trkpt>
      <trkpt lat="41.632958800" lon="2.487460700">
        <ele>538.00</ele>
        <time>2013-03-10T10:31:40Z</time>
      </trkpt>
      <trkpt lat="41.632954400" lon="2.487446700">
        <ele>538.00</ele>
        <time>2013-03-10T10:31:40Z</time>
      </trkpt>
      <trkpt lat="41.632956000" lon="2.487419800">
        <ele>538.50</ele>
        <time>2013-03-10T10:31:42Z</time>
      </trkpt>
      <trkpt lat="41.632972200" lon="2.487347000">
        <ele>539.00</ele>
        <time>2013-03-10T10:31:47Z</time>
      </trkpt>
      <trkpt lat="41.632939400" lon="2.487239900">
        <ele>539.90</ele>
        <time>2013-03-10T10:31:56Z</time>
      </trkpt>
      <trkpt lat="41.632897100" lon="2.487083100">
        <ele>541.80</ele>
        <time>2013-03-10T10:32:04Z</time>
      </trkpt>
      <trkpt lat="41.632842100" lon="2.486967800">
        <ele>543.30</ele>
        <time>2013-03-10T10:32:13Z</time>
      </trkpt>
      <trkpt lat="41.632784500" lon="2.486877000">
        <ele>545.20</ele>
        <time>2013-03-10T10:32:22Z</time>
      </trkpt>
      <trkpt lat="41.632779000" lon="2.486863700">
        <ele>545.20</ele>
        <time>2013-03-10T10:32:22Z</time>
      </trkpt>
      <trkpt lat="41.632668500" lon="2.486771900">
        <ele>547.10</ele>
        <time>2013-03-10T10:32:34Z</time>
      </trkpt>
      <trkpt lat="41.632594600" lon="2.486693600">
        <ele>547.60</ele>
        <time>2013-03-10T10:32:41Z</time>
      </trkpt>
      <trkpt lat="41.632558400" lon="2.486663900">
        <ele>548.60</ele>
        <time>2013-03-10T10:32:46Z</time>
      </trkpt>
      <trkpt lat="41.632518700" lon="2.486567500">
        <ele>549.50</ele>
        <time>2013-03-10T10:32:53Z</time>
      </trkpt>
      <trkpt lat="41.632508000" lon="2.486532200">
        <ele>550.00</ele>
        <time>2013-03-10T10:33:00Z</time>
      </trkpt>
      <trkpt lat="41.632494100" lon="2.486481900">
        <ele>550.00</ele>
        <time>2013-03-10T10:33:09Z</time>
      </trkpt>
      <trkpt lat="41.632466300" lon="2.486438900">
        <ele>551.50</ele>
        <time>2013-03-10T10:33:16Z</time>
      </trkpt>
      <trkpt lat="41.632440100" lon="2.486403200">
        <ele>552.90</ele>
        <time>2013-03-10T10:33:24Z</time>
      </trkpt>
      <trkpt lat="41.632427400" lon="2.486389000">
        <ele>552.90</ele>
        <time>2013-03-10T10:33:26Z</time>
      </trkpt>
      <trkpt lat="41.632390900" lon="2.486256500">
        <ele>554.80</ele>
        <time>2013-03-10T10:33:37Z</time>
      </trkpt>
      <trkpt lat="41.632362400" lon="2.486148100">
        <ele>555.30</ele>
        <time>2013-03-10T10:33:45Z</time>
      </trkpt>
      <trkpt lat="41.632283300" lon="2.486090800">
        <ele>555.80</ele>
        <time>2013-03-10T10:33:54Z</time>
      </trkpt>
      <trkpt lat="41.632263900" lon="2.486085000">
        <ele>556.30</ele>
        <time>2013-03-10T10:33:56Z</time>
      </trkpt>
      <trkpt lat="41.632235100" lon="2.486047600">
        <ele>556.70</ele>
        <time>2013-03-10T10:33:59Z</time>
      </trkpt>
      <trkpt lat="41.632156000" lon="2.485962100">
        <ele>558.20</ele>
        <time>2013-03-10T10:34:08Z</time>
      </trkpt>
      <trkpt lat="41.632131400" lon="2.485893200">
        <ele>558.70</ele>
        <time>2013-03-10T10:34:15Z</time>
      </trkpt>
      <trkpt lat="41.632129300" lon="2.485893300">
        <ele>558.70</ele>
        <time>2013-03-10T10:34:22Z</time>
      </trkpt>
      <trkpt lat="41.632136600" lon="2.485877500">
        <ele>558.70</ele>
        <time>2013-03-10T10:34:29Z</time>
      </trkpt>
      <trkpt lat="41.632132200" lon="2.485874100">
        <ele>558.70</ele>
        <time>2013-03-10T10:34:34Z</time>
      </trkpt>
      <trkpt lat="41.632074900" lon="2.485756000">
        <ele>560.10</ele>
        <time>2013-03-10T10:34:43Z</time>
      </trkpt>
      <trkpt lat="41.632044400" lon="2.485589600">
        <ele>562.00</ele>
        <time>2013-03-10T10:34:53Z</time>
      </trkpt>
      <trkpt lat="41.632016300" lon="2.485422400">
        <ele>563.50</ele>
        <time>2013-03-10T10:35:02Z</time>
      </trkpt>
      <trkpt lat="41.631973100" lon="2.485211600">
        <ele>564.40</ele>
        <time>2013-03-10T10:35:14Z</time>
      </trkpt>
      <trkpt lat="41.631946300" lon="2.484917700">
        <ele>566.30</ele>
        <time>2013-03-10T10:35:25Z</time>
      </trkpt>
      <trkpt lat="41.631855100" lon="2.484769200">
        <ele>567.80</ele>
        <time>2013-03-10T10:35:35Z</time>
      </trkpt>
      <trkpt lat="41.631773200" lon="2.484836300">
        <ele>568.80</ele>
        <time>2013-03-10T10:35:42Z</time>
      </trkpt>
      <trkpt lat="41.631702100" lon="2.484976100">
        <ele>569.70</ele>
        <time>2013-03-10T10:35:51Z</time>
      </trkpt>
      <trkpt lat="41.631588200" lon="2.485197500">
        <ele>570.70</ele>
        <time>2013-03-10T10:36:01Z</time>
      </trkpt>
      <trkpt lat="41.631460300" lon="2.485356900">
        <ele>571.60</ele>
        <time>2013-03-10T10:36:08Z</time>
      </trkpt>
      <trkpt lat="41.631304100" lon="2.485406400">
        <ele>571.60</ele>
        <time>2013-03-10T10:36:15Z</time>
      </trkpt>
      <trkpt lat="41.631146900" lon="2.485302500">
        <ele>571.20</ele>
        <time>2013-03-10T10:36:22Z</time>
      </trkpt>
      <trkpt lat="41.630985300" lon="2.485154700">
        <ele>571.20</ele>
        <time>2013-03-10T10:36:29Z</time>
      </trkpt>
      <trkpt lat="41.630850900" lon="2.485036000">
        <ele>571.60</ele>
        <time>2013-03-10T10:36:34Z</time>
      </trkpt>
      <trkpt lat="41.630643400" lon="2.484842600">
        <ele>572.10</ele>
        <time>2013-03-10T10:36:45Z</time>
      </trkpt>
      <trkpt lat="41.630510900" lon="2.484676100">
        <ele>572.60</ele>
        <time>2013-03-10T10:36:52Z</time>
      </trkpt>
      <trkpt lat="41.630396800" lon="2.484472300">
        <ele>573.60</ele>
        <time>2013-03-10T10:36:59Z</time>
      </trkpt>
      <trkpt lat="41.630301800" lon="2.484324200">
        <ele>574.50</ele>
        <time>2013-03-10T10:37:06Z</time>
      </trkpt>
      <trkpt lat="41.630155000" lon="2.484193500">
        <ele>576.00</ele>
        <time>2013-03-10T10:37:16Z</time>
      </trkpt>
      <trkpt lat="41.629996400" lon="2.484095600">
        <ele>577.40</ele>
        <time>2013-03-10T10:37:25Z</time>
      </trkpt>
      <trkpt lat="41.629850900" lon="2.484018500">
        <ele>578.40</ele>
        <time>2013-03-10T10:37:32Z</time>
      </trkpt>
      <trkpt lat="41.629686600" lon="2.483995600">
        <ele>578.80</ele>
        <time>2013-03-10T10:37:41Z</time>
      </trkpt>
      <trkpt lat="41.629447300" lon="2.483959200">
        <ele>579.30</ele>
        <time>2013-03-10T10:37:49Z</time>
      </trkpt>
      <trkpt lat="41.629265000" lon="2.483884100">
        <ele>579.30</ele>
        <time>2013-03-10T10:37:58Z</time>
      </trkpt>
      <trkpt lat="41.629067300" lon="2.483766600">
        <ele>580.30</ele>
        <time>2013-03-10T10:38:07Z</time>
      </trkpt>
      <trkpt lat="41.628901100" lon="2.483662500">
        <ele>580.80</ele>
        <time>2013-03-10T10:38:14Z</time>
      </trkpt>
      <trkpt lat="41.628793200" lon="2.483547200">
        <ele>581.20</ele>
        <time>2013-03-10T10:38:21Z</time>
      </trkpt>
      <trkpt lat="41.628704200" lon="2.483383300">
        <ele>582.20</ele>
        <time>2013-03-10T10:38:28Z</time>
      </trkpt>
      <trkpt lat="41.628636300" lon="2.483181100">
        <ele>583.70</ele>
        <time>2013-03-10T10:38:36Z</time>
      </trkpt>
      <trkpt lat="41.628618800" lon="2.483136400">
        <ele>583.70</ele>
        <time>2013-03-10T10:38:38Z</time>
      </trkpt>
      <trkpt lat="41.628528400" lon="2.483099600">
        <ele>585.60</ele>
        <time>2013-03-10T10:38:43Z</time>
      </trkpt>
      <trkpt lat="41.628436700" lon="2.483261000">
        <ele>587.00</ele>
        <time>2013-03-10T10:38:52Z</time>
      </trkpt>
      <trkpt lat="41.628347800" lon="2.483434200">
        <ele>588.50</ele>
        <time>2013-03-10T10:38:59Z</time>
      </trkpt>
      <trkpt lat="41.628238800" lon="2.483548900">
        <ele>588.50</ele>
        <time>2013-03-10T10:39:06Z</time>
      </trkpt>
      <trkpt lat="41.628098500" lon="2.483562700">
        <ele>589.90</ele>
        <time>2013-03-10T10:39:15Z</time>
      </trkpt>
      <trkpt lat="41.627979900" lon="2.483477900">
        <ele>591.30</ele>
        <time>2013-03-10T10:39:22Z</time>
      </trkpt>
      <trkpt lat="41.627895100" lon="2.483352400">
        <ele>592.30</ele>
        <time>2013-03-10T10:39:29Z</time>
      </trkpt>
      <trkpt lat="41.627826300" lon="2.483240600">
        <ele>593.30</ele>
        <time>2013-03-10T10:39:37Z</time>
      </trkpt>
      <trkpt lat="41.627802200" lon="2.483223400">
        <ele>593.30</ele>
        <time>2013-03-10T10:39:46Z</time>
      </trkpt>
      <trkpt lat="41.627767100" lon="2.483166400">
        <ele>593.30</ele>
        <time>2013-03-10T10:39:55Z</time>
      </trkpt>
      <trkpt lat="41.627712600" lon="2.483030700">
        <ele>593.80</ele>
        <time>2013-03-10T10:40:02Z</time>
      </trkpt>
      <trkpt lat="41.627704200" lon="2.483005000">
        <ele>593.80</ele>
        <time>2013-03-10T10:40:07Z</time>
      </trkpt>
      <trkpt lat="41.627684800" lon="2.482977000">
        <ele>593.30</ele>
        <time>2013-03-10T10:40:23Z</time>
      </trkpt>
      <trkpt lat="41.627667200" lon="2.482945800">
        <ele>593.30</ele>
        <time>2013-03-10T10:40:26Z</time>
      </trkpt>
      <trkpt lat="41.627650000" lon="2.482939500">
        <ele>592.80</ele>
        <time>2013-03-10T10:40:33Z</time>
      </trkpt>
      <trkpt lat="41.627570500" lon="2.482877900">
        <ele>593.30</ele>
        <time>2013-03-10T10:40:40Z</time>
      </trkpt>
      <trkpt lat="41.627545800" lon="2.482862800">
        <ele>592.80</ele>
        <time>2013-03-10T10:40:40Z</time>
      </trkpt>
      <trkpt lat="41.627384200" lon="2.482836300">
        <ele>589.90</ele>
        <time>2013-03-10T10:40:45Z</time>
      </trkpt>
      <trkpt lat="41.627234300" lon="2.482950300">
        <ele>587.00</ele>
        <time>2013-03-10T10:40:47Z</time>
      </trkpt>
      <trkpt lat="41.627041600" lon="2.483148300">
        <ele>583.20</ele>
        <time>2013-03-10T10:40:52Z</time>
      </trkpt>
      <trkpt lat="41.626863400" lon="2.483106800">
        <ele>580.80</ele>
        <time>2013-03-10T10:40:54Z</time>
      </trkpt>
      <trkpt lat="41.626649800" lon="2.483072200">
        <ele>578.40</ele>
        <time>2013-03-10T10:40:59Z</time>
      </trkpt>
      <trkpt lat="41.626623900" lon="2.483221700">
        <ele>578.40</ele>
        <time>2013-03-10T10:41:03Z</time>
      </trkpt>
      <trkpt lat="41.626525800" lon="2.483564600">
        <ele>579.80</ele>
        <time>2013-03-10T10:41:11Z</time>
      </trkpt>
      <trkpt lat="41.626330200" lon="2.483763100">
        <ele>579.80</ele>
        <time>2013-03-10T10:41:18Z</time>
      </trkpt>
      <trkpt lat="41.626127200" lon="2.483990000">
        <ele>576.50</ele>
        <time>2013-03-10T10:41:22Z</time>
      </trkpt>
      <trkpt lat="41.625949700" lon="2.484168600">
        <ele>573.10</ele>
        <time>2013-03-10T10:41:25Z</time>
      </trkpt>
      <trkpt lat="41.625758800" lon="2.484279700">
        <ele>570.70</ele>
        <time>2013-03-10T10:41:27Z</time>
      </trkpt>
      <trkpt lat="41.625599500" lon="2.484402900">
        <ele>568.30</ele>
        <time>2013-03-10T10:41:30Z</time>
      </trkpt>
      <trkpt lat="41.625393500" lon="2.484485800">
        <ele>564.40</ele>
        <time>2013-03-10T10:41:34Z</time>
      </trkpt>
      <trkpt lat="41.625272900" lon="2.484447000">
        <ele>563.00</ele>
        <time>2013-03-10T10:41:37Z</time>
      </trkpt>
      <trkpt lat="41.625298500" lon="2.484346400">
        <ele>562.50</ele>
        <time>2013-03-10T10:41:41Z</time>
      </trkpt>
      <trkpt lat="41.625405900" lon="2.484283400">
        <ele>560.60</ele>
        <time>2013-03-10T10:41:44Z</time>
      </trkpt>
      <trkpt lat="41.625483900" lon="2.484079700">
        <ele>560.10</ele>
        <time>2013-03-10T10:41:48Z</time>
      </trkpt>
      <trkpt lat="41.625404500" lon="2.483921500">
        <ele>559.60</ele>
        <time>2013-03-10T10:41:51Z</time>
      </trkpt>
      <trkpt lat="41.625365700" lon="2.483896300">
        <ele>559.60</ele>
        <time>2013-03-10T10:41:53Z</time>
      </trkpt>
      <trkpt lat="41.625220600" lon="2.483837200">
        <ele>557.20</ele>
        <time>2013-03-10T10:41:57Z</time>
      </trkpt>
      <trkpt lat="41.625150100" lon="2.483868900">
        <ele>555.80</ele>
        <time>2013-03-10T10:42:00Z</time>
      </trkpt>
      <trkpt lat="41.625133600" lon="2.484083900">
        <ele>554.30</ele>
        <time>2013-03-10T10:42:07Z</time>
      </trkpt>
      <trkpt lat="41.625042100" lon="2.484253700">
        <ele>553.40</ele>
        <time>2013-03-10T10:42:12Z</time>
      </trkpt>
      <trkpt lat="41.625042800" lon="2.484565100">
        <ele>551.50</ele>
        <time>2013-03-10T10:42:16Z</time>
      </trkpt>
      <trkpt lat="41.625042200" lon="2.484819300">
        <ele>551.50</ele>
        <time>2013-03-10T10:42:21Z</time>
      </trkpt>
      <trkpt lat="41.624983200" lon="2.485083400">
        <ele>551.00</ele>
        <time>2013-03-10T10:42:26Z</time>
      </trkpt>
      <trkpt lat="41.624948800" lon="2.485343500">
        <ele>549.50</ele>
        <time>2013-03-10T10:42:30Z</time>
      </trkpt>
      <trkpt lat="41.624919700" lon="2.485550300">
        <ele>547.60</ele>
        <time>2013-03-10T10:42:33Z</time>
      </trkpt>
      <trkpt lat="41.624894100" lon="2.485893300">
        <ele>544.20</ele>
        <time>2013-03-10T10:42:37Z</time>
      </trkpt>
      <trkpt lat="41.624880600" lon="2.486156600">
        <ele>540.90</ele>
        <time>2013-03-10T10:42:40Z</time>
      </trkpt>
      <trkpt lat="41.624871600" lon="2.486246400">
        <ele>539.90</ele>
        <time>2013-03-10T10:42:40Z</time>
      </trkpt>
      <trkpt lat="41.624878200" lon="2.486631000">
        <ele>535.10</ele>
        <time>2013-03-10T10:42:45Z</time>
      </trkpt>
      <trkpt lat="41.624872300" lon="2.486804200">
        <ele>533.20</ele>
        <time>2013-03-10T10:42:47Z</time>
      </trkpt>
      <trkpt lat="41.624969600" lon="2.487066500">
        <ele>529.80</ele>
        <time>2013-03-10T10:42:51Z</time>
      </trkpt>
      <trkpt lat="41.625119800" lon="2.487207700">
        <ele>529.80</ele>
        <time>2013-03-10T10:42:54Z</time>
      </trkpt>
      <trkpt lat="41.625425000" lon="2.487490300">
        <ele>528.90</ele>
        <time>2013-03-10T10:43:01Z</time>
      </trkpt>
      <trkpt lat="41.625491700" lon="2.487578200">
        <ele>528.90</ele>
        <time>2013-03-10T10:43:03Z</time>
      </trkpt>
      <trkpt lat="41.625568100" lon="2.487663200">
        <ele>528.40</ele>
        <time>2013-03-10T10:43:05Z</time>
      </trkpt>
      <trkpt lat="41.625659800" lon="2.487839600">
        <ele>527.90</ele>
        <time>2013-03-10T10:43:08Z</time>
      </trkpt>
      <trkpt lat="41.625730000" lon="2.488035400">
        <ele>526.00</ele>
        <time>2013-03-10T10:43:10Z</time>
      </trkpt>
      <trkpt lat="41.625719500" lon="2.488338500">
        <ele>521.70</ele>
        <time>2013-03-10T10:43:15Z</time>
      </trkpt>
      <trkpt lat="41.625693100" lon="2.488376800">
        <ele>520.70</ele>
        <time>2013-03-10T10:43:17Z</time>
      </trkpt>
      <trkpt lat="41.625592100" lon="2.488482400">
        <ele>519.70</ele>
        <time>2013-03-10T10:43:20Z</time>
      </trkpt>
      <trkpt lat="41.625469500" lon="2.488733700">
        <ele>517.30</ele>
        <time>2013-03-10T10:43:24Z</time>
      </trkpt>
      <trkpt lat="41.625295200" lon="2.489327100">
        <ele>513.50</ele>
        <time>2013-03-10T10:43:29Z</time>
      </trkpt>
      <trkpt lat="41.625105100" lon="2.489727200">
        <ele>510.10</ele>
        <time>2013-03-10T10:43:34Z</time>
      </trkpt>
      <trkpt lat="41.624960100" lon="2.489943200">
        <ele>508.70</ele>
        <time>2013-03-10T10:43:38Z</time>
      </trkpt>
      <trkpt lat="41.624807800" lon="2.490123000">
        <ele>508.20</ele>
        <time>2013-03-10T10:43:41Z</time>
      </trkpt>
      <trkpt lat="41.624639900" lon="2.490396800">
        <ele>507.70</ele>
        <time>2013-03-10T10:43:46Z</time>
      </trkpt>
      <trkpt lat="41.624453700" lon="2.490831500">
        <ele>508.70</ele>
        <time>2013-03-10T10:43:53Z</time>
      </trkpt>
      <trkpt lat="41.624381100" lon="2.491255400">
        <ele>506.80</ele>
        <time>2013-03-10T10:43:59Z</time>
      </trkpt>
      <trkpt lat="41.624375400" lon="2.491444100">
        <ele>505.80</ele>
        <time>2013-03-10T10:44:00Z</time>
      </trkpt>
      <trkpt lat="41.624375600" lon="2.491538000">
        <ele>505.80</ele>
        <time>2013-03-10T10:44:02Z</time>
      </trkpt>
      <trkpt lat="41.624295800" lon="2.492077100">
        <ele>503.90</ele>
        <time>2013-03-10T10:44:09Z</time>
      </trkpt>
      <trkpt lat="41.624236900" lon="2.492301000">
        <ele>503.90</ele>
        <time>2013-03-10T10:44:11Z</time>
      </trkpt>
      <trkpt lat="41.624122400" lon="2.492571800">
        <ele>503.40</ele>
        <time>2013-03-10T10:44:16Z</time>
      </trkpt>
      <trkpt lat="41.624095700" lon="2.492895400">
        <ele>503.40</ele>
        <time>2013-03-10T10:44:21Z</time>
      </trkpt>
      <trkpt lat="41.624108900" lon="2.493126100">
        <ele>503.90</ele>
        <time>2013-03-10T10:44:25Z</time>
      </trkpt>
      <trkpt lat="41.624119400" lon="2.493243000">
        <ele>503.90</ele>
        <time>2013-03-10T10:44:28Z</time>
      </trkpt>
      <trkpt lat="41.624156100" lon="2.493584500">
        <ele>503.40</ele>
        <time>2013-03-10T10:44:35Z</time>
      </trkpt>
      <trkpt lat="41.624217200" lon="2.493905200">
        <ele>503.40</ele>
        <time>2013-03-10T10:44:44Z</time>
      </trkpt>
      <trkpt lat="41.624288300" lon="2.494153900">
        <ele>503.40</ele>
        <time>2013-03-10T10:44:51Z</time>
      </trkpt>
      <trkpt lat="41.624343100" lon="2.494385700">
        <ele>503.40</ele>
        <time>2013-03-10T10:44:58Z</time>
      </trkpt>
      <trkpt lat="41.624286100" lon="2.494635200">
        <ele>504.40</ele>
        <time>2013-03-10T10:45:05Z</time>
      </trkpt>
      <trkpt lat="41.624263400" lon="2.494954600">
        <ele>504.80</ele>
        <time>2013-03-10T10:45:13Z</time>
      </trkpt>
      <trkpt lat="41.624299000" lon="2.495275500">
        <ele>505.80</ele>
        <time>2013-03-10T10:45:20Z</time>
      </trkpt>
      <trkpt lat="41.624307400" lon="2.495490400">
        <ele>506.30</ele>
        <time>2013-03-10T10:45:26Z</time>
      </trkpt>
      <trkpt lat="41.624298600" lon="2.495747800">
        <ele>506.80</ele>
        <time>2013-03-10T10:45:31Z</time>
      </trkpt>
      <trkpt lat="41.624220600" lon="2.496010800">
        <ele>507.20</ele>
        <time>2013-03-10T10:45:38Z</time>
      </trkpt>
      <trkpt lat="41.624053900" lon="2.496265300">
        <ele>508.70</ele>
        <time>2013-03-10T10:45:48Z</time>
      </trkpt>
      <trkpt lat="41.623973800" lon="2.496322900">
        <ele>509.60</ele>
        <time>2013-03-10T10:45:52Z</time>
      </trkpt>
      <trkpt lat="41.623890900" lon="2.496345100">
        <ele>510.60</ele>
        <time>2013-03-10T10:45:55Z</time>
      </trkpt>
      <trkpt lat="41.623689400" lon="2.496342400">
        <ele>511.10</ele>
        <time>2013-03-10T10:46:02Z</time>
      </trkpt>
      <trkpt lat="41.623503100" lon="2.496260000">
        <ele>511.10</ele>
        <time>2013-03-10T10:46:09Z</time>
      </trkpt>
      <trkpt lat="41.623325800" lon="2.495955000">
        <ele>510.10</ele>
        <time>2013-03-10T10:46:16Z</time>
      </trkpt>
      <trkpt lat="41.623308100" lon="2.495904700">
        <ele>510.10</ele>
        <time>2013-03-10T10:46:18Z</time>
      </trkpt>
      <trkpt lat="41.623116400" lon="2.495647100">
        <ele>508.70</ele>
        <time>2013-03-10T10:46:23Z</time>
      </trkpt>
      <trkpt lat="41.623152900" lon="2.495428800">
        <ele>508.70</ele>
        <time>2013-03-10T10:46:28Z</time>
      </trkpt>
      <trkpt lat="41.623219300" lon="2.495141300">
        <ele>507.20</ele>
        <time>2013-03-10T10:46:34Z</time>
      </trkpt>
      <trkpt lat="41.623130900" lon="2.494676700">
        <ele>506.80</ele>
        <time>2013-03-10T10:46:42Z</time>
      </trkpt>
      <trkpt lat="41.623055500" lon="2.494459000">
        <ele>507.20</ele>
        <time>2013-03-10T10:46:48Z</time>
      </trkpt>
      <trkpt lat="41.622834200" lon="2.494155600">
        <ele>507.20</ele>
        <time>2013-03-10T10:46:54Z</time>
      </trkpt>
      <trkpt lat="41.622765800" lon="2.494087900">
        <ele>506.80</ele>
        <time>2013-03-10T10:46:56Z</time>
      </trkpt>
      <trkpt lat="41.622536700" lon="2.493978100">
        <ele>507.70</ele>
        <time>2013-03-10T10:47:03Z</time>
      </trkpt>
      <trkpt lat="41.622416900" lon="2.493981800">
        <ele>507.20</ele>
        <time>2013-03-10T10:47:05Z</time>
      </trkpt>
      <trkpt lat="41.622166600" lon="2.493864000">
        <ele>507.20</ele>
        <time>2013-03-10T10:47:12Z</time>
      </trkpt>
      <trkpt lat="41.622115100" lon="2.493764400">
        <ele>507.70</ele>
        <time>2013-03-10T10:47:14Z</time>
      </trkpt>
      <trkpt lat="41.622011000" lon="2.493603600">
        <ele>507.70</ele>
        <time>2013-03-10T10:47:17Z</time>
      </trkpt>
      <trkpt lat="41.621831800" lon="2.493612800">
        <ele>507.70</ele>
        <time>2013-03-10T10:47:22Z</time>
      </trkpt>
      <trkpt lat="41.621572300" lon="2.493866800">
        <ele>509.20</ele>
        <time>2013-03-10T10:47:31Z</time>
      </trkpt>
      <trkpt lat="41.621479600" lon="2.493926600">
        <ele>509.60</ele>
        <time>2013-03-10T10:47:35Z</time>
      </trkpt>
      <trkpt lat="41.621421800" lon="2.494162900">
        <ele>510.10</ele>
        <time>2013-03-10T10:47:40Z</time>
      </trkpt>
      <trkpt lat="41.621461700" lon="2.494538200">
        <ele>510.60</ele>
        <time>2013-03-10T10:47:48Z</time>
      </trkpt>
      <trkpt lat="41.621347500" lon="2.494762800">
        <ele>510.10</ele>
        <time>2013-03-10T10:47:54Z</time>
      </trkpt>
      <trkpt lat="41.621258100" lon="2.494942900">
        <ele>509.60</ele>
        <time>2013-03-10T10:47:57Z</time>
      </trkpt>
      <trkpt lat="41.621101400" lon="2.495187200">
        <ele>509.20</ele>
        <time>2013-03-10T10:48:02Z</time>
      </trkpt>
      <trkpt lat="41.620991000" lon="2.495145800">
        <ele>508.70</ele>
        <time>2013-03-10T10:48:04Z</time>
      </trkpt>
      <trkpt lat="41.620638500" lon="2.494857400">
        <ele>504.80</ele>
        <time>2013-03-10T10:48:11Z</time>
      </trkpt>
      <trkpt lat="41.620583600" lon="2.494805500">
        <ele>503.90</ele>
        <time>2013-03-10T10:48:11Z</time>
      </trkpt>
      <trkpt lat="41.620358200" lon="2.494777500">
        <ele>501.00</ele>
        <time>2013-03-10T10:48:16Z</time>
      </trkpt>
      <trkpt lat="41.620314400" lon="2.494848600">
        <ele>500.50</ele>
        <time>2013-03-10T10:48:16Z</time>
      </trkpt>
      <trkpt lat="41.620198100" lon="2.495017100">
        <ele>498.60</ele>
        <time>2013-03-10T10:48:20Z</time>
      </trkpt>
      <trkpt lat="41.619962700" lon="2.495225900">
        <ele>496.70</ele>
        <time>2013-03-10T10:48:25Z</time>
      </trkpt>
      <trkpt lat="41.619927300" lon="2.495260700">
        <ele>496.20</ele>
        <time>2013-03-10T10:48:27Z</time>
      </trkpt>
      <trkpt lat="41.619872900" lon="2.495301300">
        <ele>495.20</ele>
        <time>2013-03-10T10:48:29Z</time>
      </trkpt>
      <trkpt lat="41.619724800" lon="2.495262300">
        <ele>494.70</ele>
        <time>2013-03-10T10:48:34Z</time>
      </trkpt>
      <trkpt lat="41.619624400" lon="2.495188900">
        <ele>494.70</ele>
        <time>2013-03-10T10:48:46Z</time>
      </trkpt>
      <trkpt lat="41.619467100" lon="2.495094100">
        <ele>494.30</ele>
        <time>2013-03-10T10:48:49Z</time>
      </trkpt>
      <trkpt lat="41.619325600" lon="2.495036800">
        <ele>493.80</ele>
        <time>2013-03-10T10:48:53Z</time>
      </trkpt>
      <trkpt lat="41.619179200" lon="2.495008600">
        <ele>493.30</ele>
        <time>2013-03-10T10:48:55Z</time>
      </trkpt>
      <trkpt lat="41.618964600" lon="2.495116700">
        <ele>492.80</ele>
        <time>2013-03-10T10:49:00Z</time>
      </trkpt>
      <trkpt lat="41.618901800" lon="2.495198500">
        <ele>492.30</ele>
        <time>2013-03-10T10:49:02Z</time>
      </trkpt>
      <trkpt lat="41.618766900" lon="2.495394400">
        <ele>491.40</ele>
        <time>2013-03-10T10:49:09Z</time>
      </trkpt>
      <trkpt lat="41.618677400" lon="2.495525600">
        <ele>490.90</ele>
        <time>2013-03-10T10:49:14Z</time>
      </trkpt>
      <trkpt lat="41.618587500" lon="2.495633900">
        <ele>490.40</ele>
        <time>2013-03-10T10:49:19Z</time>
      </trkpt>
      <trkpt lat="41.618548300" lon="2.495919800">
        <ele>486.10</ele>
        <time>2013-03-10T10:49:24Z</time>
      </trkpt>
      <trkpt lat="41.618545500" lon="2.495969400">
        <ele>486.10</ele>
        <time>2013-03-10T10:49:26Z</time>
      </trkpt>
      <trkpt lat="41.618481800" lon="2.496312800">
        <ele>484.20</ele>
        <time>2013-03-10T10:49:33Z</time>
      </trkpt>
      <trkpt lat="41.618447600" lon="2.496459600">
        <ele>483.20</ele>
        <time>2013-03-10T10:49:35Z</time>
      </trkpt>
      <trkpt lat="41.618335400" lon="2.496658500">
        <ele>481.80</ele>
        <time>2013-03-10T10:49:42Z</time>
      </trkpt>
      <trkpt lat="41.618322800" lon="2.496727300">
        <ele>481.30</ele>
        <time>2013-03-10T10:49:45Z</time>
      </trkpt>
      <trkpt lat="41.618338400" lon="2.496936000">
        <ele>479.80</ele>
        <time>2013-03-10T10:49:52Z</time>
      </trkpt>
      <trkpt lat="41.618354900" lon="2.497125700">
        <ele>478.90</ele>
        <time>2013-03-10T10:49:57Z</time>
      </trkpt>
      <trkpt lat="41.618368400" lon="2.497358400">
        <ele>477.00</ele>
        <time>2013-03-10T10:50:03Z</time>
      </trkpt>
      <trkpt lat="41.618370500" lon="2.497430200">
        <ele>476.00</ele>
        <time>2013-03-10T10:50:06Z</time>
      </trkpt>
      <trkpt lat="41.618359100" lon="2.497543400">
        <ele>474.50</ele>
        <time>2013-03-10T10:50:11Z</time>
      </trkpt>
      <trkpt lat="41.618349400" lon="2.497708000">
        <ele>473.10</ele>
        <time>2013-03-10T10:50:18Z</time>
      </trkpt>
      <trkpt lat="41.618352900" lon="2.497895000">
        <ele>471.20</ele>
        <time>2013-03-10T10:50:22Z</time>
      </trkpt>
      <trkpt lat="41.618332400" lon="2.498127200">
        <ele>467.80</ele>
        <time>2013-03-10T10:50:27Z</time>
      </trkpt>
      <trkpt lat="41.618250200" lon="2.498244800">
        <ele>466.40</ele>
        <time>2013-03-10T10:50:34Z</time>
      </trkpt>
      <trkpt lat="41.618208000" lon="2.498281400">
        <ele>465.40</ele>
        <time>2013-03-10T10:50:37Z</time>
      </trkpt>
      <trkpt lat="41.618181400" lon="2.498299900">
        <ele>465.40</ele>
        <time>2013-03-10T10:50:43Z</time>
      </trkpt>
      <trkpt lat="41.618117700" lon="2.498347900">
        <ele>464.90</ele>
        <time>2013-03-10T10:50:50Z</time>
      </trkpt>
      <trkpt lat="41.618019800" lon="2.498522800">
        <ele>465.90</ele>
        <time>2013-03-10T10:50:57Z</time>
      </trkpt>
      <trkpt lat="41.617828300" lon="2.498748100">
        <ele>464.90</ele>
        <time>2013-03-10T10:51:02Z</time>
      </trkpt>
      <trkpt lat="41.617579000" lon="2.498887600">
        <ele>461.10</ele>
        <time>2013-03-10T10:51:07Z</time>
      </trkpt>
      <trkpt lat="41.617475000" lon="2.498935400">
        <ele>459.60</ele>
        <time>2013-03-10T10:51:09Z</time>
      </trkpt>
      <trkpt lat="41.617263500" lon="2.498943900">
        <ele>456.80</ele>
        <time>2013-03-10T10:51:14Z</time>
      </trkpt>
      <trkpt lat="41.617217400" lon="2.498855900">
        <ele>455.30</ele>
        <time>2013-03-10T10:51:16Z</time>
      </trkpt>
      <trkpt lat="41.617136200" lon="2.498692400">
        <ele>454.80</ele>
        <time>2013-03-10T10:51:19Z</time>
      </trkpt>
      <trkpt lat="41.617008400" lon="2.498399800">
        <ele>452.40</ele>
        <time>2013-03-10T10:51:24Z</time>
      </trkpt>
      <trkpt lat="41.616905300" lon="2.498213500">
        <ele>449.50</ele>
        <time>2013-03-10T10:51:28Z</time>
      </trkpt>
      <trkpt lat="41.616797000" lon="2.498021000">
        <ele>446.20</ele>
        <time>2013-03-10T10:51:33Z</time>
      </trkpt>
      <trkpt lat="41.616705800" lon="2.497840100">
        <ele>443.30</ele>
        <time>2013-03-10T10:51:37Z</time>
      </trkpt>
      <trkpt lat="41.616601400" lon="2.497848400">
        <ele>441.90</ele>
        <time>2013-03-10T10:51:40Z</time>
      </trkpt>
      <trkpt lat="41.616511800" lon="2.497762300">
        <ele>439.50</ele>
        <time>2013-03-10T10:51:42Z</time>
      </trkpt>
      <trkpt lat="41.616500000" lon="2.497718800">
        <ele>439.50</ele>
        <time>2013-03-10T10:51:44Z</time>
      </trkpt>
      <trkpt lat="41.616473100" lon="2.497523300">
        <ele>438.50</ele>
        <time>2013-03-10T10:51:47Z</time>
      </trkpt>
      <trkpt lat="41.616393200" lon="2.497382600">
        <ele>437.50</ele>
        <time>2013-03-10T10:51:52Z</time>
      </trkpt>
      <trkpt lat="41.616331400" lon="2.497456200">
        <ele>437.10</ele>
        <time>2013-03-10T10:51:56Z</time>
      </trkpt>
      <trkpt lat="41.616274700" lon="2.497672800">
        <ele>436.10</ele>
        <time>2013-03-10T10:52:01Z</time>
      </trkpt>
      <trkpt lat="41.616074100" lon="2.497903500">
        <ele>433.70</ele>
        <time>2013-03-10T10:52:06Z</time>
      </trkpt>
      <trkpt lat="41.615958800" lon="2.498018800">
        <ele>432.70</ele>
        <time>2013-03-10T10:52:10Z</time>
      </trkpt>
      <trkpt lat="41.615802900" lon="2.498269900">
        <ele>429.90</ele>
        <time>2013-03-10T10:52:15Z</time>
      </trkpt>
      <trkpt lat="41.615586200" lon="2.498373100">
        <ele>427.40</ele>
        <time>2013-03-10T10:52:20Z</time>
      </trkpt>
      <trkpt lat="41.615400000" lon="2.498382800">
        <ele>426.50</ele>
        <time>2013-03-10T10:52:22Z</time>
      </trkpt>
      <trkpt lat="41.615200200" lon="2.498265300">
        <ele>424.10</ele>
        <time>2013-03-10T10:52:27Z</time>
      </trkpt>
      <trkpt lat="41.615077100" lon="2.497999100">
        <ele>421.70</ele>
        <time>2013-03-10T10:52:31Z</time>
      </trkpt>
      <trkpt lat="41.614988900" lon="2.497869600">
        <ele>420.70</ele>
        <time>2013-03-10T10:52:32Z</time>
      </trkpt>
      <trkpt lat="41.614914900" lon="2.497714300">
        <ele>418.80</ele>
        <time>2013-03-10T10:52:34Z</time>
      </trkpt>
      <trkpt lat="41.614866300" lon="2.497555200">
        <ele>416.90</ele>
        <time>2013-03-10T10:52:36Z</time>
      </trkpt>
      <trkpt lat="41.614739900" lon="2.497228600">
        <ele>414.00</ele>
        <time>2013-03-10T10:52:41Z</time>
      </trkpt>
      <trkpt lat="41.614672600" lon="2.497104500">
        <ele>413.50</ele>
        <time>2013-03-10T10:52:43Z</time>
      </trkpt>
      <trkpt lat="41.614513100" lon="2.496909000">
        <ele>412.50</ele>
        <time>2013-03-10T10:52:48Z</time>
      </trkpt>
      <trkpt lat="41.614391500" lon="2.496842200">
        <ele>412.50</ele>
        <time>2013-03-10T10:52:53Z</time>
      </trkpt>
      <trkpt lat="41.614271200" lon="2.496721700">
        <ele>413.00</ele>
        <time>2013-03-10T10:52:57Z</time>
      </trkpt>
      <trkpt lat="41.614183700" lon="2.496798400">
        <ele>414.00</ele>
        <time>2013-03-10T10:53:02Z</time>
      </trkpt>
      <trkpt lat="41.614184500" lon="2.496864700">
        <ele>414.50</ele>
        <time>2013-03-10T10:53:04Z</time>
      </trkpt>
      <trkpt lat="41.614171100" lon="2.497209300">
        <ele>415.00</ele>
        <time>2013-03-10T10:53:14Z</time>
      </trkpt>
      <trkpt lat="41.614054700" lon="2.497322600">
        <ele>414.00</ele>
        <time>2013-03-10T10:53:18Z</time>
      </trkpt>
      <trkpt lat="41.614023000" lon="2.497347500">
        <ele>414.00</ele>
        <time>2013-03-10T10:53:21Z</time>
      </trkpt>
      <trkpt lat="41.614001000" lon="2.497352700">
        <ele>414.00</ele>
        <time>2013-03-10T10:53:35Z</time>
      </trkpt>
      <trkpt lat="41.613988600" lon="2.497358700">
        <ele>414.00</ele>
        <time>2013-03-10T10:53:49Z</time>
      </trkpt>
      <trkpt lat="41.613851900" lon="2.497396600">
        <ele>415.00</ele>
        <time>2013-03-10T10:53:56Z</time>
      </trkpt>
      <trkpt lat="41.613814000" lon="2.497395700">
        <ele>415.00</ele>
        <time>2013-03-10T10:53:56Z</time>
      </trkpt>
      <trkpt lat="41.613605200" lon="2.497260700">
        <ele>415.00</ele>
        <time>2013-03-10T10:54:01Z</time>
      </trkpt>
      <trkpt lat="41.613405900" lon="2.497188900">
        <ele>412.10</ele>
        <time>2013-03-10T10:54:06Z</time>
      </trkpt>
      <trkpt lat="41.613390900" lon="2.497251000">
        <ele>411.10</ele>
        <time>2013-03-10T10:54:10Z</time>
      </trkpt>
      <trkpt lat="41.613413500" lon="2.497267500">
        <ele>410.60</ele>
        <time>2013-03-10T10:54:12Z</time>
      </trkpt>
      <trkpt lat="41.613510800" lon="2.497298100">
        <ele>409.70</ele>
        <time>2013-03-10T10:54:19Z</time>
      </trkpt>
      <trkpt lat="41.613531200" lon="2.497310700">
        <ele>409.70</ele>
        <time>2013-03-10T10:54:29Z</time>
      </trkpt>
      <trkpt lat="41.613523300" lon="2.497314800">
        <ele>410.10</ele>
        <time>2013-03-10T10:54:38Z</time>
      </trkpt>
      <trkpt lat="41.613506000" lon="2.497306500">
        <ele>410.10</ele>
        <time>2013-03-10T10:54:45Z</time>
      </trkpt>
      <trkpt lat="41.613377600" lon="2.497298200">
        <ele>411.10</ele>
        <time>2013-03-10T10:54:52Z</time>
      </trkpt>
      <trkpt lat="41.613241900" lon="2.497337900">
        <ele>412.10</ele>
        <time>2013-03-10T10:54:59Z</time>
      </trkpt>
      <trkpt lat="41.613108300" lon="2.497290200">
        <ele>414.00</ele>
        <time>2013-03-10T10:55:06Z</time>
      </trkpt>
      <trkpt lat="41.612993900" lon="2.497116300">
        <ele>414.50</ele>
        <time>2013-03-10T10:55:13Z</time>
      </trkpt>
      <trkpt lat="41.612904400" lon="2.496924600">
        <ele>416.40</ele>
        <time>2013-03-10T10:55:21Z</time>
      </trkpt>
      <trkpt lat="41.612828700" lon="2.496726900">
        <ele>418.30</ele>
        <time>2013-03-10T10:55:30Z</time>
      </trkpt>
      <trkpt lat="41.612776500" lon="2.496549300">
        <ele>420.70</ele>
        <time>2013-03-10T10:55:37Z</time>
      </trkpt>
      <trkpt lat="41.612689000" lon="2.496356300">
        <ele>420.70</ele>
        <time>2013-03-10T10:55:44Z</time>
      </trkpt>
      <trkpt lat="41.612663600" lon="2.496288600">
        <ele>422.60</ele>
        <time>2013-03-10T10:55:48Z</time>
      </trkpt>
      <trkpt lat="41.612601900" lon="2.496095800">
        <ele>423.60</ele>
        <time>2013-03-10T10:55:54Z</time>
      </trkpt>
      <trkpt lat="41.612558900" lon="2.495846700">
        <ele>425.50</ele>
        <time>2013-03-10T10:56:03Z</time>
      </trkpt>
      <trkpt lat="41.612553100" lon="2.495738700">
        <ele>426.00</ele>
        <time>2013-03-10T10:56:08Z</time>
      </trkpt>
      <trkpt lat="41.612422600" lon="2.495602600">
        <ele>425.50</ele>
        <time>2013-03-10T10:56:15Z</time>
      </trkpt>
      <trkpt lat="41.612301500" lon="2.495591500">
        <ele>424.10</ele>
        <time>2013-03-10T10:56:19Z</time>
      </trkpt>
      <trkpt lat="41.612206200" lon="2.495628100">
        <ele>422.60</ele>
        <time>2013-03-10T10:56:21Z</time>
      </trkpt>
      <trkpt lat="41.612120900" lon="2.495679500">
        <ele>422.20</ele>
        <time>2013-03-10T10:56:22Z</time>
      </trkpt>
      <trkpt lat="41.612088600" lon="2.495702500">
        <ele>421.70</ele>
        <time>2013-03-10T10:56:24Z</time>
      </trkpt>
      <trkpt lat="41.612031600" lon="2.495853200">
        <ele>420.70</ele>
        <time>2013-03-10T10:56:29Z</time>
      </trkpt>
      <trkpt lat="41.611932000" lon="2.495954300">
        <ele>421.20</ele>
        <time>2013-03-10T10:56:33Z</time>
      </trkpt>
      <trkpt lat="41.611778000" lon="2.496102300">
        <ele>422.60</ele>
        <time>2013-03-10T10:56:42Z</time>
      </trkpt>
      <trkpt lat="41.611669100" lon="2.496261500">
        <ele>422.60</ele>
        <time>2013-03-10T10:56:48Z</time>
      </trkpt>
      <trkpt lat="41.611647700" lon="2.496288300">
        <ele>422.20</ele>
        <time>2013-03-10T10:56:50Z</time>
      </trkpt>
      <trkpt lat="41.611404900" lon="2.496448200">
        <ele>421.20</ele>
        <time>2013-03-10T10:56:57Z</time>
      </trkpt>
      <trkpt lat="41.611368000" lon="2.496463300">
        <ele>420.70</ele>
        <time>2013-03-10T10:56:57Z</time>
      </trkpt>
      <trkpt lat="41.611202900" lon="2.496574400">
        <ele>420.70</ele>
        <time>2013-03-10T10:57:04Z</time>
      </trkpt>
      <trkpt lat="41.611098100" lon="2.496700500">
        <ele>421.20</ele>
        <time>2013-03-10T10:57:11Z</time>
      </trkpt>
      <trkpt lat="41.610997900" lon="2.496822300">
        <ele>423.60</ele>
        <time>2013-03-10T10:57:20Z</time>
      </trkpt>
      <trkpt lat="41.610959700" lon="2.496877400">
        <ele>425.00</ele>
        <time>2013-03-10T10:57:25Z</time>
      </trkpt>
      <trkpt lat="41.610868400" lon="2.497033500">
        <ele>427.00</ele>
        <time>2013-03-10T10:57:34Z</time>
      </trkpt>
      <trkpt lat="41.610732500" lon="2.497184600">
        <ele>427.90</ele>
        <time>2013-03-10T10:57:46Z</time>
      </trkpt>
      <trkpt lat="41.610596900" lon="2.497320400">
        <ele>428.90</ele>
        <time>2013-03-10T10:57:56Z</time>
      </trkpt>
      <trkpt lat="41.610501300" lon="2.497496600">
        <ele>430.30</ele>
        <time>2013-03-10T10:58:07Z</time>
      </trkpt>
      <trkpt lat="41.610492100" lon="2.497617300">
        <ele>432.20</ele>
        <time>2013-03-10T10:58:14Z</time>
      </trkpt>
      <trkpt lat="41.610484400" lon="2.497642700">
        <ele>433.20</ele>
        <time>2013-03-10T10:58:17Z</time>
      </trkpt>
      <trkpt lat="41.610444000" lon="2.497719400">
        <ele>435.10</ele>
        <time>2013-03-10T10:58:23Z</time>
      </trkpt>
      <trkpt lat="41.610362900" lon="2.497798200">
        <ele>436.60</ele>
        <time>2013-03-10T10:58:31Z</time>
      </trkpt>
      <trkpt lat="41.610294100" lon="2.497858200">
        <ele>439.00</ele>
        <time>2013-03-10T10:58:38Z</time>
      </trkpt>
      <trkpt lat="41.610222400" lon="2.497937300">
        <ele>439.90</ele>
        <time>2013-03-10T10:58:47Z</time>
      </trkpt>
      <trkpt lat="41.610169800" lon="2.498026000">
        <ele>442.30</ele>
        <time>2013-03-10T10:58:54Z</time>
      </trkpt>
      <trkpt lat="41.610151700" lon="2.498060500">
        <ele>442.80</ele>
        <time>2013-03-10T10:58:57Z</time>
      </trkpt>
      <trkpt lat="41.610160100" lon="2.498202200">
        <ele>445.20</ele>
        <time>2013-03-10T10:59:06Z</time>
      </trkpt>
      <trkpt lat="41.610185400" lon="2.498217800">
        <ele>446.20</ele>
        <time>2013-03-10T10:59:10Z</time>
      </trkpt>
      <trkpt lat="41.610220500" lon="2.498210400">
        <ele>446.70</ele>
        <time>2013-03-10T10:59:15Z</time>
      </trkpt>
      <trkpt lat="41.610316000" lon="2.498175500">
        <ele>448.10</ele>
        <time>2013-03-10T10:59:25Z</time>
      </trkpt>
      <trkpt lat="41.610412400" lon="2.498171100">
        <ele>448.10</ele>
        <time>2013-03-10T10:59:34Z</time>
      </trkpt>
      <trkpt lat="41.610495500" lon="2.498180300">
        <ele>447.60</ele>
        <time>2013-03-10T10:59:36Z</time>
      </trkpt>
      <trkpt lat="41.610667300" lon="2.498293400">
        <ele>447.60</ele>
        <time>2013-03-10T10:59:41Z</time>
      </trkpt>
      <trkpt lat="41.610845300" lon="2.498447200">
        <ele>447.60</ele>
        <time>2013-03-10T10:59:50Z</time>
      </trkpt>
      <trkpt lat="41.610912000" lon="2.498505800">
        <ele>447.10</ele>
        <time>2013-03-10T10:59:51Z</time>
      </trkpt>
      <trkpt lat="41.611124800" lon="2.498807200">
        <ele>445.20</ele>
        <time>2013-03-10T10:59:58Z</time>
      </trkpt>
      <trkpt lat="41.611185200" lon="2.498968600">
        <ele>443.80</ele>
        <time>2013-03-10T11:00:00Z</time>
      </trkpt>
      <trkpt lat="41.611212800" lon="2.499069300">
        <ele>443.30</ele>
        <time>2013-03-10T11:00:02Z</time>
      </trkpt>
      <trkpt lat="41.611191700" lon="2.499170400">
        <ele>443.30</ele>
        <time>2013-03-10T11:00:05Z</time>
      </trkpt>
      <trkpt lat="41.611170600" lon="2.499271800">
        <ele>445.70</ele>
        <time>2013-03-10T11:00:12Z</time>
      </trkpt>
      <trkpt lat="41.611163900" lon="2.499322900">
        <ele>447.10</ele>
        <time>2013-03-10T11:00:16Z</time>
      </trkpt>
      <trkpt lat="41.611177500" lon="2.499423600">
        <ele>449.50</ele>
        <time>2013-03-10T11:00:21Z</time>
      </trkpt>
      <trkpt lat="41.611194700" lon="2.499555700">
        <ele>452.40</ele>
        <time>2013-03-10T11:00:30Z</time>
      </trkpt>
      <trkpt lat="41.611195800" lon="2.499570400">
        <ele>452.90</ele>
        <time>2013-03-10T11:00:31Z</time>
      </trkpt>
      <trkpt lat="41.611206100" lon="2.499710300">
        <ele>453.40</ele>
        <time>2013-03-10T11:00:38Z</time>
      </trkpt>
      <trkpt lat="41.611192500" lon="2.499957100">
        <ele>454.80</ele>
        <time>2013-03-10T11:00:49Z</time>
      </trkpt>
      <trkpt lat="41.611165900" lon="2.500074400">
        <ele>456.30</ele>
        <time>2013-03-10T11:00:56Z</time>
      </trkpt>
      <trkpt lat="41.611155600" lon="2.500096100">
        <ele>456.30</ele>
        <time>2013-03-10T11:00:58Z</time>
      </trkpt>
      <trkpt lat="41.611138600" lon="2.500149500">
        <ele>456.80</ele>
        <time>2013-03-10T11:01:01Z</time>
      </trkpt>
      <trkpt lat="41.611118100" lon="2.500220300">
        <ele>457.70</ele>
        <time>2013-03-10T11:01:05Z</time>
      </trkpt>
      <trkpt lat="41.611114200" lon="2.500251400">
        <ele>457.70</ele>
        <time>2013-03-10T11:01:06Z</time>
      </trkpt>
      <trkpt lat="41.611099000" lon="2.500388800">
        <ele>458.70</ele>
        <time>2013-03-10T11:01:15Z</time>
      </trkpt>
      <trkpt lat="41.611036200" lon="2.500515800">
        <ele>460.10</ele>
        <time>2013-03-10T11:01:20Z</time>
      </trkpt>
      <trkpt lat="41.610927900" lon="2.500651400">
        <ele>462.00</ele>
        <time>2013-03-10T11:01:29Z</time>
      </trkpt>
      <trkpt lat="41.610844300" lon="2.500677300">
        <ele>462.50</ele>
        <time>2013-03-10T11:01:34Z</time>
      </trkpt>
      <trkpt lat="41.610715100" lon="2.500733200">
        <ele>463.50</ele>
        <time>2013-03-10T11:01:41Z</time>
      </trkpt>
      <trkpt lat="41.610620000" lon="2.500797900">
        <ele>462.00</ele>
        <time>2013-03-10T11:01:43Z</time>
      </trkpt>
      <trkpt lat="41.610410700" lon="2.500892700">
        <ele>458.70</ele>
        <time>2013-03-10T11:01:50Z</time>
      </trkpt>
      <trkpt lat="41.610202500" lon="2.500968900">
        <ele>454.80</ele>
        <time>2013-03-10T11:01:53Z</time>
      </trkpt>
      <trkpt lat="41.610065700" lon="2.501046300">
        <ele>453.40</ele>
        <time>2013-03-10T11:01:57Z</time>
      </trkpt>
      <trkpt lat="41.610045500" lon="2.501266700">
        <ele>452.00</ele>
        <time>2013-03-10T11:02:00Z</time>
      </trkpt>
      <trkpt lat="41.610031600" lon="2.501630300">
        <ele>449.50</ele>
        <time>2013-03-10T11:02:04Z</time>
      </trkpt>
      <trkpt lat="41.610016700" lon="2.501858800">
        <ele>446.70</ele>
        <time>2013-03-10T11:02:07Z</time>
      </trkpt>
      <trkpt lat="41.609934400" lon="2.502094700">
        <ele>444.30</ele>
        <time>2013-03-10T11:02:11Z</time>
      </trkpt>
      <trkpt lat="41.609889800" lon="2.502104900">
        <ele>443.80</ele>
        <time>2013-03-10T11:02:11Z</time>
      </trkpt>
      <trkpt lat="41.609684400" lon="2.502139700">
        <ele>442.30</ele>
        <time>2013-03-10T11:02:16Z</time>
      </trkpt>
      <trkpt lat="41.609495700" lon="2.502172600">
        <ele>441.40</ele>
        <time>2013-03-10T11:02:18Z</time>
      </trkpt>
      <trkpt lat="41.609296300" lon="2.502313500">
        <ele>439.50</ele>
        <time>2013-03-10T11:02:23Z</time>
      </trkpt>
      <trkpt lat="41.609277800" lon="2.502357100">
        <ele>439.00</ele>
        <time>2013-03-10T11:02:25Z</time>
      </trkpt>
      <trkpt lat="41.609222900" lon="2.502544200">
        <ele>439.90</ele>
        <time>2013-03-10T11:02:32Z</time>
      </trkpt>
      <trkpt lat="41.609246900" lon="2.502699400">
        <ele>441.90</ele>
        <time>2013-03-10T11:02:39Z</time>
      </trkpt>
      <trkpt lat="41.609293900" lon="2.502847000">
        <ele>439.90</ele>
        <time>2013-03-10T11:02:42Z</time>
      </trkpt>
      <trkpt lat="41.609304100" lon="2.502910100">
        <ele>439.00</ele>
        <time>2013-03-10T11:02:44Z</time>
      </trkpt>
      <trkpt lat="41.609328800" lon="2.503020000">
        <ele>437.50</ele>
        <time>2013-03-10T11:02:46Z</time>
      </trkpt>
      <trkpt lat="41.609445000" lon="2.503381000">
        <ele>433.20</ele>
        <time>2013-03-10T11:02:51Z</time>
      </trkpt>
      <trkpt lat="41.609472700" lon="2.503451700">
        <ele>432.20</ele>
        <time>2013-03-10T11:02:53Z</time>
      </trkpt>
      <trkpt lat="41.609552400" lon="2.503659400">
        <ele>429.90</ele>
        <time>2013-03-10T11:02:56Z</time>
      </trkpt>
      <trkpt lat="41.609661200" lon="2.504197100">
        <ele>426.50</ele>
        <time>2013-03-10T11:03:03Z</time>
      </trkpt>
      <trkpt lat="41.609750800" lon="2.504362300">
        <ele>427.90</ele>
        <time>2013-03-10T11:03:06Z</time>
      </trkpt>
      <trkpt lat="41.609956900" lon="2.504560900">
        <ele>427.40</ele>
        <time>2013-03-10T11:03:15Z</time>
      </trkpt>
      <trkpt lat="41.610031500" lon="2.504789800">
        <ele>425.00</ele>
        <time>2013-03-10T11:03:19Z</time>
      </trkpt>
      <trkpt lat="41.610094200" lon="2.504953700">
        <ele>422.60</ele>
        <time>2013-03-10T11:03:24Z</time>
      </trkpt>
      <trkpt lat="41.610171900" lon="2.505078100">
        <ele>419.80</ele>
        <time>2013-03-10T11:03:27Z</time>
      </trkpt>
      <trkpt lat="41.610226700" lon="2.505195000">
        <ele>417.80</ele>
        <time>2013-03-10T11:03:31Z</time>
      </trkpt>
      <trkpt lat="41.610241900" lon="2.505293500">
        <ele>416.40</ele>
        <time>2013-03-10T11:03:33Z</time>
      </trkpt>
      <trkpt lat="41.610255400" lon="2.505512400">
        <ele>414.00</ele>
        <time>2013-03-10T11:03:38Z</time>
      </trkpt>
      <trkpt lat="41.610268100" lon="2.505691000">
        <ele>412.10</ele>
        <time>2013-03-10T11:03:41Z</time>
      </trkpt>
      <trkpt lat="41.610254300" lon="2.505918500">
        <ele>409.70</ele>
        <time>2013-03-10T11:03:47Z</time>
      </trkpt>
      <trkpt lat="41.610243900" lon="2.505974900">
        <ele>409.20</ele>
        <time>2013-03-10T11:03:48Z</time>
      </trkpt>
      <trkpt lat="41.610219300" lon="2.506158100">
        <ele>406.80</ele>
        <time>2013-03-10T11:03:52Z</time>
      </trkpt>
      <trkpt lat="41.610218800" lon="2.506201800">
        <ele>405.80</ele>
        <time>2013-03-10T11:03:52Z</time>
      </trkpt>
      <trkpt lat="41.610126700" lon="2.506357200">
        <ele>402.00</ele>
        <time>2013-03-10T11:03:57Z</time>
      </trkpt>
      <trkpt lat="41.610045700" lon="2.506424700">
        <ele>400.50</ele>
        <time>2013-03-10T11:04:00Z</time>
      </trkpt>
      <trkpt lat="41.609888500" lon="2.506472700">
        <ele>398.10</ele>
        <time>2013-03-10T11:04:06Z</time>
      </trkpt>
      <trkpt lat="41.609772100" lon="2.506424200">
        <ele>396.20</ele>
        <time>2013-03-10T11:04:09Z</time>
      </trkpt>
      <trkpt lat="41.609721300" lon="2.506376200">
        <ele>395.20</ele>
        <time>2013-03-10T11:04:11Z</time>
      </trkpt>
      <trkpt lat="41.609570500" lon="2.506210700">
        <ele>394.80</ele>
        <time>2013-03-10T11:04:16Z</time>
      </trkpt>
      <trkpt lat="41.609408400" lon="2.506128900">
        <ele>392.40</ele>
        <time>2013-03-10T11:04:21Z</time>
      </trkpt>
      <trkpt lat="41.609383100" lon="2.506139900">
        <ele>392.40</ele>
        <time>2013-03-10T11:04:23Z</time>
      </trkpt>
      <trkpt lat="41.609368100" lon="2.506240500">
        <ele>392.40</ele>
        <time>2013-03-10T11:04:27Z</time>
      </trkpt>
      <trkpt lat="41.609366600" lon="2.506429200">
        <ele>393.30</ele>
        <time>2013-03-10T11:04:34Z</time>
      </trkpt>
      <trkpt lat="41.609367500" lon="2.506508400">
        <ele>394.30</ele>
        <time>2013-03-10T11:04:37Z</time>
      </trkpt>
      <trkpt lat="41.609371500" lon="2.506599400">
        <ele>395.70</ele>
        <time>2013-03-10T11:04:44Z</time>
      </trkpt>
      <trkpt lat="41.609323900" lon="2.506713100">
        <ele>396.20</ele>
        <time>2013-03-10T11:04:51Z</time>
      </trkpt>
      <trkpt lat="41.609275800" lon="2.506878600">
        <ele>397.20</ele>
        <time>2013-03-10T11:04:58Z</time>
      </trkpt>
      <trkpt lat="41.609261700" lon="2.506923500">
        <ele>397.60</ele>
        <time>2013-03-10T11:05:00Z</time>
      </trkpt>
      <trkpt lat="41.609254900" lon="2.507039000">
        <ele>398.10</ele>
        <time>2013-03-10T11:05:05Z</time>
      </trkpt>
      <trkpt lat="41.609233600" lon="2.507368800">
        <ele>398.10</ele>
        <time>2013-03-10T11:05:14Z</time>
      </trkpt>
      <trkpt lat="41.609223400" lon="2.507604800">
        <ele>397.60</ele>
        <time>2013-03-10T11:05:21Z</time>
      </trkpt>
      <trkpt lat="41.609249500" lon="2.507800100">
        <ele>398.60</ele>
        <time>2013-03-10T11:05:26Z</time>
      </trkpt>
      <trkpt lat="41.609305100" lon="2.507957400">
        <ele>399.10</ele>
        <time>2013-03-10T11:05:33Z</time>
      </trkpt>
      <trkpt lat="41.609327100" lon="2.507991000">
        <ele>399.60</ele>
        <time>2013-03-10T11:05:35Z</time>
      </trkpt>
      <trkpt lat="41.609386600" lon="2.508118300">
        <ele>399.60</ele>
        <time>2013-03-10T11:05:40Z</time>
      </trkpt>
      <trkpt lat="41.609505800" lon="2.508248900">
        <ele>399.10</ele>
        <time>2013-03-10T11:05:47Z</time>
      </trkpt>
      <trkpt lat="41.609658600" lon="2.508451500">
        <ele>398.10</ele>
        <time>2013-03-10T11:05:52Z</time>
      </trkpt>
      <trkpt lat="41.609842500" lon="2.508617300">
        <ele>397.60</ele>
        <time>2013-03-10T11:06:01Z</time>
      </trkpt>
      <trkpt lat="41.609875300" lon="2.508650400">
        <ele>397.20</ele>
        <time>2013-03-10T11:06:06Z</time>
      </trkpt>
      <trkpt lat="41.609888300" lon="2.508663900">
        <ele>397.20</ele>
        <time>2013-03-10T11:06:11Z</time>
      </trkpt>
      <trkpt lat="41.609911900" lon="2.508647900">
        <ele>397.60</ele>
        <time>2013-03-10T11:06:29Z</time>
      </trkpt>
      <trkpt lat="41.609909900" lon="2.508636600">
        <ele>397.60</ele>
        <time>2013-03-10T11:06:44Z</time>
      </trkpt>
      <trkpt lat="41.609911700" lon="2.508640100">
        <ele>397.20</ele>
        <time>2013-03-10T11:06:46Z</time>
      </trkpt>
      <trkpt lat="41.610005000" lon="2.508739800">
        <ele>396.70</ele>
        <time>2013-03-10T11:06:53Z</time>
      </trkpt>
      <trkpt lat="41.610182500" lon="2.508962800">
        <ele>396.20</ele>
        <time>2013-03-10T11:07:02Z</time>
      </trkpt>
      <trkpt lat="41.610232400" lon="2.509010500">
        <ele>397.20</ele>
        <time>2013-03-10T11:07:05Z</time>
      </trkpt>
      <trkpt lat="41.610241900" lon="2.509042600">
        <ele>396.70</ele>
        <time>2013-03-10T11:07:10Z</time>
      </trkpt>
      <trkpt lat="41.610221200" lon="2.509021100">
        <ele>397.20</ele>
        <time>2013-03-10T11:07:17Z</time>
      </trkpt>
      <trkpt lat="41.610230000" lon="2.509034500">
        <ele>397.20</ele>
        <time>2013-03-10T11:07:28Z</time>
      </trkpt>
      <trkpt lat="41.610222000" lon="2.509038500">
        <ele>397.20</ele>
        <time>2013-03-10T11:07:38Z</time>
      </trkpt>
      <trkpt lat="41.610217300" lon="2.509045100">
        <ele>396.70</ele>
        <time>2013-03-10T11:07:56Z</time>
      </trkpt>
      <trkpt lat="41.610213200" lon="2.509035300">
        <ele>396.70</ele>
        <time>2013-03-10T11:08:06Z</time>
      </trkpt>
      <trkpt lat="41.610212200" lon="2.509036600">
        <ele>397.20</ele>
        <time>2013-03-10T11:08:22Z</time>
      </trkpt>
      <trkpt lat="41.610220100" lon="2.509030800">
        <ele>396.70</ele>
        <time>2013-03-10T11:08:43Z</time>
      </trkpt>
      <trkpt lat="41.610236700" lon="2.509041600">
        <ele>396.70</ele>
        <time>2013-03-10T11:08:48Z</time>
      </trkpt>
      <trkpt lat="41.610237200" lon="2.509057300">
        <ele>396.70</ele>
        <time>2013-03-10T11:08:53Z</time>
      </trkpt>
      <trkpt lat="41.610335100" lon="2.509158600">
        <ele>397.20</ele>
        <time>2013-03-10T11:09:02Z</time>
      </trkpt>
      <trkpt lat="41.610352200" lon="2.509167000">
        <ele>398.10</ele>
        <time>2013-03-10T11:09:07Z</time>
      </trkpt>
      <trkpt lat="41.610347100" lon="2.509142600">
        <ele>397.20</ele>
        <time>2013-03-10T11:09:16Z</time>
      </trkpt>
      <trkpt lat="41.610336200" lon="2.509154400">
        <ele>397.20</ele>
        <time>2013-03-10T11:09:26Z</time>
      </trkpt>
      <trkpt lat="41.610333900" lon="2.509159600">
        <ele>396.70</ele>
        <time>2013-03-10T11:09:42Z</time>
      </trkpt>
      <trkpt lat="41.610332700" lon="2.509174200">
        <ele>397.20</ele>
        <time>2013-03-10T11:09:51Z</time>
      </trkpt>
      <trkpt lat="41.610336100" lon="2.509181900">
        <ele>397.60</ele>
        <time>2013-03-10T11:10:10Z</time>
      </trkpt>
      <trkpt lat="41.610336200" lon="2.509172600">
        <ele>397.60</ele>
        <time>2013-03-10T11:10:17Z</time>
      </trkpt>
      <trkpt lat="41.610359600" lon="2.509189300">
        <ele>396.70</ele>
        <time>2013-03-10T11:10:29Z</time>
      </trkpt>
      <trkpt lat="41.610428600" lon="2.509296900">
        <ele>398.10</ele>
        <time>2013-03-10T11:10:36Z</time>
      </trkpt>
      <trkpt lat="41.610514100" lon="2.509445300">
        <ele>399.10</ele>
        <time>2013-03-10T11:10:45Z</time>
      </trkpt>
      <trkpt lat="41.610578700" lon="2.509628100">
        <ele>401.00</ele>
        <time>2013-03-10T11:10:53Z</time>
      </trkpt>
      <trkpt lat="41.610622800" lon="2.509789700">
        <ele>401.50</ele>
        <time>2013-03-10T11:11:00Z</time>
      </trkpt>
      <trkpt lat="41.610668700" lon="2.509972900">
        <ele>402.00</ele>
        <time>2013-03-10T11:11:07Z</time>
      </trkpt>
      <trkpt lat="41.610738700" lon="2.510156300">
        <ele>402.00</ele>
        <time>2013-03-10T11:11:14Z</time>
      </trkpt>
      <trkpt lat="41.610746000" lon="2.510190500">
        <ele>401.50</ele>
        <time>2013-03-10T11:11:19Z</time>
      </trkpt>
      <trkpt lat="41.610734000" lon="2.510183800">
        <ele>401.50</ele>
        <time>2013-03-10T11:11:37Z</time>
      </trkpt>
      <trkpt lat="41.610729800" lon="2.510168700">
        <ele>401.50</ele>
        <time>2013-03-10T11:11:49Z</time>
      </trkpt>
      <trkpt lat="41.610736100" lon="2.510171700">
        <ele>401.50</ele>
        <time>2013-03-10T11:12:01Z</time>
      </trkpt>
      <trkpt lat="41.610769100" lon="2.510237600">
        <ele>401.00</ele>
        <time>2013-03-10T11:12:08Z</time>
      </trkpt>
      <trkpt lat="41.610835800" lon="2.510312400">
        <ele>400.50</ele>
        <time>2013-03-10T11:12:10Z</time>
      </trkpt>
      <trkpt lat="41.610945100" lon="2.510408300">
        <ele>399.60</ele>
        <time>2013-03-10T11:12:13Z</time>
      </trkpt>
      <trkpt lat="41.611232800" lon="2.510831800">
        <ele>397.60</ele>
        <time>2013-03-10T11:12:20Z</time>
      </trkpt>
      <trkpt lat="41.611406600" lon="2.511089700">
        <ele>396.20</ele>
        <time>2013-03-10T11:12:24Z</time>
      </trkpt>
      <trkpt lat="41.611587900" lon="2.511314600">
        <ele>395.20</ele>
        <time>2013-03-10T11:12:29Z</time>
      </trkpt>
      <trkpt lat="41.611783600" lon="2.511610900">
        <ele>394.80</ele>
        <time>2013-03-10T11:12:34Z</time>
      </trkpt>
      <trkpt lat="41.611840800" lon="2.511608800">
        <ele>394.30</ele>
        <time>2013-03-10T11:12:36Z</time>
      </trkpt>
      <trkpt lat="41.612089300" lon="2.511602500">
        <ele>389.00</ele>
        <time>2013-03-10T11:12:41Z</time>
      </trkpt>
      <trkpt lat="41.612140800" lon="2.511650600">
        <ele>388.00</ele>
        <time>2013-03-10T11:12:43Z</time>
      </trkpt>
      <trkpt lat="41.612196400" lon="2.511735500">
        <ele>387.10</ele>
        <time>2013-03-10T11:12:45Z</time>
      </trkpt>
      <trkpt lat="41.612368300" lon="2.512121800">
        <ele>383.70</ele>
        <time>2013-03-10T11:12:50Z</time>
      </trkpt>
      <trkpt lat="41.612415200" lon="2.512281100">
        <ele>382.30</ele>
        <time>2013-03-10T11:12:52Z</time>
      </trkpt>
      <trkpt lat="41.612542300" lon="2.512646800">
        <ele>380.30</ele>
        <time>2013-03-10T11:12:57Z</time>
      </trkpt>
      <trkpt lat="41.612571200" lon="2.512740200">
        <ele>380.80</ele>
        <time>2013-03-10T11:13:02Z</time>
      </trkpt>
      <trkpt lat="41.612582300" lon="2.512732400">
        <ele>381.30</ele>
        <time>2013-03-10T11:13:09Z</time>
      </trkpt>
      <trkpt lat="41.612581100" lon="2.512731500">
        <ele>381.30</ele>
        <time>2013-03-10T11:13:21Z</time>
      </trkpt>
      <trkpt lat="41.612590000" lon="2.512738900">
        <ele>380.80</ele>
        <time>2013-03-10T11:13:41Z</time>
      </trkpt>
      <trkpt lat="41.612596100" lon="2.512796500">
        <ele>380.80</ele>
        <time>2013-03-10T11:13:51Z</time>
      </trkpt>
      <trkpt lat="41.612607100" lon="2.513009000">
        <ele>378.90</ele>
        <time>2013-03-10T11:13:56Z</time>
      </trkpt>
      <trkpt lat="41.612626900" lon="2.513168000">
        <ele>378.90</ele>
        <time>2013-03-10T11:14:00Z</time>
      </trkpt>
      <trkpt lat="41.612569800" lon="2.513346000">
        <ele>379.40</ele>
        <time>2013-03-10T11:14:07Z</time>
      </trkpt>
      <trkpt lat="41.612483500" lon="2.513470500">
        <ele>379.40</ele>
        <time>2013-03-10T11:14:12Z</time>
      </trkpt>
      <trkpt lat="41.612291200" lon="2.513762300">
        <ele>379.40</ele>
        <time>2013-03-10T11:14:19Z</time>
      </trkpt>
      <trkpt lat="41.612247300" lon="2.513826400">
        <ele>379.40</ele>
        <time>2013-03-10T11:14:22Z</time>
      </trkpt>
      <trkpt lat="41.612151300" lon="2.514033900">
        <ele>380.80</ele>
        <time>2013-03-10T11:14:28Z</time>
      </trkpt>
      <trkpt lat="41.612115800" lon="2.514116200">
        <ele>381.30</ele>
        <time>2013-03-10T11:14:31Z</time>
      </trkpt>
      <trkpt lat="41.612026600" lon="2.514431400">
        <ele>380.80</ele>
        <time>2013-03-10T11:14:38Z</time>
      </trkpt>
      <trkpt lat="41.612012900" lon="2.514483000">
        <ele>380.80</ele>
        <time>2013-03-10T11:14:40Z</time>
      </trkpt>
      <trkpt lat="41.611931700" lon="2.514709100">
        <ele>379.40</ele>
        <time>2013-03-10T11:14:43Z</time>
      </trkpt>
      <trkpt lat="41.611863100" lon="2.515099400">
        <ele>379.90</ele>
        <time>2013-03-10T11:14:52Z</time>
      </trkpt>
      <trkpt lat="41.611844700" lon="2.515174200">
        <ele>379.90</ele>
        <time>2013-03-10T11:14:54Z</time>
      </trkpt>
      <trkpt lat="41.611826300" lon="2.515289200">
        <ele>380.30</ele>
        <time>2013-03-10T11:14:57Z</time>
      </trkpt>
      <trkpt lat="41.611875000" lon="2.515407300">
        <ele>380.80</ele>
        <time>2013-03-10T11:15:01Z</time>
      </trkpt>
      <trkpt lat="41.611924200" lon="2.515466600">
        <ele>380.80</ele>
        <time>2013-03-10T11:15:04Z</time>
      </trkpt>
      <trkpt lat="41.612003900" lon="2.515536900">
        <ele>380.30</ele>
        <time>2013-03-10T11:15:11Z</time>
      </trkpt>
      <trkpt lat="41.612003600" lon="2.515560000">
        <ele>379.90</ele>
        <time>2013-03-10T11:15:27Z</time>
      </trkpt>
      <trkpt lat="41.612005200" lon="2.515573800">
        <ele>380.30</ele>
        <time>2013-03-10T11:15:37Z</time>
      </trkpt>
      <trkpt lat="41.612099800" lon="2.515563400">
        <ele>378.90</ele>
        <time>2013-03-10T11:15:44Z</time>
      </trkpt>
      <trkpt lat="41.612116000" lon="2.515551900">
        <ele>378.90</ele>
        <time>2013-03-10T11:15:44Z</time>
      </trkpt>
      <trkpt lat="41.612227400" lon="2.515526600">
        <ele>377.00</ele>
        <time>2013-03-10T11:15:49Z</time>
      </trkpt>
      <trkpt lat="41.612252300" lon="2.515521800">
        <ele>377.00</ele>
        <time>2013-03-10T11:15:51Z</time>
      </trkpt>
      <trkpt lat="41.612298900" lon="2.515561700">
        <ele>374.10</ele>
        <time>2013-03-10T11:15:58Z</time>
      </trkpt>
      <trkpt lat="41.612307700" lon="2.515559000">
        <ele>373.60</ele>
        <time>2013-03-10T11:16:03Z</time>
      </trkpt>
      <trkpt lat="41.612353100" lon="2.515570800">
        <ele>374.10</ele>
        <time>2013-03-10T11:16:16Z</time>
      </trkpt>
      <trkpt lat="41.612390300" lon="2.515570700">
        <ele>373.60</ele>
        <time>2013-03-10T11:16:33Z</time>
      </trkpt>
      <trkpt lat="41.612389200" lon="2.515586600">
        <ele>373.10</ele>
        <time>2013-03-10T11:16:43Z</time>
      </trkpt>
      <trkpt lat="41.612337200" lon="2.515654400">
        <ele>371.70</ele>
        <time>2013-03-10T11:16:47Z</time>
      </trkpt>
      <trkpt lat="41.612290600" lon="2.515815900">
        <ele>368.80</ele>
        <time>2013-03-10T11:16:52Z</time>
      </trkpt>
      <trkpt lat="41.612275500" lon="2.515889600">
        <ele>367.40</ele>
        <time>2013-03-10T11:16:56Z</time>
      </trkpt>
      <trkpt lat="41.612088600" lon="2.516083200">
        <ele>364.50</ele>
        <time>2013-03-10T11:17:03Z</time>
      </trkpt>
      <trkpt lat="41.612014900" lon="2.516127400">
        <ele>364.00</ele>
        <time>2013-03-10T11:17:04Z</time>
      </trkpt>
      <trkpt lat="41.611987000" lon="2.516339300">
        <ele>362.10</ele>
        <time>2013-03-10T11:17:11Z</time>
      </trkpt>
      <trkpt lat="41.611998100" lon="2.516397900">
        <ele>360.10</ele>
        <time>2013-03-10T11:17:13Z</time>
      </trkpt>
      <trkpt lat="41.611988600" lon="2.516487200">
        <ele>359.70</ele>
        <time>2013-03-10T11:17:20Z</time>
      </trkpt>
      <trkpt lat="41.611969900" lon="2.516564200">
        <ele>359.20</ele>
        <time>2013-03-10T11:17:41Z</time>
      </trkpt>
      <trkpt lat="41.611956300" lon="2.516585700">
        <ele>358.70</ele>
        <time>2013-03-10T11:17:57Z</time>
      </trkpt>
      <trkpt lat="41.611938800" lon="2.516699800">
        <ele>358.20</ele>
        <time>2013-03-10T11:18:02Z</time>
      </trkpt>
      <trkpt lat="41.611936600" lon="2.516758300">
        <ele>357.80</ele>
        <time>2013-03-10T11:18:05Z</time>
      </trkpt>
      <trkpt lat="41.611947000" lon="2.516884100">
        <ele>357.30</ele>
        <time>2013-03-10T11:18:07Z</time>
      </trkpt>
      <trkpt lat="41.611892700" lon="2.517024700">
        <ele>356.80</ele>
        <time>2013-03-10T11:18:14Z</time>
      </trkpt>
      <trkpt lat="41.611796700" lon="2.517158600">
        <ele>355.30</ele>
        <time>2013-03-10T11:18:18Z</time>
      </trkpt>
      <trkpt lat="41.611744000" lon="2.517381800">
        <ele>352.00</ele>
        <time>2013-03-10T11:18:23Z</time>
      </trkpt>
      <trkpt lat="41.611734000" lon="2.517423600">
        <ele>351.00</ele>
        <time>2013-03-10T11:18:23Z</time>
      </trkpt>
      <trkpt lat="41.611700900" lon="2.517671600">
        <ele>347.20</ele>
        <time>2013-03-10T11:18:30Z</time>
      </trkpt>
      <trkpt lat="41.611700100" lon="2.517710400">
        <ele>347.20</ele>
        <time>2013-03-10T11:18:30Z</time>
      </trkpt>
      <trkpt lat="41.611685800" lon="2.517958100">
        <ele>344.30</ele>
        <time>2013-03-10T11:18:37Z</time>
      </trkpt>
      <trkpt lat="41.611672600" lon="2.518051000">
        <ele>342.90</ele>
        <time>2013-03-10T11:18:38Z</time>
      </trkpt>
      <trkpt lat="41.611692000" lon="2.518258000">
        <ele>339.50</ele>
        <time>2013-03-10T11:18:44Z</time>
      </trkpt>
      <trkpt lat="41.611684300" lon="2.518287000">
        <ele>339.50</ele>
        <time>2013-03-10T11:18:45Z</time>
      </trkpt>
      <trkpt lat="41.611702100" lon="2.518352200">
        <ele>338.50</ele>
        <time>2013-03-10T11:18:49Z</time>
      </trkpt>
      <trkpt lat="41.611718100" lon="2.518291300">
        <ele>338.00</ele>
        <time>2013-03-10T11:18:52Z</time>
      </trkpt>
      <trkpt lat="41.611824100" lon="2.518042500">
        <ele>334.20</ele>
        <time>2013-03-10T11:18:58Z</time>
      </trkpt>
      <trkpt lat="41.611850600" lon="2.517976200">
        <ele>333.70</ele>
        <time>2013-03-10T11:19:03Z</time>
      </trkpt>
      <trkpt lat="41.611844100" lon="2.517977000">
        <ele>333.70</ele>
        <time>2013-03-10T11:19:08Z</time>
      </trkpt>
      <trkpt lat="41.611828300" lon="2.518000200">
        <ele>333.20</ele>
        <time>2013-03-10T11:19:29Z</time>
      </trkpt>
      <trkpt lat="41.611846700" lon="2.517982900">
        <ele>332.30</ele>
        <time>2013-03-10T11:19:46Z</time>
      </trkpt>
      <trkpt lat="41.611845500" lon="2.517973600">
        <ele>333.20</ele>
        <time>2013-03-10T11:20:07Z</time>
      </trkpt>
      <trkpt lat="41.611855800" lon="2.517972200">
        <ele>333.20</ele>
        <time>2013-03-10T11:20:18Z</time>
      </trkpt>
      <trkpt lat="41.611886800" lon="2.517901300">
        <ele>332.30</ele>
        <time>2013-03-10T11:20:23Z</time>
      </trkpt>
      <trkpt lat="41.611985500" lon="2.517727300">
        <ele>329.90</ele>
        <time>2013-03-10T11:20:28Z</time>
      </trkpt>
      <trkpt lat="41.612087600" lon="2.517687600">
        <ele>328.40</ele>
        <time>2013-03-10T11:20:32Z</time>
      </trkpt>
      <trkpt lat="41.612213000" lon="2.517654200">
        <ele>327.50</ele>
        <time>2013-03-10T11:20:37Z</time>
      </trkpt>
      <trkpt lat="41.612347600" lon="2.517544900">
        <ele>326.00</ele>
        <time>2013-03-10T11:20:44Z</time>
      </trkpt>
      <trkpt lat="41.612430600" lon="2.517355500">
        <ele>325.10</ele>
        <time>2013-03-10T11:20:49Z</time>
      </trkpt>
      <trkpt lat="41.612518000" lon="2.517100800">
        <ele>324.10</ele>
        <time>2013-03-10T11:20:54Z</time>
      </trkpt>
      <trkpt lat="41.612546400" lon="2.517000800">
        <ele>323.60</ele>
        <time>2013-03-10T11:20:56Z</time>
      </trkpt>
      <trkpt lat="41.612719600" lon="2.516847400">
        <ele>323.10</ele>
        <time>2013-03-10T11:21:01Z</time>
      </trkpt>
      <trkpt lat="41.612806900" lon="2.516844100">
        <ele>323.10</ele>
        <time>2013-03-10T11:21:03Z</time>
      </trkpt>
      <trkpt lat="41.613057300" lon="2.516780300">
        <ele>320.30</ele>
        <time>2013-03-10T11:21:10Z</time>
      </trkpt>
      <trkpt lat="41.613121500" lon="2.516762900">
        <ele>319.80</ele>
        <time>2013-03-10T11:21:12Z</time>
      </trkpt>
      <trkpt lat="41.613113200" lon="2.516823800">
        <ele>318.30</ele>
        <time>2013-03-10T11:21:15Z</time>
      </trkpt>
      <trkpt lat="41.613053700" lon="2.516851300">
        <ele>317.40</ele>
        <time>2013-03-10T11:21:17Z</time>
      </trkpt>
      <trkpt lat="41.612981100" lon="2.516901100">
        <ele>316.90</ele>
        <time>2013-03-10T11:21:19Z</time>
      </trkpt>
      <trkpt lat="41.612815400" lon="2.516951300">
        <ele>315.50</ele>
        <time>2013-03-10T11:21:22Z</time>
      </trkpt>
      <trkpt lat="41.612686700" lon="2.517045300">
        <ele>314.50</ele>
        <time>2013-03-10T11:21:27Z</time>
      </trkpt>
      <trkpt lat="41.612691000" lon="2.517089300">
        <ele>314.50</ele>
        <time>2013-03-10T11:21:29Z</time>
      </trkpt>
      <trkpt lat="41.612678800" lon="2.517363000">
        <ele>313.00</ele>
        <time>2013-03-10T11:21:34Z</time>
      </trkpt>
      <trkpt lat="41.612608500" lon="2.517687100">
        <ele>310.60</ele>
        <time>2013-03-10T11:21:41Z</time>
      </trkpt>
      <trkpt lat="41.612550600" lon="2.517752400">
        <ele>309.70</ele>
        <time>2013-03-10T11:21:43Z</time>
      </trkpt>
      <trkpt lat="41.612441100" lon="2.517965300">
        <ele>306.30</ele>
        <time>2013-03-10T11:21:48Z</time>
      </trkpt>
      <trkpt lat="41.612397700" lon="2.518096900">
        <ele>303.40</ele>
        <time>2013-03-10T11:21:52Z</time>
      </trkpt>
      <trkpt lat="41.612443100" lon="2.518267000">
        <ele>302.00</ele>
        <time>2013-03-10T11:21:55Z</time>
      </trkpt>
      <trkpt lat="41.612469200" lon="2.518356500">
        <ele>300.50</ele>
        <time>2013-03-10T11:21:57Z</time>
      </trkpt>
      <trkpt lat="41.612483300" lon="2.518321400">
        <ele>299.60</ele>
        <time>2013-03-10T11:21:59Z</time>
      </trkpt>
      <trkpt lat="41.612502700" lon="2.518197000">
        <ele>298.10</ele>
        <time>2013-03-10T11:22:02Z</time>
      </trkpt>
      <trkpt lat="41.612627300" lon="2.518109500">
        <ele>295.70</ele>
        <time>2013-03-10T11:22:07Z</time>
      </trkpt>
      <trkpt lat="41.612723100" lon="2.518011700">
        <ele>293.30</ele>
        <time>2013-03-10T11:22:11Z</time>
      </trkpt>
      <trkpt lat="41.612847700" lon="2.518048200">
        <ele>290.00</ele>
        <time>2013-03-10T11:22:16Z</time>
      </trkpt>
      <trkpt lat="41.612958700" lon="2.518020500">
        <ele>287.10</ele>
        <time>2013-03-10T11:22:21Z</time>
      </trkpt>
      <trkpt lat="41.612987600" lon="2.518000300">
        <ele>286.10</ele>
        <time>2013-03-10T11:22:23Z</time>
      </trkpt>
      <trkpt lat="41.613065900" lon="2.517943900">
        <ele>284.70</ele>
        <time>2013-03-10T11:22:30Z</time>
      </trkpt>
      <trkpt lat="41.613134200" lon="2.517722200">
        <ele>283.20</ele>
        <time>2013-03-10T11:22:35Z</time>
      </trkpt>
      <trkpt lat="41.613291700" lon="2.517651900">
        <ele>282.80</ele>
        <time>2013-03-10T11:22:41Z</time>
      </trkpt>
      <trkpt lat="41.613394900" lon="2.517734200">
        <ele>282.30</ele>
        <time>2013-03-10T11:22:46Z</time>
      </trkpt>
      <trkpt lat="41.613571500" lon="2.517868100">
        <ele>279.40</ele>
        <time>2013-03-10T11:22:51Z</time>
      </trkpt>
      <trkpt lat="41.613735300" lon="2.517887100">
        <ele>277.50</ele>
        <time>2013-03-10T11:22:54Z</time>
      </trkpt>
      <trkpt lat="41.613874300" lon="2.517897600">
        <ele>274.10</ele>
        <time>2013-03-10T11:23:00Z</time>
      </trkpt>
      <trkpt lat="41.613926200" lon="2.517897900">
        <ele>272.70</ele>
        <time>2013-03-10T11:23:05Z</time>
      </trkpt>
      <trkpt lat="41.613936200" lon="2.517905700">
        <ele>272.20</ele>
        <time>2013-03-10T11:23:22Z</time>
      </trkpt>
      <trkpt lat="41.613950000" lon="2.517909300">
        <ele>272.70</ele>
        <time>2013-03-10T11:23:29Z</time>
      </trkpt>
      <trkpt lat="41.614038500" lon="2.517929200">
        <ele>270.80</ele>
        <time>2013-03-10T11:23:33Z</time>
      </trkpt>
      <trkpt lat="41.614162300" lon="2.517958500">
        <ele>267.90</ele>
        <time>2013-03-10T11:23:40Z</time>
      </trkpt>
      <trkpt lat="41.614266300" lon="2.517958500">
        <ele>265.50</ele>
        <time>2013-03-10T11:23:45Z</time>
      </trkpt>
      <trkpt lat="41.614316000" lon="2.517961700">
        <ele>264.50</ele>
        <time>2013-03-10T11:23:50Z</time>
      </trkpt>
      <trkpt lat="41.614342500" lon="2.517955100">
        <ele>264.50</ele>
        <time>2013-03-10T11:24:01Z</time>
      </trkpt>
      <trkpt lat="41.614358000" lon="2.517940100">
        <ele>264.50</ele>
        <time>2013-03-10T11:24:13Z</time>
      </trkpt>
      <trkpt lat="41.614389500" lon="2.517920000">
        <ele>264.50</ele>
        <time>2013-03-10T11:24:25Z</time>
      </trkpt>
      <trkpt lat="41.614395700" lon="2.517922300">
        <ele>264.50</ele>
        <time>2013-03-10T11:24:30Z</time>
      </trkpt>
      <trkpt lat="41.614504100" lon="2.517923200">
        <ele>262.10</ele>
        <time>2013-03-10T11:24:37Z</time>
      </trkpt>
      <trkpt lat="41.614623200" lon="2.517913100">
        <ele>259.70</ele>
        <time>2013-03-10T11:24:44Z</time>
      </trkpt>
      <trkpt lat="41.614753200" lon="2.517853900">
        <ele>257.80</ele>
        <time>2013-03-10T11:24:49Z</time>
      </trkpt>
      <trkpt lat="41.614833300" lon="2.517754800">
        <ele>255.40</ele>
        <time>2013-03-10T11:24:53Z</time>
      </trkpt>
      <trkpt lat="41.614879500" lon="2.517669100">
        <ele>253.40</ele>
        <time>2013-03-10T11:24:55Z</time>
      </trkpt>
      <trkpt lat="41.614909300" lon="2.517570900">
        <ele>252.50</ele>
        <time>2013-03-10T11:24:58Z</time>
      </trkpt>
      <trkpt lat="41.614997000" lon="2.517270700">
        <ele>248.60</ele>
        <time>2013-03-10T11:25:02Z</time>
      </trkpt>
      <trkpt lat="41.615012600" lon="2.517081800">
        <ele>246.20</ele>
        <time>2013-03-10T11:25:05Z</time>
      </trkpt>
      <trkpt lat="41.614995100" lon="2.516986800">
        <ele>244.80</ele>
        <time>2013-03-10T11:25:07Z</time>
      </trkpt>
      <trkpt lat="41.615001900" lon="2.516852000">
        <ele>243.80</ele>
        <time>2013-03-10T11:25:12Z</time>
      </trkpt>
      <trkpt lat="41.615048000" lon="2.516942900">
        <ele>242.40</ele>
        <time>2013-03-10T11:25:14Z</time>
      </trkpt>
      <trkpt lat="41.615054500" lon="2.517001300">
        <ele>242.40</ele>
        <time>2013-03-10T11:25:16Z</time>
      </trkpt>
      <trkpt lat="41.615132300" lon="2.517355300">
        <ele>238.50</ele>
        <time>2013-03-10T11:25:23Z</time>
      </trkpt>
      <trkpt lat="41.615204600" lon="2.517366700">
        <ele>236.60</ele>
        <time>2013-03-10T11:25:26Z</time>
      </trkpt>
      <trkpt lat="41.615205600" lon="2.517311300">
        <ele>235.70</ele>
        <time>2013-03-10T11:25:28Z</time>
      </trkpt>
      <trkpt lat="41.615234900" lon="2.517078200">
        <ele>234.20</ele>
        <time>2013-03-10T11:25:35Z</time>
      </trkpt>
      <trkpt lat="41.615316100" lon="2.517058300">
        <ele>232.80</ele>
        <time>2013-03-10T11:25:40Z</time>
      </trkpt>
      <trkpt lat="41.615325100" lon="2.517155200">
        <ele>230.90</ele>
        <time>2013-03-10T11:25:45Z</time>
      </trkpt>
      <trkpt lat="41.615342200" lon="2.517237500">
        <ele>229.90</ele>
        <time>2013-03-10T11:25:47Z</time>
      </trkpt>
      <trkpt lat="41.615376800" lon="2.517489300">
        <ele>227.50</ele>
        <time>2013-03-10T11:25:54Z</time>
      </trkpt>
      <trkpt lat="41.615396600" lon="2.517604000">
        <ele>226.50</ele>
        <time>2013-03-10T11:25:57Z</time>
      </trkpt>
      <trkpt lat="41.615395400" lon="2.517676200">
        <ele>226.10</ele>
        <time>2013-03-10T11:26:01Z</time>
      </trkpt>
      <trkpt lat="41.615483600" lon="2.517571500">
        <ele>224.10</ele>
        <time>2013-03-10T11:26:06Z</time>
      </trkpt>
      <trkpt lat="41.615523000" lon="2.517493400">
        <ele>223.20</ele>
        <time>2013-03-10T11:26:08Z</time>
      </trkpt>
      <trkpt lat="41.615554700" lon="2.517448500">
        <ele>222.70</ele>
        <time>2013-03-10T11:26:11Z</time>
      </trkpt>
      <trkpt lat="41.615602700" lon="2.517428500">
        <ele>222.20</ele>
        <time>2013-03-10T11:26:17Z</time>
      </trkpt>
      <trkpt lat="41.615629000" lon="2.517475300">
        <ele>221.20</ele>
        <time>2013-03-10T11:26:20Z</time>
      </trkpt>
      <trkpt lat="41.615680600" lon="2.517535100">
        <ele>219.30</ele>
        <time>2013-03-10T11:26:23Z</time>
      </trkpt>
      <trkpt lat="41.615690700" lon="2.517554000">
        <ele>219.30</ele>
        <time>2013-03-10T11:26:25Z</time>
      </trkpt>
      <trkpt lat="41.615708800" lon="2.517594300">
        <ele>218.40</ele>
        <time>2013-03-10T11:26:27Z</time>
      </trkpt>
      <trkpt lat="41.615696000" lon="2.517728200">
        <ele>216.40</ele>
        <time>2013-03-10T11:26:34Z</time>
      </trkpt>
      <trkpt lat="41.615693400" lon="2.517750300">
        <ele>215.90</ele>
        <time>2013-03-10T11:26:36Z</time>
      </trkpt>
      <trkpt lat="41.615719100" lon="2.517830900">
        <ele>214.50</ele>
        <time>2013-03-10T11:26:39Z</time>
      </trkpt>
      <trkpt lat="41.615741000" lon="2.517815800">
        <ele>214.50</ele>
        <time>2013-03-10T11:26:43Z</time>
      </trkpt>
      <trkpt lat="41.615796200" lon="2.517728500">
        <ele>214.00</ele>
        <time>2013-03-10T11:26:50Z</time>
      </trkpt>
      <trkpt lat="41.615800300" lon="2.517736900">
        <ele>214.00</ele>
        <time>2013-03-10T11:26:53Z</time>
      </trkpt>
      <trkpt lat="41.615780400" lon="2.517807500">
        <ele>214.50</ele>
        <time>2013-03-10T11:27:00Z</time>
      </trkpt>
      <trkpt lat="41.615778500" lon="2.517818900">
        <ele>214.50</ele>
        <time>2013-03-10T11:27:02Z</time>
      </trkpt>
      <trkpt lat="41.615742900" lon="2.517887100">
        <ele>215.00</ele>
        <time>2013-03-10T11:27:05Z</time>
      </trkpt>
      <trkpt lat="41.615712500" lon="2.518029000">
        <ele>215.50</ele>
        <time>2013-03-10T11:27:14Z</time>
      </trkpt>
      <trkpt lat="41.615708900" lon="2.518037600">
        <ele>215.00</ele>
        <time>2013-03-10T11:27:21Z</time>
      </trkpt>
      <trkpt lat="41.615699100" lon="2.518004100">
        <ele>215.00</ele>
        <time>2013-03-10T11:27:28Z</time>
      </trkpt>
      <trkpt lat="41.615686600" lon="2.517892600">
        <ele>215.00</ele>
        <time>2013-03-10T11:27:35Z</time>
      </trkpt>
      <trkpt lat="41.615680500" lon="2.517838400">
        <ele>216.90</ele>
        <time>2013-03-10T11:27:37Z</time>
      </trkpt>
      <trkpt lat="41.615686700" lon="2.517751500">
        <ele>217.90</ele>
        <time>2013-03-10T11:27:45Z</time>
      </trkpt>
      <trkpt lat="41.615674200" lon="2.517640000">
        <ele>219.80</ele>
        <time>2013-03-10T11:27:52Z</time>
      </trkpt>
      <trkpt lat="41.615670300" lon="2.517627600">
        <ele>219.80</ele>
        <time>2013-03-10T11:27:52Z</time>
      </trkpt>
      <trkpt lat="41.615650300" lon="2.517610700">
        <ele>220.30</ele>
        <time>2013-03-10T11:27:54Z</time>
      </trkpt>
      <trkpt lat="41.615618500" lon="2.517537600">
        <ele>221.70</ele>
        <time>2013-03-10T11:27:59Z</time>
      </trkpt>
      <trkpt lat="41.615591400" lon="2.517500800">
        <ele>223.20</ele>
        <time>2013-03-10T11:28:03Z</time>
      </trkpt>
      <trkpt lat="41.615614100" lon="2.517399700">
        <ele>222.20</ele>
        <time>2013-03-10T11:28:08Z</time>
      </trkpt>
      <trkpt lat="41.615664800" lon="2.517229100">
        <ele>220.30</ele>
        <time>2013-03-10T11:28:12Z</time>
      </trkpt>
      <trkpt lat="41.615725300" lon="2.516844800">
        <ele>216.40</ele>
        <time>2013-03-10T11:28:18Z</time>
      </trkpt>
      <trkpt lat="41.615738300" lon="2.516804300">
        <ele>215.90</ele>
        <time>2013-03-10T11:28:20Z</time>
      </trkpt>
      <trkpt lat="41.615927800" lon="2.516776100">
        <ele>213.10</ele>
        <time>2013-03-10T11:28:25Z</time>
      </trkpt>
      <trkpt lat="41.616008300" lon="2.516835800">
        <ele>211.60</ele>
        <time>2013-03-10T11:28:27Z</time>
      </trkpt>
      <trkpt lat="41.616068900" lon="2.516924400">
        <ele>210.70</ele>
        <time>2013-03-10T11:28:29Z</time>
      </trkpt>
      <trkpt lat="41.616090700" lon="2.517108700">
        <ele>209.70</ele>
        <time>2013-03-10T11:28:32Z</time>
      </trkpt>
      <trkpt lat="41.616130000" lon="2.517719000">
        <ele>206.80</ele>
        <time>2013-03-10T11:28:41Z</time>
      </trkpt>
      <trkpt lat="41.616134100" lon="2.517936000">
        <ele>205.90</ele>
        <time>2013-03-10T11:28:43Z</time>
      </trkpt>
      <trkpt lat="41.616125100" lon="2.518060600">
        <ele>204.90</ele>
        <time>2013-03-10T11:28:46Z</time>
      </trkpt>
      <trkpt lat="41.616137800" lon="2.518382500">
        <ele>203.50</ele>
        <time>2013-03-10T11:28:52Z</time>
      </trkpt>
      <trkpt lat="41.616173500" lon="2.518517000">
        <ele>203.90</ele>
        <time>2013-03-10T11:28:55Z</time>
      </trkpt>
      <trkpt lat="41.616191300" lon="2.518575100">
        <ele>203.90</ele>
        <time>2013-03-10T11:28:57Z</time>
      </trkpt>
      <trkpt lat="41.616282700" lon="2.518632300">
        <ele>203.00</ele>
        <time>2013-03-10T11:29:02Z</time>
      </trkpt>
      <trkpt lat="41.616276100" lon="2.518770500">
        <ele>202.50</ele>
        <time>2013-03-10T11:29:06Z</time>
      </trkpt>
      <trkpt lat="41.616290000" lon="2.519038600">
        <ele>201.50</ele>
        <time>2013-03-10T11:29:11Z</time>
      </trkpt>
      <trkpt lat="41.616333600" lon="2.519455600">
        <ele>200.10</ele>
        <time>2013-03-10T11:29:16Z</time>
      </trkpt>
      <trkpt lat="41.616374000" lon="2.519839300">
        <ele>198.60</ele>
        <time>2013-03-10T11:29:21Z</time>
      </trkpt>
      <trkpt lat="41.616350200" lon="2.519914600">
        <ele>198.20</ele>
        <time>2013-03-10T11:29:23Z</time>
      </trkpt>
      <trkpt lat="41.616084500" lon="2.520627500">
        <ele>196.20</ele>
        <time>2013-03-10T11:29:32Z</time>
      </trkpt>
      <trkpt lat="41.615996100" lon="2.521037600">
        <ele>195.30</ele>
        <time>2013-03-10T11:29:37Z</time>
      </trkpt>
      <trkpt lat="41.615886100" lon="2.521818800">
        <ele>194.30</ele>
        <time>2013-03-10T11:29:46Z</time>
      </trkpt>
      <trkpt lat="41.615806600" lon="2.522472700">
        <ele>191.90</ele>
        <time>2013-03-10T11:29:53Z</time>
      </trkpt>
      <trkpt lat="41.615716200" lon="2.523113200">
        <ele>190.00</ele>
        <time>2013-03-10T11:29:58Z</time>
      </trkpt>
      <trkpt lat="41.615634900" lon="2.523920400">
        <ele>187.10</ele>
        <time>2013-03-10T11:30:05Z</time>
      </trkpt>
      <trkpt lat="41.615538400" lon="2.524893800">
        <ele>183.80</ele>
        <time>2013-03-10T11:30:13Z</time>
      </trkpt>
      <trkpt lat="41.615505900" lon="2.525806600">
        <ele>180.40</ele>
        <time>2013-03-10T11:30:20Z</time>
      </trkpt>
      <trkpt lat="41.615549900" lon="2.526558000">
        <ele>178.00</ele>
        <time>2013-03-10T11:30:26Z</time>
      </trkpt>
      <trkpt lat="41.615543500" lon="2.527046400">
        <ele>176.50</ele>
        <time>2013-03-10T11:30:31Z</time>
      </trkpt>
      <trkpt lat="41.615392700" lon="2.527905400">
        <ele>173.20</ele>
        <time>2013-03-10T11:30:38Z</time>
      </trkpt>
      <trkpt lat="41.615259800" lon="2.528527000">
        <ele>171.20</ele>
        <time>2013-03-10T11:30:43Z</time>
      </trkpt>
      <trkpt lat="41.615163000" lon="2.529339800">
        <ele>169.30</ele>
        <time>2013-03-10T11:30:48Z</time>
      </trkpt>
      <trkpt lat="41.615155800" lon="2.529613600">
        <ele>168.40</ele>
        <time>2013-03-10T11:30:50Z</time>
      </trkpt>
      <trkpt lat="41.615145600" lon="2.530141900">
        <ele>166.40</ele>
        <time>2013-03-10T11:30:55Z</time>
      </trkpt>
      <trkpt lat="41.615119600" lon="2.530742300">
        <ele>164.00</ele>
        <time>2013-03-10T11:30:59Z</time>
      </trkpt>
      <trkpt lat="41.615091800" lon="2.531174600">
        <ele>162.10</ele>
        <time>2013-03-10T11:31:04Z</time>
      </trkpt>
      <trkpt lat="41.615177400" lon="2.531597500">
        <ele>160.70</ele>
        <time>2013-03-10T11:31:09Z</time>
      </trkpt>
      <trkpt lat="41.615162300" lon="2.532123900">
        <ele>158.30</ele>
        <time>2013-03-10T11:31:14Z</time>
      </trkpt>
      <trkpt lat="41.614986700" lon="2.532844100">
        <ele>157.30</ele>
        <time>2013-03-10T11:31:21Z</time>
      </trkpt>
      <trkpt lat="41.614743900" lon="2.533700700">
        <ele>154.40</ele>
        <time>2013-03-10T11:31:30Z</time>
      </trkpt>
      <trkpt lat="41.614455000" lon="2.534584800">
        <ele>152.00</ele>
        <time>2013-03-10T11:31:37Z</time>
      </trkpt>
      <trkpt lat="41.614383500" lon="2.534807900">
        <ele>151.50</ele>
        <time>2013-03-10T11:31:39Z</time>
      </trkpt>
      <trkpt lat="41.614147700" lon="2.535551400">
        <ele>148.70</ele>
        <time>2013-03-10T11:31:46Z</time>
      </trkpt>
      <trkpt lat="41.613854200" lon="2.536283400">
        <ele>146.70</ele>
        <time>2013-03-10T11:31:54Z</time>
      </trkpt>
      <trkpt lat="41.613722600" lon="2.536553300">
        <ele>144.80</ele>
        <time>2013-03-10T11:32:00Z</time>
      </trkpt>
      <trkpt lat="41.613665300" lon="2.536625100">
        <ele>144.30</ele>
        <time>2013-03-10T11:32:05Z</time>
      </trkpt>
      <trkpt lat="41.613574900" lon="2.536807200">
        <ele>143.90</ele>
        <time>2013-03-10T11:32:10Z</time>
      </trkpt>
      <trkpt lat="41.613456900" lon="2.537001400">
        <ele>143.40</ele>
        <time>2013-03-10T11:32:15Z</time>
      </trkpt>
      <trkpt lat="41.613368400" lon="2.537144500">
        <ele>142.90</ele>
        <time>2013-03-10T11:32:19Z</time>
      </trkpt>
      <trkpt lat="41.613253200" lon="2.537272600">
        <ele>142.40</ele>
        <time>2013-03-10T11:32:22Z</time>
      </trkpt>
      <trkpt lat="41.613007000" lon="2.537550100">
        <ele>141.90</ele>
        <time>2013-03-10T11:32:28Z</time>
      </trkpt>
      <trkpt lat="41.612568500" lon="2.538061500">
        <ele>139.10</ele>
        <time>2013-03-10T11:32:38Z</time>
      </trkpt>
      <trkpt lat="41.612251700" lon="2.538508800">
        <ele>137.60</ele>
        <time>2013-03-10T11:32:45Z</time>
      </trkpt>
      <trkpt lat="41.612098900" lon="2.538831700">
        <ele>136.60</ele>
        <time>2013-03-10T11:32:50Z</time>
      </trkpt>
      <trkpt lat="41.612028700" lon="2.538925500">
        <ele>136.20</ele>
        <time>2013-03-10T11:32:52Z</time>
      </trkpt>
      <trkpt lat="41.611944000" lon="2.539016500">
        <ele>135.20</ele>
        <time>2013-03-10T11:32:54Z</time>
      </trkpt>
      <trkpt lat="41.611838900" lon="2.538954900">
        <ele>135.20</ele>
        <time>2013-03-10T11:32:59Z</time>
      </trkpt>
      <trkpt lat="41.611756500" lon="2.538717300">
        <ele>136.60</ele>
        <time>2013-03-10T11:33:06Z</time>
      </trkpt>
      <trkpt lat="41.611651400" lon="2.538721600">
        <ele>137.60</ele>
        <time>2013-03-10T11:33:11Z</time>
      </trkpt>
      <trkpt lat="41.611568400" lon="2.538728300">
        <ele>136.60</ele>
        <time>2013-03-10T11:33:13Z</time>
      </trkpt>
      <trkpt lat="41.611153700" lon="2.538785700">
        <ele>135.20</ele>
        <time>2013-03-10T11:33:20Z</time>
      </trkpt>
      <trkpt lat="41.611098000" lon="2.538799000">
        <ele>134.70</ele>
        <time>2013-03-10T11:33:20Z</time>
      </trkpt>
      <trkpt lat="41.610657600" lon="2.539001700">
        <ele>133.30</ele>
        <time>2013-03-10T11:33:27Z</time>
      </trkpt>
      <trkpt lat="41.610168500" lon="2.539282900">
        <ele>131.80</ele>
        <time>2013-03-10T11:33:36Z</time>
      </trkpt>
      <trkpt lat="41.609805200" lon="2.539495500">
        <ele>129.40</ele>
        <time>2013-03-10T11:33:41Z</time>
      </trkpt>
      <trkpt lat="41.609538500" lon="2.539664400">
        <ele>128.00</ele>
        <time>2013-03-10T11:33:48Z</time>
      </trkpt>
      <trkpt lat="41.609374100" lon="2.539760700">
        <ele>126.60</ele>
        <time>2013-03-10T11:33:51Z</time>
      </trkpt>
      <trkpt lat="41.609254400" lon="2.539862300">
        <ele>125.60</ele>
        <time>2013-03-10T11:33:55Z</time>
      </trkpt>
      <trkpt lat="41.609130100" lon="2.540009800">
        <ele>124.60</ele>
        <time>2013-03-10T11:34:03Z</time>
      </trkpt>
      <trkpt lat="41.609117000" lon="2.540047900">
        <ele>124.20</ele>
        <time>2013-03-10T11:34:10Z</time>
      </trkpt>
      <trkpt lat="41.609107700" lon="2.540115300">
        <ele>124.20</ele>
        <time>2013-03-10T11:34:17Z</time>
      </trkpt>
      <trkpt lat="41.609102800" lon="2.540128900">
        <ele>124.20</ele>
        <time>2013-03-10T11:34:19Z</time>
      </trkpt>
      <trkpt lat="41.608981900" lon="2.540224600">
        <ele>124.20</ele>
        <time>2013-03-10T11:34:26Z</time>
      </trkpt>
      <trkpt lat="41.608965600" lon="2.540239700">
        <ele>124.20</ele>
        <time>2013-03-10T11:34:28Z</time>
      </trkpt>
      <trkpt lat="41.608874700" lon="2.540391200">
        <ele>123.70</ele>
        <time>2013-03-10T11:34:35Z</time>
      </trkpt>
      <trkpt lat="41.608855000" lon="2.540321700">
        <ele>123.20</ele>
        <time>2013-03-10T11:34:40Z</time>
      </trkpt>
      <trkpt lat="41.608802100" lon="2.540281100">
        <ele>122.70</ele>
        <time>2013-03-10T11:34:42Z</time>
      </trkpt>
      <trkpt lat="41.608718900" lon="2.540289000">
        <ele>122.20</ele>
        <time>2013-03-10T11:34:43Z</time>
      </trkpt>
      <trkpt lat="41.608383200" lon="2.540353200">
        <ele>121.30</ele>
        <time>2013-03-10T11:34:50Z</time>
      </trkpt>
      <trkpt lat="41.607986200" lon="2.540388200">
        <ele>120.80</ele>
        <time>2013-03-10T11:34:59Z</time>
      </trkpt>
      <trkpt lat="41.607754100" lon="2.540416400">
        <ele>120.30</ele>
        <time>2013-03-10T11:35:06Z</time>
      </trkpt>
      <trkpt lat="41.607723400" lon="2.540438000">
        <ele>120.30</ele>
        <time>2013-03-10T11:35:06Z</time>
      </trkpt>
      <trkpt lat="41.607550200" lon="2.540393700">
        <ele>118.40</ele>
        <time>2013-03-10T11:35:11Z</time>
      </trkpt>
      <trkpt lat="41.607441500" lon="2.540366700">
        <ele>117.90</ele>
        <time>2013-03-10T11:35:13Z</time>
      </trkpt>
      <trkpt lat="41.607043500" lon="2.540253500">
        <ele>117.40</ele>
        <time>2013-03-10T11:35:20Z</time>
      </trkpt>
      <trkpt lat="41.606622000" lon="2.540164500">
        <ele>115.50</ele>
        <time>2013-03-10T11:35:29Z</time>
      </trkpt>
      <trkpt lat="41.606523000" lon="2.540151000">
        <ele>115.50</ele>
        <time>2013-03-10T11:35:30Z</time>
      </trkpt>
      <trkpt lat="41.606341100" lon="2.540131800">
        <ele>115.00</ele>
        <time>2013-03-10T11:35:34Z</time>
      </trkpt>
      <trkpt lat="41.606188400" lon="2.540134800">
        <ele>115.00</ele>
        <time>2013-03-10T11:35:39Z</time>
      </trkpt>
      <trkpt lat="41.606056800" lon="2.540277000">
        <ele>115.50</ele>
        <time>2013-03-10T11:35:46Z</time>
      </trkpt>
      <trkpt lat="41.605978600" lon="2.540315200">
        <ele>115.00</ele>
        <time>2013-03-10T11:35:48Z</time>
      </trkpt>
      <trkpt lat="41.605944500" lon="2.540325600">
        <ele>115.00</ele>
        <time>2013-03-10T11:35:50Z</time>
      </trkpt>
      <trkpt lat="41.605946700" lon="2.540471300">
        <ele>115.50</ele>
        <time>2013-03-10T11:35:55Z</time>
      </trkpt>
      <trkpt lat="41.605959500" lon="2.540517100">
        <ele>115.50</ele>
        <time>2013-03-10T11:35:57Z</time>
      </trkpt>
      <trkpt lat="41.606101800" lon="2.540647500">
        <ele>116.00</ele>
        <time>2013-03-10T11:36:02Z</time>
      </trkpt>
      <trkpt lat="41.606128500" lon="2.540653600">
        <ele>116.00</ele>
        <time>2013-03-10T11:36:04Z</time>
      </trkpt>
      <trkpt lat="41.606344600" lon="2.540693400">
        <ele>116.90</ele>
        <time>2013-03-10T11:36:12Z</time>
      </trkpt>
      <trkpt lat="41.606481100" lon="2.540776900">
        <ele>117.90</ele>
        <time>2013-03-10T11:36:17Z</time>
      </trkpt>
      <trkpt lat="41.606580900" lon="2.540961300">
        <ele>118.40</ele>
        <time>2013-03-10T11:36:23Z</time>
      </trkpt>
      <trkpt lat="41.606683500" lon="2.541302600">
        <ele>120.80</ele>
        <time>2013-03-10T11:36:33Z</time>
      </trkpt>
      <trkpt lat="41.606771500" lon="2.541639800">
        <ele>122.70</ele>
        <time>2013-03-10T11:36:42Z</time>
      </trkpt>
      <trkpt lat="41.606875800" lon="2.541950700">
        <ele>124.60</ele>
        <time>2013-03-10T11:36:51Z</time>
      </trkpt>
      <trkpt lat="41.606970000" lon="2.542162900">
        <ele>126.60</ele>
        <time>2013-03-10T11:36:58Z</time>
      </trkpt>
      <trkpt lat="41.607060000" lon="2.542301300">
        <ele>127.50</ele>
        <time>2013-03-10T11:37:05Z</time>
      </trkpt>
      <trkpt lat="41.607076000" lon="2.542318900">
        <ele>128.50</ele>
        <time>2013-03-10T11:37:10Z</time>
      </trkpt>
      <trkpt lat="41.607044200" lon="2.542304400">
        <ele>128.50</ele>
        <time>2013-03-10T11:37:20Z</time>
      </trkpt>
      <trkpt lat="41.607041700" lon="2.542283800">
        <ele>128.50</ele>
        <time>2013-03-10T11:37:31Z</time>
      </trkpt>
      <trkpt lat="41.607065800" lon="2.542274600">
        <ele>128.50</ele>
        <time>2013-03-10T11:37:46Z</time>
      </trkpt>
    </trkseg>
  </trk>
</gpx>
